<?xml version="1.0" encoding="UTF-8" standalone="no" ?>
<gpx xmlns="http://www.topografix.com/GPX/1/1" xmlns:xsi="http://www.w3.org/2001/XMLSchema-instance" xsi:schemaLocation="http://www.topografix.com/GPX/1/1 http://www.topografix.com/GPX/1/1/gpx.xsd" version="1.1" creator="VisuGPX - https://www.visugpx.com">
  <metadata>
    <name>Boucle au Crabère en 1 jour</name>
    <desc><![CDATA[
]]></desc>
  </metadata>
  <trk>
    <name><![CDATA[Boucle au Crabère J1]]></name>
    <desc><![CDATA[Jour 1 : De Labach à l'étang d'Araing en passant par le ruisseau de Maudan]]></desc>
    <extensions>
      <line xmlns="http://www.topografix.com/GPX/gpx_style/0/2">
        <color>0000FF</color>
        <width>4</width>
      </line>
    </extensions>
    <trkseg>
      <trkpt lat="42.86469" lon="0.80027">
        <ele>984</ele>
        <time>2021-06-12T08:23:45Z</time>
      </trkpt>
      <trkpt lat="42.8647" lon="0.8001">
        <ele>983.4</ele>
      </trkpt>
      <trkpt lat="42.86472" lon="0.79995">
        <ele>983.2</ele>
        <time>2021-06-12T08:23:45Z</time>
      </trkpt>
      <trkpt lat="42.86473" lon="0.7998">
        <ele>982.8</ele>
      </trkpt>
      <trkpt lat="42.86472" lon="0.7996">
        <ele>980.7</ele>
        <time>2021-06-12T08:23:45Z</time>
      </trkpt>
      <trkpt lat="42.86474" lon="0.79938">
        <ele>979.9</ele>
        <time>2021-06-12T08:23:53Z</time>
      </trkpt>
      <trkpt lat="42.86477" lon="0.79915">
        <ele>979.1</ele>
        <time>2021-06-12T08:23:59Z</time>
      </trkpt>
      <trkpt lat="42.86457" lon="0.79946">
        <ele>972.3</ele>
        <time>2021-06-12T08:24:05Z</time>
      </trkpt>
      <trkpt lat="42.86446" lon="0.79964">
        <ele>967.9</ele>
        <time>2021-06-12T08:24:10Z</time>
      </trkpt>
      <trkpt lat="42.86437" lon="0.79984">
        <ele>964.3</ele>
        <time>2021-06-12T08:24:16Z</time>
      </trkpt>
      <trkpt lat="42.86432" lon="0.79993">
        <ele>962</ele>
        <time>2021-06-12T08:24:28Z</time>
      </trkpt>
      <trkpt lat="42.86427" lon="0.8">
        <ele>959.6</ele>
      </trkpt>
      <trkpt lat="42.86424" lon="0.80006">
        <ele>958.3</ele>
        <time>2021-06-12T08:24:39Z</time>
      </trkpt>
      <trkpt lat="42.86425" lon="0.80018">
        <ele>959.4</ele>
        <time>2021-06-12T08:24:45Z</time>
      </trkpt>
      <trkpt lat="42.86427" lon="0.80032">
        <ele>961.3</ele>
        <time>2021-06-12T08:24:52Z</time>
      </trkpt>
      <trkpt lat="42.86424" lon="0.80049">
        <ele>960.5</ele>
        <time>2021-06-12T08:24:57Z</time>
      </trkpt>
      <trkpt lat="42.86409" lon="0.8007">
        <ele>952.6</ele>
        <time>2021-06-12T08:25:28Z</time>
      </trkpt>
      <trkpt lat="42.86403" lon="0.80094">
        <ele>950.3</ele>
        <time>2021-06-12T08:25:34Z</time>
      </trkpt>
      <trkpt lat="42.86396" lon="0.80114">
        <ele>947.4</ele>
        <time>2021-06-12T08:25:39Z</time>
      </trkpt>
      <trkpt lat="42.86392" lon="0.80129">
        <ele>946</ele>
        <time>2021-06-12T08:25:45Z</time>
      </trkpt>
      <trkpt lat="42.86385" lon="0.80162">
        <ele>943.8</ele>
        <time>2021-06-12T08:27:56Z</time>
      </trkpt>
      <trkpt lat="42.8638" lon="0.80168">
        <ele>940.9</ele>
        <time>2021-06-12T08:28:02Z</time>
      </trkpt>
      <trkpt lat="42.86376" lon="0.80176">
        <ele>938.6</ele>
        <time>2021-06-12T08:28:08Z</time>
      </trkpt>
      <trkpt lat="42.86377" lon="0.80187">
        <ele>939.7</ele>
        <time>2021-06-12T08:28:15Z</time>
      </trkpt>
      <trkpt lat="42.86371" lon="0.80194">
        <ele>936</ele>
        <time>2021-06-12T08:28:20Z</time>
      </trkpt>
      <trkpt lat="42.86368" lon="0.80203">
        <ele>934.4</ele>
        <time>2021-06-12T08:28:26Z</time>
      </trkpt>
      <trkpt lat="42.86363" lon="0.80215">
        <ele>931.7</ele>
        <time>2021-06-12T08:28:39Z</time>
      </trkpt>
      <trkpt lat="42.86359" lon="0.80223">
        <ele>929.4</ele>
        <time>2021-06-12T08:28:47Z</time>
      </trkpt>
      <trkpt lat="42.86355" lon="0.8023">
        <ele>927.1</ele>
        <time>2021-06-12T08:28:54Z</time>
      </trkpt>
      <trkpt lat="42.86353" lon="0.8024">
        <ele>926.3</ele>
        <time>2021-06-12T08:29:04Z</time>
      </trkpt>
      <trkpt lat="42.86355" lon="0.8025">
        <ele>928</ele>
        <time>2021-06-12T08:29:10Z</time>
      </trkpt>
      <trkpt lat="42.86358" lon="0.80264">
        <ele>930.9</ele>
        <time>2021-06-12T08:29:16Z</time>
      </trkpt>
      <trkpt lat="42.86359" lon="0.80277">
        <ele>932.4</ele>
        <time>2021-06-12T08:29:22Z</time>
      </trkpt>
      <trkpt lat="42.86359" lon="0.80287">
        <ele>933.1</ele>
        <time>2021-06-12T08:29:31Z</time>
      </trkpt>
      <trkpt lat="42.86354" lon="0.80292">
        <ele>930.4</ele>
        <time>2021-06-12T08:29:37Z</time>
      </trkpt>
      <trkpt lat="42.86347" lon="0.80298">
        <ele>926.7</ele>
        <time>2021-06-12T08:29:44Z</time>
      </trkpt>
      <trkpt lat="42.86344" lon="0.8031">
        <ele>925.9</ele>
        <time>2021-06-12T08:29:50Z</time>
      </trkpt>
      <trkpt lat="42.86342" lon="0.8032">
        <ele>925.6</ele>
        <time>2021-06-12T08:29:55Z</time>
      </trkpt>
      <trkpt lat="42.86339" lon="0.80328">
        <ele>924.7</ele>
        <time>2021-06-12T08:30:01Z</time>
      </trkpt>
      <trkpt lat="42.86337" lon="0.80339">
        <ele>925.4</ele>
        <time>2021-06-12T08:30:08Z</time>
      </trkpt>
      <trkpt lat="42.86333" lon="0.80345">
        <ele>924.8</ele>
        <time>2021-06-12T08:30:24Z</time>
      </trkpt>
      <trkpt lat="42.86328" lon="0.80351">
        <ele>925.5</ele>
        <time>2021-06-12T08:30:30Z</time>
      </trkpt>
      <trkpt lat="42.86321" lon="0.80359">
        <ele>926.3</ele>
        <time>2021-06-12T08:30:37Z</time>
      </trkpt>
      <trkpt lat="42.86317" lon="0.80366">
        <ele>927.2</ele>
        <time>2021-06-12T08:30:42Z</time>
      </trkpt>
      <trkpt lat="42.86314" lon="0.80374">
        <ele>928.3</ele>
        <time>2021-06-12T08:30:49Z</time>
      </trkpt>
      <trkpt lat="42.86308" lon="0.80381">
        <ele>928.6</ele>
        <time>2021-06-12T08:30:57Z</time>
      </trkpt>
      <trkpt lat="42.86302" lon="0.80387">
        <ele>928.5</ele>
        <time>2021-06-12T08:31:06Z</time>
      </trkpt>
      <trkpt lat="42.86295" lon="0.80397">
        <ele>928.7</ele>
        <time>2021-06-12T08:31:12Z</time>
      </trkpt>
      <trkpt lat="42.86286" lon="0.80403">
        <ele>927.5</ele>
        <time>2021-06-12T08:31:18Z</time>
      </trkpt>
      <trkpt lat="42.86281" lon="0.8041">
        <ele>927.3</ele>
        <time>2021-06-12T08:31:26Z</time>
      </trkpt>
      <trkpt lat="42.86273" lon="0.80417">
        <ele>926</ele>
        <time>2021-06-12T08:31:32Z</time>
      </trkpt>
      <trkpt lat="42.86271" lon="0.80424">
        <ele>926.3</ele>
        <time>2021-06-12T08:31:41Z</time>
      </trkpt>
      <trkpt lat="42.86267" lon="0.8043">
        <ele>925.8</ele>
        <time>2021-06-12T08:31:52Z</time>
      </trkpt>
      <trkpt lat="42.86262" lon="0.80444">
        <ele>925.4</ele>
        <time>2021-06-12T08:32:42Z</time>
      </trkpt>
      <trkpt lat="42.86261" lon="0.80465">
        <ele>926.7</ele>
        <time>2021-06-12T08:32:47Z</time>
      </trkpt>
      <trkpt lat="42.86265" lon="0.80496">
        <ele>930.8</ele>
        <time>2021-06-12T08:32:53Z</time>
      </trkpt>
      <trkpt lat="42.86268" lon="0.80515">
        <ele>933.8</ele>
        <time>2021-06-12T08:32:59Z</time>
      </trkpt>
      <trkpt lat="42.8627" lon="0.80532">
        <ele>936.2</ele>
        <time>2021-06-12T08:33:04Z</time>
      </trkpt>
      <trkpt lat="42.86271" lon="0.80545">
        <ele>937.9</ele>
        <time>2021-06-12T08:33:10Z</time>
      </trkpt>
      <trkpt lat="42.86265" lon="0.80555">
        <ele>936.4</ele>
        <time>2021-06-12T08:33:17Z</time>
      </trkpt>
      <trkpt lat="42.86259" lon="0.80563">
        <ele>934.7</ele>
        <time>2021-06-12T08:33:23Z</time>
      </trkpt>
      <trkpt lat="42.86252" lon="0.80573">
        <ele>932.8</ele>
        <time>2021-06-12T08:33:29Z</time>
      </trkpt>
      <trkpt lat="42.86245" lon="0.80586">
        <ele>935.1</ele>
        <time>2021-06-12T08:33:35Z</time>
      </trkpt>
      <trkpt lat="42.86242" lon="0.80595">
        <ele>936.7</ele>
        <time>2021-06-12T08:35:58Z</time>
      </trkpt>
      <trkpt lat="42.86249" lon="0.80599">
        <ele>934.1</ele>
        <time>2021-06-12T08:36:24Z</time>
      </trkpt>
      <trkpt lat="42.86244" lon="0.80608">
        <ele>936.4</ele>
        <time>2021-06-12T08:37:08Z</time>
      </trkpt>
      <trkpt lat="42.86253" lon="0.80608">
        <ele>935.5</ele>
        <time>2021-06-12T08:37:16Z</time>
      </trkpt>
      <trkpt lat="42.86245" lon="0.80616">
        <ele>936.3</ele>
        <time>2021-06-12T08:37:30Z</time>
      </trkpt>
      <trkpt lat="42.86245" lon="0.80623">
        <ele>936.8</ele>
        <time>2021-06-12T08:37:46Z</time>
      </trkpt>
      <trkpt lat="42.86242" lon="0.80632">
        <ele>937.9</ele>
        <time>2021-06-12T08:37:55Z</time>
      </trkpt>
      <trkpt lat="42.86239" lon="0.80636">
        <ele>938.9</ele>
        <time>2021-06-12T08:38:05Z</time>
      </trkpt>
      <trkpt lat="42.86239" lon="0.80643">
        <ele>939.3</ele>
        <time>2021-06-12T08:38:16Z</time>
      </trkpt>
      <trkpt lat="42.8624" lon="0.80652">
        <ele>939.2</ele>
        <time>2021-06-12T08:38:27Z</time>
      </trkpt>
      <trkpt lat="42.8624" lon="0.80663">
        <ele>939.5</ele>
        <time>2021-06-12T08:38:47Z</time>
      </trkpt>
      <trkpt lat="42.86238" lon="0.80671">
        <ele>941.3</ele>
        <time>2021-06-12T08:38:55Z</time>
      </trkpt>
      <trkpt lat="42.86237" lon="0.80678">
        <ele>943.3</ele>
        <time>2021-06-12T08:39:16Z</time>
      </trkpt>
      <trkpt lat="42.86237" lon="0.80688">
        <ele>945.7</ele>
        <time>2021-06-12T08:39:22Z</time>
      </trkpt>
      <trkpt lat="42.86231" lon="0.80694">
        <ele>947.9</ele>
      </trkpt>
      <trkpt lat="42.86228" lon="0.80696">
        <ele>948.6</ele>
        <time>2021-06-12T08:39:31Z</time>
      </trkpt>
      <trkpt lat="42.86223" lon="0.80699">
        <ele>949.6</ele>
        <time>2021-06-12T08:39:37Z</time>
      </trkpt>
      <trkpt lat="42.86217" lon="0.80706">
        <ele>951</ele>
        <time>2021-06-12T08:39:42Z</time>
      </trkpt>
      <trkpt lat="42.8621" lon="0.80712">
        <ele>951.8</ele>
        <time>2021-06-12T08:39:48Z</time>
      </trkpt>
      <trkpt lat="42.862" lon="0.8072">
        <ele>952.1</ele>
        <time>2021-06-12T08:40:14Z</time>
      </trkpt>
      <trkpt lat="42.86194" lon="0.80726">
        <ele>951.9</ele>
        <time>2021-06-12T08:40:22Z</time>
      </trkpt>
      <trkpt lat="42.8619" lon="0.8073">
        <ele>951.5</ele>
        <time>2021-06-12T08:40:28Z</time>
      </trkpt>
      <trkpt lat="42.86184" lon="0.80736">
        <ele>950.5</ele>
        <time>2021-06-12T08:40:38Z</time>
      </trkpt>
      <trkpt lat="42.86177" lon="0.80738">
        <ele>949.4</ele>
        <time>2021-06-12T08:40:46Z</time>
      </trkpt>
      <trkpt lat="42.86172" lon="0.8074">
        <ele>948.4</ele>
        <time>2021-06-12T08:40:51Z</time>
      </trkpt>
      <trkpt lat="42.86166" lon="0.80745">
        <ele>947.1</ele>
        <time>2021-06-12T08:40:58Z</time>
      </trkpt>
      <trkpt lat="42.86161" lon="0.80755">
        <ele>948.8</ele>
        <time>2021-06-12T08:41:10Z</time>
      </trkpt>
      <trkpt lat="42.86156" lon="0.80763">
        <ele>951.3</ele>
        <time>2021-06-12T08:41:20Z</time>
      </trkpt>
      <trkpt lat="42.86157" lon="0.80774">
        <ele>951.3</ele>
        <time>2021-06-12T08:41:28Z</time>
      </trkpt>
      <trkpt lat="42.86151" lon="0.8078">
        <ele>953.8</ele>
        <time>2021-06-12T08:41:35Z</time>
      </trkpt>
      <trkpt lat="42.86152" lon="0.80788">
        <ele>953.6</ele>
        <time>2021-06-12T08:41:52Z</time>
      </trkpt>
      <trkpt lat="42.86158" lon="0.80797">
        <ele>951.8</ele>
        <time>2021-06-12T08:42:43Z</time>
      </trkpt>
      <trkpt lat="42.86161" lon="0.80805">
        <ele>951.1</ele>
        <time>2021-06-12T08:42:50Z</time>
      </trkpt>
      <trkpt lat="42.86165" lon="0.80811">
        <ele>950.2</ele>
        <time>2021-06-12T08:43:20Z</time>
      </trkpt>
      <trkpt lat="42.86166" lon="0.80822">
        <ele>950.5</ele>
        <time>2021-06-12T08:43:36Z</time>
      </trkpt>
      <trkpt lat="42.86168" lon="0.80836">
        <ele>951.9</ele>
        <time>2021-06-12T08:43:45Z</time>
      </trkpt>
      <trkpt lat="42.86168" lon="0.80847">
        <ele>953</ele>
        <time>2021-06-12T08:43:53Z</time>
      </trkpt>
      <trkpt lat="42.86172" lon="0.80862">
        <ele>956.5</ele>
        <time>2021-06-12T08:44:08Z</time>
      </trkpt>
      <trkpt lat="42.86175" lon="0.80882">
        <ele>960.2</ele>
        <time>2021-06-12T08:44:44Z</time>
      </trkpt>
      <trkpt lat="42.86173" lon="0.80893">
        <ele>960.3</ele>
        <time>2021-06-12T08:44:49Z</time>
      </trkpt>
      <trkpt lat="42.86172" lon="0.80904">
        <ele>960.8</ele>
        <time>2021-06-12T08:44:55Z</time>
      </trkpt>
      <trkpt lat="42.86165" lon="0.80918">
        <ele>959.6</ele>
        <time>2021-06-12T08:45:18Z</time>
      </trkpt>
      <trkpt lat="42.86163" lon="0.80928">
        <ele>962</ele>
        <time>2021-06-12T08:45:28Z</time>
      </trkpt>
      <trkpt lat="42.86159" lon="0.80936">
        <ele>964.2</ele>
        <time>2021-06-12T08:45:37Z</time>
      </trkpt>
      <trkpt lat="42.86156" lon="0.80943">
        <ele>965.8</ele>
        <time>2021-06-12T08:45:45Z</time>
      </trkpt>
      <trkpt lat="42.86153" lon="0.80952">
        <ele>967.7</ele>
        <time>2021-06-12T08:45:52Z</time>
      </trkpt>
      <trkpt lat="42.8615" lon="0.80959">
        <ele>969.1</ele>
        <time>2021-06-12T08:45:58Z</time>
      </trkpt>
      <trkpt lat="42.86146" lon="0.80967">
        <ele>970.6</ele>
        <time>2021-06-12T08:46:06Z</time>
      </trkpt>
      <trkpt lat="42.86142" lon="0.80977">
        <ele>972.1</ele>
        <time>2021-06-12T08:46:18Z</time>
      </trkpt>
      <trkpt lat="42.86138" lon="0.80984">
        <ele>973</ele>
        <time>2021-06-12T08:46:26Z</time>
      </trkpt>
      <trkpt lat="42.86131" lon="0.80991">
        <ele>973.5</ele>
        <time>2021-06-12T08:46:50Z</time>
      </trkpt>
      <trkpt lat="42.86127" lon="0.81">
        <ele>974.2</ele>
        <time>2021-06-12T08:47:00Z</time>
      </trkpt>
      <trkpt lat="42.86121" lon="0.81008">
        <ele>975.9</ele>
        <time>2021-06-12T08:47:12Z</time>
      </trkpt>
      <trkpt lat="42.86117" lon="0.81015">
        <ele>977.3</ele>
        <time>2021-06-12T08:47:19Z</time>
      </trkpt>
      <trkpt lat="42.86109" lon="0.81023">
        <ele>978.1</ele>
        <time>2021-06-12T08:47:31Z</time>
      </trkpt>
      <trkpt lat="42.86102" lon="0.81031">
        <ele>978.6</ele>
        <time>2021-06-12T08:47:42Z</time>
      </trkpt>
      <trkpt lat="42.86094" lon="0.81034">
        <ele>977.6</ele>
        <time>2021-06-12T08:47:50Z</time>
      </trkpt>
      <trkpt lat="42.86086" lon="0.8103">
        <ele>975.2</ele>
        <time>2021-06-12T08:47:56Z</time>
      </trkpt>
      <trkpt lat="42.86076" lon="0.8103">
        <ele>976.1</ele>
        <time>2021-06-12T08:48:01Z</time>
      </trkpt>
      <trkpt lat="42.86068" lon="0.81038">
        <ele>978.4</ele>
        <time>2021-06-12T08:48:26Z</time>
      </trkpt>
      <trkpt lat="42.8606" lon="0.81045">
        <ele>980.2</ele>
        <time>2021-06-12T08:48:32Z</time>
      </trkpt>
      <trkpt lat="42.86045" lon="0.8106">
        <ele>982.6</ele>
        <time>2021-06-12T08:49:01Z</time>
      </trkpt>
      <trkpt lat="42.86035" lon="0.81067">
        <ele>983.3</ele>
        <time>2021-06-12T08:49:30Z</time>
      </trkpt>
      <trkpt lat="42.86032" lon="0.81072">
        <ele>983.3</ele>
        <time>2021-06-12T08:49:51Z</time>
      </trkpt>
      <trkpt lat="42.86025" lon="0.81077">
        <ele>983.3</ele>
      </trkpt>
      <trkpt lat="42.8602" lon="0.81085">
        <ele>983.3</ele>
        <time>2021-06-12T08:50:20Z</time>
      </trkpt>
      <trkpt lat="42.86015" lon="0.81091">
        <ele>984.1</ele>
        <time>2021-06-12T08:50:48Z</time>
      </trkpt>
      <trkpt lat="42.86004" lon="0.811">
        <ele>985.1</ele>
        <time>2021-06-12T08:51:04Z</time>
      </trkpt>
      <trkpt lat="42.85995" lon="0.81104">
        <ele>986.1</ele>
        <time>2021-06-12T08:51:27Z</time>
      </trkpt>
      <trkpt lat="42.85987" lon="0.81108">
        <ele>987.3</ele>
        <time>2021-06-12T08:51:34Z</time>
      </trkpt>
      <trkpt lat="42.8598" lon="0.81115">
        <ele>988.8</ele>
        <time>2021-06-12T08:51:51Z</time>
      </trkpt>
      <trkpt lat="42.85968" lon="0.81125">
        <ele>991.1</ele>
        <time>2021-06-12T08:53:01Z</time>
      </trkpt>
      <trkpt lat="42.85959" lon="0.81133">
        <ele>992.8</ele>
        <time>2021-06-12T08:54:32Z</time>
      </trkpt>
      <trkpt lat="42.85944" lon="0.81155">
        <ele>996.5</ele>
        <time>2021-06-12T08:55:46Z</time>
      </trkpt>
      <trkpt lat="42.85929" lon="0.81179">
        <ele>1003.2</ele>
        <time>2021-06-12T08:55:52Z</time>
      </trkpt>
      <trkpt lat="42.85922" lon="0.81192">
        <ele>1008.4</ele>
        <time>2021-06-12T08:56:30Z</time>
      </trkpt>
      <trkpt lat="42.85915" lon="0.81203">
        <ele>1012.7</ele>
      </trkpt>
      <trkpt lat="42.85908" lon="0.81215">
        <ele>1016.4</ele>
        <time>2021-06-12T08:56:46Z</time>
      </trkpt>
      <trkpt lat="42.85903" lon="0.81224">
        <ele>1019.1</ele>
        <time>2021-06-12T08:57:07Z</time>
      </trkpt>
      <trkpt lat="42.85902" lon="0.81234">
        <ele>1022.1</ele>
        <time>2021-06-12T08:57:20Z</time>
      </trkpt>
      <trkpt lat="42.859" lon="0.81243">
        <ele>1024.7</ele>
        <time>2021-06-12T08:57:31Z</time>
      </trkpt>
      <trkpt lat="42.85892" lon="0.81249">
        <ele>1025.5</ele>
        <time>2021-06-12T08:57:56Z</time>
      </trkpt>
      <trkpt lat="42.85888" lon="0.81258">
        <ele>1027.5</ele>
        <time>2021-06-12T08:58:06Z</time>
      </trkpt>
      <trkpt lat="42.85877" lon="0.81271">
        <ele>1030</ele>
        <time>2021-06-12T08:58:44Z</time>
      </trkpt>
      <trkpt lat="42.85869" lon="0.81276">
        <ele>1030.7</ele>
        <time>2021-06-12T08:58:50Z</time>
      </trkpt>
      <trkpt lat="42.85862" lon="0.8128">
        <ele>1031.3</ele>
        <time>2021-06-12T09:00:16Z</time>
      </trkpt>
      <trkpt lat="42.85853" lon="0.81285">
        <ele>1032.2</ele>
        <time>2021-06-12T09:00:58Z</time>
      </trkpt>
      <trkpt lat="42.85845" lon="0.81296">
        <ele>1035.3</ele>
        <time>2021-06-12T09:01:04Z</time>
      </trkpt>
      <trkpt lat="42.85837" lon="0.81298">
        <ele>1035.5</ele>
        <time>2021-06-12T09:01:10Z</time>
      </trkpt>
      <trkpt lat="42.85827" lon="0.81306">
        <ele>1037</ele>
        <time>2021-06-12T09:01:15Z</time>
      </trkpt>
      <trkpt lat="42.85822" lon="0.81317">
        <ele>1039.5</ele>
        <time>2021-06-12T09:01:21Z</time>
      </trkpt>
      <trkpt lat="42.85813" lon="0.81323">
        <ele>1038.9</ele>
        <time>2021-06-12T09:01:27Z</time>
      </trkpt>
      <trkpt lat="42.85808" lon="0.81328">
        <ele>1038.8</ele>
        <time>2021-06-12T09:01:33Z</time>
      </trkpt>
      <trkpt lat="42.85803" lon="0.81335">
        <ele>1039.1</ele>
        <time>2021-06-12T09:01:40Z</time>
      </trkpt>
      <trkpt lat="42.85797" lon="0.81341">
        <ele>1038.9</ele>
        <time>2021-06-12T09:01:46Z</time>
      </trkpt>
      <trkpt lat="42.85793" lon="0.81348">
        <ele>1039.5</ele>
        <time>2021-06-12T09:01:54Z</time>
      </trkpt>
      <trkpt lat="42.85789" lon="0.81358">
        <ele>1040.8</ele>
        <time>2021-06-12T09:02:28Z</time>
      </trkpt>
      <trkpt lat="42.85789" lon="0.81369">
        <ele>1043.7</ele>
        <time>2021-06-12T09:02:36Z</time>
      </trkpt>
      <trkpt lat="42.85788" lon="0.81377">
        <ele>1045.4</ele>
        <time>2021-06-12T09:02:43Z</time>
      </trkpt>
      <trkpt lat="42.85786" lon="0.81385">
        <ele>1046.6</ele>
        <time>2021-06-12T09:02:49Z</time>
      </trkpt>
      <trkpt lat="42.85784" lon="0.81395">
        <ele>1048.1</ele>
        <time>2021-06-12T09:02:57Z</time>
      </trkpt>
      <trkpt lat="42.85782" lon="0.81404">
        <ele>1049.3</ele>
        <time>2021-06-12T09:03:04Z</time>
      </trkpt>
      <trkpt lat="42.85779" lon="0.81415">
        <ele>1050.3</ele>
        <time>2021-06-12T09:04:00Z</time>
      </trkpt>
      <trkpt lat="42.85773" lon="0.81427">
        <ele>1051.3</ele>
        <time>2021-06-12T09:04:08Z</time>
      </trkpt>
      <trkpt lat="42.85764" lon="0.81436">
        <ele>1049.5</ele>
        <time>2021-06-12T09:04:14Z</time>
      </trkpt>
      <trkpt lat="42.85754" lon="0.81443">
        <ele>1046.2</ele>
        <time>2021-06-12T09:04:19Z</time>
      </trkpt>
      <trkpt lat="42.85749" lon="0.81452">
        <ele>1047.1</ele>
        <time>2021-06-12T09:04:25Z</time>
      </trkpt>
      <trkpt lat="42.85746" lon="0.81463">
        <ele>1050.7</ele>
        <time>2021-06-12T09:04:31Z</time>
      </trkpt>
      <trkpt lat="42.85744" lon="0.81474">
        <ele>1054.2</ele>
        <time>2021-06-12T09:04:36Z</time>
      </trkpt>
      <trkpt lat="42.85742" lon="0.81484">
        <ele>1057</ele>
        <time>2021-06-12T09:04:42Z</time>
      </trkpt>
      <trkpt lat="42.85739" lon="0.81492">
        <ele>1058.6</ele>
        <time>2021-06-12T09:04:48Z</time>
      </trkpt>
      <trkpt lat="42.85735" lon="0.815">
        <ele>1059.6</ele>
        <time>2021-06-12T09:04:53Z</time>
      </trkpt>
      <trkpt lat="42.85735" lon="0.81511">
        <ele>1063.9</ele>
        <time>2021-06-12T09:04:59Z</time>
      </trkpt>
      <trkpt lat="42.85731" lon="0.81519">
        <ele>1065.4</ele>
        <time>2021-06-12T09:05:14Z</time>
      </trkpt>
      <trkpt lat="42.85729" lon="0.81527">
        <ele>1067.6</ele>
        <time>2021-06-12T09:05:19Z</time>
      </trkpt>
      <trkpt lat="42.85728" lon="0.81535">
        <ele>1070.1</ele>
        <time>2021-06-12T09:05:25Z</time>
      </trkpt>
      <trkpt lat="42.85725" lon="0.81546">
        <ele>1072.6</ele>
        <time>2021-06-12T09:05:35Z</time>
      </trkpt>
      <trkpt lat="42.85722" lon="0.81552">
        <ele>1073.2</ele>
        <time>2021-06-12T09:05:40Z</time>
      </trkpt>
      <trkpt lat="42.85717" lon="0.81557">
        <ele>1072.2</ele>
        <time>2021-06-12T09:05:46Z</time>
      </trkpt>
      <trkpt lat="42.85713" lon="0.81565">
        <ele>1072.6</ele>
        <time>2021-06-12T09:05:53Z</time>
      </trkpt>
      <trkpt lat="42.8571" lon="0.81573">
        <ele>1073.3</ele>
        <time>2021-06-12T09:05:59Z</time>
      </trkpt>
      <trkpt lat="42.85706" lon="0.81581">
        <ele>1073.3</ele>
        <time>2021-06-12T09:06:05Z</time>
      </trkpt>
      <trkpt lat="42.85702" lon="0.81588">
        <ele>1073.2</ele>
        <time>2021-06-12T09:06:11Z</time>
      </trkpt>
      <trkpt lat="42.85698" lon="0.81595">
        <ele>1073.3</ele>
        <time>2021-06-12T09:06:17Z</time>
      </trkpt>
      <trkpt lat="42.85695" lon="0.81601">
        <ele>1073.6</ele>
        <time>2021-06-12T09:06:22Z</time>
      </trkpt>
      <trkpt lat="42.85692" lon="0.8161">
        <ele>1075</ele>
        <time>2021-06-12T09:06:28Z</time>
      </trkpt>
      <trkpt lat="42.85688" lon="0.81616">
        <ele>1074.7</ele>
        <time>2021-06-12T09:06:34Z</time>
      </trkpt>
      <trkpt lat="42.85683" lon="0.8162">
        <ele>1073</ele>
        <time>2021-06-12T09:06:40Z</time>
      </trkpt>
      <trkpt lat="42.85678" lon="0.81624">
        <ele>1071.3</ele>
        <time>2021-06-12T09:06:47Z</time>
      </trkpt>
      <trkpt lat="42.85671" lon="0.81631">
        <ele>1069.5</ele>
        <time>2021-06-12T09:06:55Z</time>
      </trkpt>
      <trkpt lat="42.85667" lon="0.81637">
        <ele>1069.2</ele>
        <time>2021-06-12T09:07:01Z</time>
      </trkpt>
      <trkpt lat="42.85661" lon="0.81643">
        <ele>1070</ele>
        <time>2021-06-12T09:07:08Z</time>
      </trkpt>
      <trkpt lat="42.85657" lon="0.81649">
        <ele>1071.1</ele>
        <time>2021-06-12T09:07:14Z</time>
      </trkpt>
      <trkpt lat="42.85652" lon="0.81653">
        <ele>1071.1</ele>
        <time>2021-06-12T09:07:19Z</time>
      </trkpt>
      <trkpt lat="42.85645" lon="0.81661">
        <ele>1071.5</ele>
        <time>2021-06-12T09:07:31Z</time>
      </trkpt>
      <trkpt lat="42.85636" lon="0.81681">
        <ele>1073.8</ele>
        <time>2021-06-12T09:08:07Z</time>
      </trkpt>
      <trkpt lat="42.85626" lon="0.81699">
        <ele>1074.8</ele>
        <time>2021-06-12T09:08:12Z</time>
      </trkpt>
      <trkpt lat="42.85615" lon="0.81717">
        <ele>1075</ele>
        <time>2021-06-12T09:08:19Z</time>
      </trkpt>
      <trkpt lat="42.8561" lon="0.81728">
        <ele>1075.5</ele>
        <time>2021-06-12T09:08:27Z</time>
      </trkpt>
      <trkpt lat="42.85606" lon="0.81737">
        <ele>1075.9</ele>
        <time>2021-06-12T09:08:34Z</time>
      </trkpt>
      <trkpt lat="42.85602" lon="0.81747">
        <ele>1076.4</ele>
        <time>2021-06-12T09:08:44Z</time>
      </trkpt>
      <trkpt lat="42.85598" lon="0.81755">
        <ele>1076</ele>
        <time>2021-06-12T09:08:57Z</time>
      </trkpt>
      <trkpt lat="42.856" lon="0.81751">
        <ele>1076.3</ele>
        <time>2021-06-12T09:09:11Z</time>
      </trkpt>
      <trkpt lat="42.85599" lon="0.81754">
        <ele>1076.3</ele>
        <time>2021-06-12T09:09:19Z</time>
      </trkpt>
      <trkpt lat="42.85599" lon="0.81759">
        <ele>1076.9</ele>
        <time>2021-06-12T09:09:25Z</time>
      </trkpt>
      <trkpt lat="42.85597" lon="0.81763">
        <ele>1076.5</ele>
        <time>2021-06-12T09:09:30Z</time>
      </trkpt>
      <trkpt lat="42.85593" lon="0.81772">
        <ele>1075.7</ele>
        <time>2021-06-12T09:09:47Z</time>
      </trkpt>
      <trkpt lat="42.85591" lon="0.8178">
        <ele>1075.6</ele>
        <time>2021-06-12T09:10:07Z</time>
      </trkpt>
      <trkpt lat="42.85589" lon="0.81786">
        <ele>1075.3</ele>
        <time>2021-06-12T09:10:22Z</time>
      </trkpt>
      <trkpt lat="42.85587" lon="0.81793">
        <ele>1075</ele>
        <time>2021-06-12T09:10:32Z</time>
      </trkpt>
      <trkpt lat="42.85583" lon="0.81804">
        <ele>1074.3</ele>
        <time>2021-06-12T09:10:49Z</time>
      </trkpt>
      <trkpt lat="42.85581" lon="0.81813">
        <ele>1075.5</ele>
        <time>2021-06-12T09:10:56Z</time>
      </trkpt>
      <trkpt lat="42.85578" lon="0.81829">
        <ele>1077.2</ele>
        <time>2021-06-12T09:11:31Z</time>
      </trkpt>
      <trkpt lat="42.85572" lon="0.81834">
        <ele>1078.4</ele>
        <time>2021-06-12T09:11:37Z</time>
      </trkpt>
      <trkpt lat="42.85577" lon="0.81839">
        <ele>1079.7</ele>
        <time>2021-06-12T09:11:59Z</time>
      </trkpt>
      <trkpt lat="42.85581" lon="0.81836">
        <ele>1078.3</ele>
        <time>2021-06-12T09:13:15Z</time>
      </trkpt>
      <trkpt lat="42.85576" lon="0.81831">
        <ele>1077.6</ele>
        <time>2021-06-12T09:16:30Z</time>
      </trkpt>
      <trkpt lat="42.85572" lon="0.81838">
        <ele>1079.8</ele>
        <time>2021-06-12T09:19:33Z</time>
      </trkpt>
      <trkpt lat="42.85569" lon="0.81845">
        <ele>1082.3</ele>
        <time>2021-06-12T09:20:00Z</time>
      </trkpt>
      <trkpt lat="42.85564" lon="0.81853">
        <ele>1084.8</ele>
        <time>2021-06-12T09:21:16Z</time>
      </trkpt>
      <trkpt lat="42.85556" lon="0.81855">
        <ele>1085.3</ele>
        <time>2021-06-12T09:21:24Z</time>
      </trkpt>
      <trkpt lat="42.85551" lon="0.81854">
        <ele>1085</ele>
        <time>2021-06-12T09:21:30Z</time>
      </trkpt>
      <trkpt lat="42.85547" lon="0.81863">
        <ele>1086.8</ele>
        <time>2021-06-12T09:21:49Z</time>
      </trkpt>
      <trkpt lat="42.85541" lon="0.81865">
        <ele>1086.8</ele>
        <time>2021-06-12T09:21:55Z</time>
      </trkpt>
      <trkpt lat="42.85535" lon="0.81868">
        <ele>1086.8</ele>
        <time>2021-06-12T09:22:04Z</time>
      </trkpt>
      <trkpt lat="42.85526" lon="0.81887">
        <ele>1087.6</ele>
        <time>2021-06-12T09:22:12Z</time>
      </trkpt>
      <trkpt lat="42.85514" lon="0.81914">
        <ele>1085.8</ele>
        <time>2021-06-12T09:24:51Z</time>
      </trkpt>
      <trkpt lat="42.85501" lon="0.81939">
        <ele>1091</ele>
        <time>2021-06-12T09:24:59Z</time>
      </trkpt>
      <trkpt lat="42.85489" lon="0.81942">
        <ele>1093.8</ele>
        <time>2021-06-12T09:25:06Z</time>
      </trkpt>
      <trkpt lat="42.85481" lon="0.81946">
        <ele>1096.7</ele>
        <time>2021-06-12T09:25:29Z</time>
      </trkpt>
      <trkpt lat="42.85474" lon="0.81946">
        <ele>1097.8</ele>
        <time>2021-06-12T09:25:40Z</time>
      </trkpt>
      <trkpt lat="42.85468" lon="0.81946">
        <ele>1098.8</ele>
        <time>2021-06-12T09:25:45Z</time>
      </trkpt>
      <trkpt lat="42.8546" lon="0.8195">
        <ele>1101.4</ele>
        <time>2021-06-12T09:25:56Z</time>
      </trkpt>
      <trkpt lat="42.85454" lon="0.81952">
        <ele>1102.9</ele>
        <time>2021-06-12T09:26:02Z</time>
      </trkpt>
      <trkpt lat="42.85448" lon="0.81951">
        <ele>1103.4</ele>
        <time>2021-06-12T09:26:08Z</time>
      </trkpt>
      <trkpt lat="42.85441" lon="0.81953">
        <ele>1105</ele>
        <time>2021-06-12T09:26:20Z</time>
      </trkpt>
      <trkpt lat="42.85434" lon="0.81955">
        <ele>1106.5</ele>
        <time>2021-06-12T09:26:29Z</time>
      </trkpt>
      <trkpt lat="42.85429" lon="0.81954">
        <ele>1106.9</ele>
        <time>2021-06-12T09:26:35Z</time>
      </trkpt>
      <trkpt lat="42.85422" lon="0.81952">
        <ele>1107.4</ele>
        <time>2021-06-12T09:26:43Z</time>
      </trkpt>
      <trkpt lat="42.85415" lon="0.81957">
        <ele>1109.6</ele>
        <time>2021-06-12T09:26:53Z</time>
      </trkpt>
      <trkpt lat="42.85405" lon="0.81956">
        <ele>1112</ele>
        <time>2021-06-12T09:27:43Z</time>
      </trkpt>
      <trkpt lat="42.85392" lon="0.81954">
        <ele>1115</ele>
        <time>2021-06-12T09:28:44Z</time>
      </trkpt>
      <trkpt lat="42.85382" lon="0.81956">
        <ele>1117.8</ele>
        <time>2021-06-12T09:28:59Z</time>
      </trkpt>
      <trkpt lat="42.85371" lon="0.81962">
        <ele>1121</ele>
        <time>2021-06-12T09:29:22Z</time>
      </trkpt>
      <trkpt lat="42.85358" lon="0.81967">
        <ele>1124.2</ele>
        <time>2021-06-12T09:29:32Z</time>
      </trkpt>
      <trkpt lat="42.85335" lon="0.81973">
        <ele>1129</ele>
        <time>2021-06-12T09:31:46Z</time>
      </trkpt>
      <trkpt lat="42.85323" lon="0.81987">
        <ele>1130.4</ele>
        <time>2021-06-12T09:32:05Z</time>
      </trkpt>
      <trkpt lat="42.85321" lon="0.82005">
        <ele>1131.6</ele>
        <time>2021-06-12T09:32:15Z</time>
      </trkpt>
      <trkpt lat="42.85314" lon="0.82011">
        <ele>1134.7</ele>
        <time>2021-06-12T09:32:29Z</time>
      </trkpt>
      <trkpt lat="42.85308" lon="0.82017">
        <ele>1137.4</ele>
        <time>2021-06-12T09:32:42Z</time>
      </trkpt>
      <trkpt lat="42.853" lon="0.82019">
        <ele>1138.6</ele>
        <time>2021-06-12T09:32:55Z</time>
      </trkpt>
      <trkpt lat="42.85294" lon="0.82026">
        <ele>1141.2</ele>
        <time>2021-06-12T09:33:55Z</time>
      </trkpt>
      <trkpt lat="42.85285" lon="0.8203">
        <ele>1142.6</ele>
        <time>2021-06-12T09:34:07Z</time>
      </trkpt>
      <trkpt lat="42.85271" lon="0.82034">
        <ele>1143.8</ele>
        <time>2021-06-12T09:34:13Z</time>
      </trkpt>
      <trkpt lat="42.8526" lon="0.82036">
        <ele>1144.1</ele>
        <time>2021-06-12T09:34:18Z</time>
      </trkpt>
      <trkpt lat="42.85259" lon="0.82046">
        <ele>1146.1</ele>
        <time>2021-06-12T09:34:24Z</time>
      </trkpt>
      <trkpt lat="42.85257" lon="0.82051">
        <ele>1147</ele>
        <time>2021-06-12T09:34:31Z</time>
      </trkpt>
      <trkpt lat="42.85255" lon="0.82057">
        <ele>1148</ele>
        <time>2021-06-12T09:36:30Z</time>
      </trkpt>
      <trkpt lat="42.85253" lon="0.8206">
        <ele>1148.4</ele>
        <time>2021-06-12T09:37:05Z</time>
      </trkpt>
      <trkpt lat="42.85252" lon="0.82063">
        <ele>1148.8</ele>
        <time>2021-06-12T09:37:14Z</time>
      </trkpt>
      <trkpt lat="42.85252" lon="0.82067">
        <ele>1149.5</ele>
        <time>2021-06-12T09:37:19Z</time>
      </trkpt>
      <trkpt lat="42.8525" lon="0.82074">
        <ele>1150.4</ele>
        <time>2021-06-12T09:37:25Z</time>
      </trkpt>
      <trkpt lat="42.85247" lon="0.82081">
        <ele>1152.1</ele>
        <time>2021-06-12T09:37:31Z</time>
      </trkpt>
      <trkpt lat="42.85246" lon="0.82088">
        <ele>1154.9</ele>
        <time>2021-06-12T09:37:36Z</time>
      </trkpt>
      <trkpt lat="42.85243" lon="0.82097">
        <ele>1159.5</ele>
        <time>2021-06-12T09:37:43Z</time>
      </trkpt>
      <trkpt lat="42.8524" lon="0.82105">
        <ele>1163.5</ele>
        <time>2021-06-12T09:38:55Z</time>
      </trkpt>
      <trkpt lat="42.85237" lon="0.82113">
        <ele>1167.4</ele>
        <time>2021-06-12T09:39:14Z</time>
      </trkpt>
      <trkpt lat="42.85235" lon="0.82122">
        <ele>1171.5</ele>
        <time>2021-06-12T09:39:26Z</time>
      </trkpt>
      <trkpt lat="42.85232" lon="0.82131">
        <ele>1175.5</ele>
        <time>2021-06-12T09:39:39Z</time>
      </trkpt>
      <trkpt lat="42.85227" lon="0.82138">
        <ele>1178.5</ele>
        <time>2021-06-12T09:39:50Z</time>
      </trkpt>
      <trkpt lat="42.85218" lon="0.82159">
        <ele>1186.5</ele>
        <time>2021-06-12T09:43:24Z</time>
      </trkpt>
      <trkpt lat="42.85205" lon="0.82175">
        <ele>1191.7</ele>
        <time>2021-06-12T09:43:32Z</time>
      </trkpt>
      <trkpt lat="42.8517" lon="0.82209">
        <ele>1205.4</ele>
        <time>2021-06-12T09:44:13Z</time>
      </trkpt>
      <trkpt lat="42.85158" lon="0.82221">
        <ele>1211.8</ele>
        <time>2021-06-12T09:44:29Z</time>
      </trkpt>
      <trkpt lat="42.85154" lon="0.82227">
        <ele>1215</ele>
        <time>2021-06-12T09:44:38Z</time>
      </trkpt>
      <trkpt lat="42.85144" lon="0.82239">
        <ele>1221.4</ele>
        <time>2021-06-12T09:44:50Z</time>
      </trkpt>
      <trkpt lat="42.85137" lon="0.82245">
        <ele>1224.6</ele>
        <time>2021-06-12T09:45:00Z</time>
      </trkpt>
      <trkpt lat="42.85132" lon="0.82251">
        <ele>1228.2</ele>
        <time>2021-06-12T09:45:57Z</time>
      </trkpt>
      <trkpt lat="42.85131" lon="0.82265">
        <ele>1241.1</ele>
        <time>2021-06-12T09:49:07Z</time>
      </trkpt>
      <trkpt lat="42.85124" lon="0.82276">
        <ele>1250.9</ele>
        <time>2021-06-12T09:50:37Z</time>
      </trkpt>
      <trkpt lat="42.85118" lon="0.82286">
        <ele>1259.4</ele>
        <time>2021-06-12T09:51:01Z</time>
      </trkpt>
      <trkpt lat="42.85108" lon="0.82282">
        <ele>1255.2</ele>
        <time>2021-06-12T09:52:38Z</time>
      </trkpt>
      <trkpt lat="42.85114" lon="0.82283">
        <ele>1256.4</ele>
        <time>2021-06-12T09:52:45Z</time>
      </trkpt>
      <trkpt lat="42.8511" lon="0.82282">
        <ele>1255.3</ele>
        <time>2021-06-12T09:53:44Z</time>
      </trkpt>
      <trkpt lat="42.85105" lon="0.82286">
        <ele>1258.3</ele>
        <time>2021-06-12T09:53:50Z</time>
      </trkpt>
      <trkpt lat="42.85096" lon="0.82308">
        <ele>1275.4</ele>
        <time>2021-06-12T09:54:56Z</time>
      </trkpt>
      <trkpt lat="42.8509" lon="0.82322">
        <ele>1285.6</ele>
        <time>2021-06-12T09:55:45Z</time>
      </trkpt>
      <trkpt lat="42.85088" lon="0.8233">
        <ele>1291.5</ele>
        <time>2021-06-12T09:55:58Z</time>
      </trkpt>
      <trkpt lat="42.85081" lon="0.82332">
        <ele>1291.4</ele>
        <time>2021-06-12T09:56:46Z</time>
      </trkpt>
      <trkpt lat="42.85077" lon="0.82331">
        <ele>1290.2</ele>
        <time>2021-06-12T09:56:58Z</time>
      </trkpt>
      <trkpt lat="42.85071" lon="0.82335">
        <ele>1291.5</ele>
        <time>2021-06-12T09:57:34Z</time>
      </trkpt>
      <trkpt lat="42.85059" lon="0.82337">
        <ele>1290.5</ele>
        <time>2021-06-12T09:58:39Z</time>
      </trkpt>
      <trkpt lat="42.85053" lon="0.82343">
        <ele>1293.2</ele>
        <time>2021-06-12T09:58:49Z</time>
      </trkpt>
      <trkpt lat="42.85044" lon="0.82353">
        <ele>1297.9</ele>
        <time>2021-06-12T09:58:59Z</time>
      </trkpt>
      <trkpt lat="42.85033" lon="0.82355">
        <ele>1296.5</ele>
        <time>2021-06-12T09:59:10Z</time>
      </trkpt>
      <trkpt lat="42.85024" lon="0.82357">
        <ele>1296.1</ele>
        <time>2021-06-12T09:59:21Z</time>
      </trkpt>
      <trkpt lat="42.85017" lon="0.8236">
        <ele>1296.1</ele>
        <time>2021-06-12T09:59:31Z</time>
      </trkpt>
      <trkpt lat="42.8501" lon="0.82363">
        <ele>1296.5</ele>
        <time>2021-06-12T09:59:43Z</time>
      </trkpt>
      <trkpt lat="42.85003" lon="0.82364">
        <ele>1295.5</ele>
        <time>2021-06-12T10:00:02Z</time>
      </trkpt>
      <trkpt lat="42.84997" lon="0.82365">
        <ele>1296</ele>
        <time>2021-06-12T10:02:38Z</time>
      </trkpt>
      <trkpt lat="42.84992" lon="0.8237">
        <ele>1299.4</ele>
        <time>2021-06-12T10:02:49Z</time>
      </trkpt>
      <trkpt lat="42.84985" lon="0.82377">
        <ele>1303.7</ele>
        <time>2021-06-12T10:04:13Z</time>
      </trkpt>
      <trkpt lat="42.84982" lon="0.8238">
        <ele>1305.6</ele>
        <time>2021-06-12T10:04:45Z</time>
      </trkpt>
      <trkpt lat="42.84977" lon="0.82385">
        <ele>1308.3</ele>
      </trkpt>
      <trkpt lat="42.84974" lon="0.82391">
        <ele>1311.3</ele>
        <time>2021-06-12T10:05:00Z</time>
      </trkpt>
      <trkpt lat="42.84971" lon="0.82399">
        <ele>1314.7</ele>
        <time>2021-06-12T10:05:17Z</time>
      </trkpt>
      <trkpt lat="42.84965" lon="0.82404">
        <ele>1316.6</ele>
        <time>2021-06-12T10:05:26Z</time>
      </trkpt>
      <trkpt lat="42.8496" lon="0.82416">
        <ele>1320.9</ele>
        <time>2021-06-12T10:06:17Z</time>
      </trkpt>
      <trkpt lat="42.84955" lon="0.82421">
        <ele>1322.7</ele>
        <time>2021-06-12T10:06:24Z</time>
      </trkpt>
      <trkpt lat="42.84949" lon="0.82433">
        <ele>1327.8</ele>
        <time>2021-06-12T10:06:33Z</time>
      </trkpt>
      <trkpt lat="42.84942" lon="0.82445">
        <ele>1332.7</ele>
        <time>2021-06-12T10:09:11Z</time>
      </trkpt>
      <trkpt lat="42.84935" lon="0.82445">
        <ele>1332.5</ele>
        <time>2021-06-12T10:09:26Z</time>
      </trkpt>
      <trkpt lat="42.84927" lon="0.82444">
        <ele>1330.9</ele>
        <time>2021-06-12T10:09:40Z</time>
      </trkpt>
      <trkpt lat="42.84921" lon="0.82442">
        <ele>1329.6</ele>
        <time>2021-06-12T10:09:49Z</time>
      </trkpt>
      <trkpt lat="42.84914" lon="0.82441">
        <ele>1328.6</ele>
        <time>2021-06-12T10:09:54Z</time>
      </trkpt>
      <trkpt lat="42.84907" lon="0.82444">
        <ele>1329.8</ele>
        <time>2021-06-12T10:10:02Z</time>
      </trkpt>
      <trkpt lat="42.84899" lon="0.82447">
        <ele>1330.6</ele>
        <time>2021-06-12T10:11:07Z</time>
      </trkpt>
      <trkpt lat="42.84891" lon="0.82445">
        <ele>1329.3</ele>
        <time>2021-06-12T10:11:16Z</time>
      </trkpt>
      <trkpt lat="42.84885" lon="0.82452">
        <ele>1331.6</ele>
        <time>2021-06-12T10:11:31Z</time>
      </trkpt>
      <trkpt lat="42.84878" lon="0.82458">
        <ele>1333</ele>
        <time>2021-06-12T10:11:49Z</time>
      </trkpt>
      <trkpt lat="42.84865" lon="0.82458">
        <ele>1331.5</ele>
        <time>2021-06-12T10:12:01Z</time>
      </trkpt>
      <trkpt lat="42.84859" lon="0.82461">
        <ele>1331.6</ele>
        <time>2021-06-12T10:12:12Z</time>
      </trkpt>
      <trkpt lat="42.84854" lon="0.82465">
        <ele>1331.8</ele>
        <time>2021-06-12T10:12:46Z</time>
      </trkpt>
      <trkpt lat="42.84814" lon="0.82548">
        <ele>1366.4</ele>
      </trkpt>
      <trkpt lat="42.8481" lon="0.82576">
        <ele>1381.7</ele>
      </trkpt>
      <trkpt lat="42.84764" lon="0.82601">
        <ele>1386.2</ele>
      </trkpt>
      <trkpt lat="42.8474" lon="0.82636">
        <ele>1403.5</ele>
      </trkpt>
      <trkpt lat="42.84711" lon="0.82652">
        <ele>1408.4</ele>
      </trkpt>
      <trkpt lat="42.84612" lon="0.82578">
        <ele>1430.9</ele>
      </trkpt>
      <trkpt lat="42.84576" lon="0.82535">
        <ele>1442.4</ele>
      </trkpt>
      <trkpt lat="42.84521" lon="0.82484">
        <ele>1441.4</ele>
      </trkpt>
      <trkpt lat="42.84427" lon="0.82469">
        <ele>1444.2</ele>
      </trkpt>
      <trkpt lat="42.84354" lon="0.82495">
        <ele>1439.3</ele>
      </trkpt>
      <trkpt lat="42.84322" lon="0.82527">
        <ele>1444.9</ele>
        <time>2021-06-12T10:50:37Z</time>
      </trkpt>
      <trkpt lat="42.84295" lon="0.82568">
        <ele>1457.4</ele>
        <time>2021-06-12T10:50:46Z</time>
      </trkpt>
      <trkpt lat="42.84281" lon="0.82611">
        <ele>1475.1</ele>
        <time>2021-06-12T10:52:54Z</time>
      </trkpt>
      <trkpt lat="42.84255" lon="0.82624">
        <ele>1476.5</ele>
      </trkpt>
      <trkpt lat="42.84223" lon="0.82625">
        <ele>1478.6</ele>
        <time>2021-06-12T10:57:30Z</time>
      </trkpt>
      <trkpt lat="42.84218" lon="0.82631">
        <ele>1481.9</ele>
        <time>2021-06-12T10:57:41Z</time>
      </trkpt>
      <trkpt lat="42.8421" lon="0.82633">
        <ele>1483.9</ele>
        <time>2021-06-12T10:58:11Z</time>
      </trkpt>
      <trkpt lat="42.84191" lon="0.8264">
        <ele>1488.8</ele>
        <time>2021-06-12T10:59:45Z</time>
      </trkpt>
      <trkpt lat="42.84171" lon="0.82665">
        <ele>1503.6</ele>
        <time>2021-06-12T11:00:54Z</time>
      </trkpt>
      <trkpt lat="42.84162" lon="0.82665">
        <ele>1504.7</ele>
        <time>2021-06-12T11:01:15Z</time>
      </trkpt>
      <trkpt lat="42.84148" lon="0.82679">
        <ele>1511.5</ele>
      </trkpt>
      <trkpt lat="42.84143" lon="0.8269">
        <ele>1515.4</ele>
        <time>2021-06-12T11:01:47Z</time>
      </trkpt>
      <trkpt lat="42.84139" lon="0.82701">
        <ele>1519.3</ele>
        <time>2021-06-12T11:03:58Z</time>
      </trkpt>
      <trkpt lat="42.84143" lon="0.82704">
        <ele>1520.3</ele>
        <time>2021-06-12T11:04:27Z</time>
      </trkpt>
      <trkpt lat="42.84136" lon="0.8271">
        <ele>1522.1</ele>
        <time>2021-06-12T11:04:34Z</time>
      </trkpt>
      <trkpt lat="42.84129" lon="0.82717">
        <ele>1523.9</ele>
        <time>2021-06-12T11:04:41Z</time>
      </trkpt>
      <trkpt lat="42.84123" lon="0.82722">
        <ele>1525</ele>
        <time>2021-06-12T11:04:48Z</time>
      </trkpt>
      <trkpt lat="42.84119" lon="0.82727">
        <ele>1526</ele>
        <time>2021-06-12T11:04:57Z</time>
      </trkpt>
      <trkpt lat="42.84113" lon="0.82727">
        <ele>1525.4</ele>
        <time>2021-06-12T11:05:10Z</time>
      </trkpt>
      <trkpt lat="42.84112" lon="0.8272">
        <ele>1523.6</ele>
        <time>2021-06-12T11:05:20Z</time>
      </trkpt>
      <trkpt lat="42.84112" lon="0.82729">
        <ele>1525.8</ele>
        <time>2021-06-12T11:05:33Z</time>
      </trkpt>
      <trkpt lat="42.84109" lon="0.82739">
        <ele>1527.8</ele>
        <time>2021-06-12T11:05:54Z</time>
      </trkpt>
      <trkpt lat="42.84107" lon="0.8275">
        <ele>1530</ele>
        <time>2021-06-12T11:06:04Z</time>
      </trkpt>
      <trkpt lat="42.84104" lon="0.82758">
        <ele>1532.6</ele>
        <time>2021-06-12T11:06:25Z</time>
      </trkpt>
      <trkpt lat="42.84101" lon="0.8277">
        <ele>1536.6</ele>
        <time>2021-06-12T11:06:31Z</time>
      </trkpt>
      <trkpt lat="42.84096" lon="0.82779">
        <ele>1538.9</ele>
        <time>2021-06-12T11:06:42Z</time>
      </trkpt>
      <trkpt lat="42.8409" lon="0.82787">
        <ele>1540.5</ele>
        <time>2021-06-12T11:06:50Z</time>
      </trkpt>
      <trkpt lat="42.84082" lon="0.82803">
        <ele>1544.9</ele>
        <time>2021-06-12T11:07:10Z</time>
      </trkpt>
      <trkpt lat="42.84073" lon="0.82814">
        <ele>1550.9</ele>
        <time>2021-06-12T11:07:17Z</time>
      </trkpt>
      <trkpt lat="42.84065" lon="0.82821">
        <ele>1554.6</ele>
        <time>2021-06-12T11:07:28Z</time>
      </trkpt>
      <trkpt lat="42.84061" lon="0.82828">
        <ele>1556.8</ele>
        <time>2021-06-12T11:08:07Z</time>
      </trkpt>
      <trkpt lat="42.84056" lon="0.82838">
        <ele>1559.8</ele>
        <time>2021-06-12T11:08:24Z</time>
      </trkpt>
      <trkpt lat="42.84051" lon="0.82853">
        <ele>1563.7</ele>
        <time>2021-06-12T11:08:40Z</time>
      </trkpt>
      <trkpt lat="42.84052" lon="0.82859">
        <ele>1565.1</ele>
        <time>2021-06-12T11:08:51Z</time>
      </trkpt>
      <trkpt lat="42.84047" lon="0.82864">
        <ele>1565.9</ele>
        <time>2021-06-12T11:10:00Z</time>
      </trkpt>
      <trkpt lat="42.84044" lon="0.82876">
        <ele>1568</ele>
        <time>2021-06-12T11:10:13Z</time>
      </trkpt>
      <trkpt lat="42.84044" lon="0.82881">
        <ele>1568.9</ele>
        <time>2021-06-12T11:10:37Z</time>
      </trkpt>
      <trkpt lat="42.84034" lon="0.82889">
        <ele>1568.3</ele>
        <time>2021-06-12T11:10:45Z</time>
      </trkpt>
      <trkpt lat="42.84035" lon="0.8289">
        <ele>1568.6</ele>
        <time>2021-06-12T11:10:51Z</time>
      </trkpt>
      <trkpt lat="42.84027" lon="0.82897">
        <ele>1567.5</ele>
        <time>2021-06-12T11:11:04Z</time>
      </trkpt>
      <trkpt lat="42.8402" lon="0.82905">
        <ele>1566</ele>
        <time>2021-06-12T11:11:15Z</time>
      </trkpt>
      <trkpt lat="42.84015" lon="0.82909">
        <ele>1564.5</ele>
        <time>2021-06-12T11:11:49Z</time>
      </trkpt>
      <trkpt lat="42.84006" lon="0.8292">
        <ele>1561.5</ele>
        <time>2021-06-12T11:11:57Z</time>
      </trkpt>
      <trkpt lat="42.83998" lon="0.82929">
        <ele>1560.2</ele>
        <time>2021-06-12T11:12:05Z</time>
      </trkpt>
      <trkpt lat="42.83994" lon="0.82936">
        <ele>1561.3</ele>
        <time>2021-06-12T11:12:10Z</time>
      </trkpt>
      <trkpt lat="42.83989" lon="0.82942">
        <ele>1562.2</ele>
        <time>2021-06-12T11:12:42Z</time>
      </trkpt>
      <trkpt lat="42.8399" lon="0.82956">
        <ele>1562.5</ele>
        <time>2021-06-12T11:12:50Z</time>
      </trkpt>
      <trkpt lat="42.83988" lon="0.82965">
        <ele>1562.9</ele>
        <time>2021-06-12T11:12:55Z</time>
      </trkpt>
      <trkpt lat="42.83984" lon="0.82973">
        <ele>1563.1</ele>
        <time>2021-06-12T11:13:03Z</time>
      </trkpt>
      <trkpt lat="42.83982" lon="0.82985">
        <ele>1563.2</ele>
        <time>2021-06-12T11:13:11Z</time>
      </trkpt>
      <trkpt lat="42.83982" lon="0.8299">
        <ele>1563.2</ele>
        <time>2021-06-12T11:13:39Z</time>
      </trkpt>
      <trkpt lat="42.83983" lon="0.8299">
        <ele>1563.3</ele>
        <time>2021-06-12T11:23:38Z</time>
      </trkpt>
      <trkpt lat="42.83981" lon="0.82998">
        <ele>1563.2</ele>
        <time>2021-06-12T11:23:46Z</time>
      </trkpt>
      <trkpt lat="42.83976" lon="0.83004">
        <ele>1563.3</ele>
        <time>2021-06-12T11:23:56Z</time>
      </trkpt>
      <trkpt lat="42.8397" lon="0.83004">
        <ele>1562.7</ele>
        <time>2021-06-12T11:24:01Z</time>
      </trkpt>
      <trkpt lat="42.83967" lon="0.83014">
        <ele>1563.7</ele>
        <time>2021-06-12T11:24:15Z</time>
      </trkpt>
      <trkpt lat="42.83966" lon="0.83024">
        <ele>1564.9</ele>
        <time>2021-06-12T11:24:28Z</time>
      </trkpt>
      <trkpt lat="42.83961" lon="0.8303">
        <ele>1565</ele>
        <time>2021-06-12T11:24:38Z</time>
      </trkpt>
      <trkpt lat="42.83958" lon="0.83039">
        <ele>1565.6</ele>
        <time>2021-06-12T11:24:50Z</time>
      </trkpt>
      <trkpt lat="42.83954" lon="0.83049">
        <ele>1566.1</ele>
        <time>2021-06-12T11:25:26Z</time>
      </trkpt>
      <trkpt lat="42.83956" lon="0.83057">
        <ele>1567.4</ele>
        <time>2021-06-12T11:25:31Z</time>
      </trkpt>
      <trkpt lat="42.83954" lon="0.83065">
        <ele>1567.9</ele>
        <time>2021-06-12T11:25:55Z</time>
      </trkpt>
      <trkpt lat="42.83948" lon="0.83071">
        <ele>1567.3</ele>
        <time>2021-06-12T11:26:04Z</time>
      </trkpt>
      <trkpt lat="42.8395" lon="0.83075">
        <ele>1568.1</ele>
        <time>2021-06-12T11:26:24Z</time>
      </trkpt>
      <trkpt lat="42.83954" lon="0.83081">
        <ele>1569.7</ele>
        <time>2021-06-12T11:27:43Z</time>
      </trkpt>
      <trkpt lat="42.8395" lon="0.83091">
        <ele>1570</ele>
        <time>2021-06-12T11:27:54Z</time>
      </trkpt>
      <trkpt lat="42.83946" lon="0.83099">
        <ele>1570.1</ele>
        <time>2021-06-12T11:28:03Z</time>
      </trkpt>
      <trkpt lat="42.83943" lon="0.83108">
        <ele>1570.4</ele>
        <time>2021-06-12T11:28:09Z</time>
      </trkpt>
      <trkpt lat="42.83944" lon="0.83118">
        <ele>1572</ele>
        <time>2021-06-12T11:28:16Z</time>
      </trkpt>
      <trkpt lat="42.83945" lon="0.83125">
        <ele>1573.2</ele>
        <time>2021-06-12T11:28:21Z</time>
      </trkpt>
      <trkpt lat="42.8394" lon="0.83133">
        <ele>1572.6</ele>
        <time>2021-06-12T11:28:30Z</time>
      </trkpt>
      <trkpt lat="42.83939" lon="0.8314">
        <ele>1573.1</ele>
        <time>2021-06-12T11:29:08Z</time>
      </trkpt>
      <trkpt lat="42.83937" lon="0.83151">
        <ele>1573.7</ele>
        <time>2021-06-12T11:29:16Z</time>
      </trkpt>
      <trkpt lat="42.83934" lon="0.83158">
        <ele>1573.5</ele>
        <time>2021-06-12T11:29:21Z</time>
      </trkpt>
      <trkpt lat="42.83929" lon="0.83167">
        <ele>1572.7</ele>
        <time>2021-06-12T11:29:27Z</time>
      </trkpt>
      <trkpt lat="42.83926" lon="0.83181">
        <ele>1575.5</ele>
        <time>2021-06-12T11:29:33Z</time>
      </trkpt>
      <trkpt lat="42.83926" lon="0.83194">
        <ele>1579.2</ele>
        <time>2021-06-12T11:29:38Z</time>
      </trkpt>
      <trkpt lat="42.8393" lon="0.83189">
        <ele>1579.3</ele>
        <time>2021-06-12T11:30:22Z</time>
      </trkpt>
      <trkpt lat="42.83938" lon="0.83192">
        <ele>1583.2</ele>
        <time>2021-06-12T11:30:28Z</time>
      </trkpt>
      <trkpt lat="42.83938" lon="0.832">
        <ele>1585.5</ele>
        <time>2021-06-12T11:30:35Z</time>
      </trkpt>
      <trkpt lat="42.83935" lon="0.83208">
        <ele>1586.7</ele>
        <time>2021-06-12T11:30:41Z</time>
      </trkpt>
      <trkpt lat="42.83935" lon="0.83215">
        <ele>1588.7</ele>
        <time>2021-06-12T11:30:47Z</time>
      </trkpt>
      <trkpt lat="42.83932" lon="0.83221">
        <ele>1589.2</ele>
        <time>2021-06-12T11:30:52Z</time>
      </trkpt>
      <trkpt lat="42.83928" lon="0.83228">
        <ele>1589.5</ele>
        <time>2021-06-12T11:31:08Z</time>
      </trkpt>
      <trkpt lat="42.83928" lon="0.83238">
        <ele>1592.4</ele>
        <time>2021-06-12T11:31:22Z</time>
      </trkpt>
      <trkpt lat="42.83922" lon="0.83239">
        <ele>1590.2</ele>
        <time>2021-06-12T11:32:14Z</time>
      </trkpt>
      <trkpt lat="42.83922" lon="0.83248">
        <ele>1592.7</ele>
        <time>2021-06-12T11:32:20Z</time>
      </trkpt>
      <trkpt lat="42.83922" lon="0.83266">
        <ele>1596.8</ele>
        <time>2021-06-12T11:34:50Z</time>
      </trkpt>
      <trkpt lat="42.83928" lon="0.83281">
        <ele>1602.8</ele>
        <time>2021-06-12T11:35:04Z</time>
      </trkpt>
      <trkpt lat="42.83934" lon="0.83281">
        <ele>1605.3</ele>
        <time>2021-06-12T11:35:24Z</time>
      </trkpt>
      <trkpt lat="42.83941" lon="0.83285">
        <ele>1609.2</ele>
        <time>2021-06-12T11:35:35Z</time>
      </trkpt>
      <trkpt lat="42.83951" lon="0.83284">
        <ele>1612.8</ele>
        <time>2021-06-12T11:36:12Z</time>
      </trkpt>
      <trkpt lat="42.83959" lon="0.83295">
        <ele>1619</ele>
        <time>2021-06-12T11:37:28Z</time>
      </trkpt>
      <trkpt lat="42.83967" lon="0.83296">
        <ele>1622.6</ele>
        <time>2021-06-12T11:37:40Z</time>
      </trkpt>
      <trkpt lat="42.83972" lon="0.83303">
        <ele>1626.3</ele>
        <time>2021-06-12T11:38:04Z</time>
      </trkpt>
      <trkpt lat="42.83974" lon="0.83309">
        <ele>1628.5</ele>
        <time>2021-06-12T11:38:17Z</time>
      </trkpt>
      <trkpt lat="42.83977" lon="0.83319">
        <ele>1632.1</ele>
        <time>2021-06-12T11:38:44Z</time>
      </trkpt>
      <trkpt lat="42.83977" lon="0.83334">
        <ele>1635.5</ele>
        <time>2021-06-12T11:39:06Z</time>
      </trkpt>
      <trkpt lat="42.83978" lon="0.8334">
        <ele>1637.2</ele>
        <time>2021-06-12T11:39:22Z</time>
      </trkpt>
      <trkpt lat="42.83979" lon="0.83348">
        <ele>1639.3</ele>
        <time>2021-06-12T11:40:45Z</time>
      </trkpt>
      <trkpt lat="42.83985" lon="0.83351">
        <ele>1642.4</ele>
        <time>2021-06-12T11:41:06Z</time>
      </trkpt>
      <trkpt lat="42.8399" lon="0.83356">
        <ele>1645.4</ele>
        <time>2021-06-12T11:42:06Z</time>
      </trkpt>
      <trkpt lat="42.8399" lon="0.8337">
        <ele>1648.2</ele>
        <time>2021-06-12T11:42:20Z</time>
      </trkpt>
      <trkpt lat="42.83991" lon="0.8338">
        <ele>1650.6</ele>
        <time>2021-06-12T11:42:39Z</time>
      </trkpt>
      <trkpt lat="42.83991" lon="0.83388">
        <ele>1652.2</ele>
        <time>2021-06-12T11:42:46Z</time>
      </trkpt>
      <trkpt lat="42.83993" lon="0.83399">
        <ele>1655.1</ele>
        <time>2021-06-12T11:43:00Z</time>
      </trkpt>
      <trkpt lat="42.83992" lon="0.83408">
        <ele>1656.6</ele>
        <time>2021-06-12T11:43:19Z</time>
      </trkpt>
      <trkpt lat="42.83992" lon="0.83418">
        <ele>1658.6</ele>
        <time>2021-06-12T11:43:31Z</time>
      </trkpt>
      <trkpt lat="42.83989" lon="0.83427">
        <ele>1659.6</ele>
        <time>2021-06-12T11:43:40Z</time>
      </trkpt>
      <trkpt lat="42.83989" lon="0.83438">
        <ele>1662</ele>
        <time>2021-06-12T11:43:54Z</time>
      </trkpt>
      <trkpt lat="42.83988" lon="0.8345">
        <ele>1664.3</ele>
        <time>2021-06-12T11:44:07Z</time>
      </trkpt>
      <trkpt lat="42.8399" lon="0.83457">
        <ele>1666.5</ele>
        <time>2021-06-12T11:44:21Z</time>
      </trkpt>
      <trkpt lat="42.83987" lon="0.83464">
        <ele>1667</ele>
        <time>2021-06-12T11:44:43Z</time>
      </trkpt>
      <trkpt lat="42.83986" lon="0.83472">
        <ele>1668.5</ele>
        <time>2021-06-12T11:45:02Z</time>
      </trkpt>
      <trkpt lat="42.83984" lon="0.83478">
        <ele>1669.2</ele>
        <time>2021-06-12T11:45:32Z</time>
      </trkpt>
      <trkpt lat="42.83983" lon="0.83486">
        <ele>1670.6</ele>
        <time>2021-06-12T11:45:38Z</time>
      </trkpt>
      <trkpt lat="42.83982" lon="0.83493">
        <ele>1671.8</ele>
        <time>2021-06-12T11:45:55Z</time>
      </trkpt>
      <trkpt lat="42.8398" lon="0.83502">
        <ele>1673.2</ele>
        <time>2021-06-12T11:46:04Z</time>
      </trkpt>
      <trkpt lat="42.83981" lon="0.83513">
        <ele>1675.7</ele>
        <time>2021-06-12T11:46:16Z</time>
      </trkpt>
      <trkpt lat="42.83978" lon="0.83523">
        <ele>1676.7</ele>
        <time>2021-06-12T11:46:26Z</time>
      </trkpt>
      <trkpt lat="42.83977" lon="0.83533">
        <ele>1678.3</ele>
        <time>2021-06-12T11:46:35Z</time>
      </trkpt>
      <trkpt lat="42.83981" lon="0.83542">
        <ele>1681.5</ele>
        <time>2021-06-12T11:46:47Z</time>
      </trkpt>
      <trkpt lat="42.83977" lon="0.83546">
        <ele>1680.8</ele>
        <time>2021-06-12T11:46:58Z</time>
      </trkpt>
      <trkpt lat="42.83978" lon="0.83557">
        <ele>1683.4</ele>
        <time>2021-06-12T11:47:11Z</time>
      </trkpt>
      <trkpt lat="42.83977" lon="0.83566">
        <ele>1684.8</ele>
        <time>2021-06-12T11:47:29Z</time>
      </trkpt>
      <trkpt lat="42.83976" lon="0.83577">
        <ele>1686.5</ele>
        <time>2021-06-12T11:47:41Z</time>
      </trkpt>
      <trkpt lat="42.83975" lon="0.83585">
        <ele>1687.7</ele>
        <time>2021-06-12T11:47:55Z</time>
      </trkpt>
      <trkpt lat="42.83969" lon="0.83592">
        <ele>1686.7</ele>
        <time>2021-06-12T11:48:06Z</time>
      </trkpt>
      <trkpt lat="42.83965" lon="0.836">
        <ele>1686.8</ele>
        <time>2021-06-12T11:48:23Z</time>
      </trkpt>
      <trkpt lat="42.83963" lon="0.83606">
        <ele>1687.2</ele>
        <time>2021-06-12T11:48:30Z</time>
      </trkpt>
      <trkpt lat="42.8396" lon="0.83614">
        <ele>1687.7</ele>
        <time>2021-06-12T11:48:45Z</time>
      </trkpt>
      <trkpt lat="42.83953" lon="0.83621">
        <ele>1686.6</ele>
        <time>2021-06-12T11:49:01Z</time>
      </trkpt>
      <trkpt lat="42.83948" lon="0.83628">
        <ele>1686.2</ele>
        <time>2021-06-12T11:49:09Z</time>
      </trkpt>
      <trkpt lat="42.83947" lon="0.83637">
        <ele>1687.7</ele>
        <time>2021-06-12T11:49:19Z</time>
      </trkpt>
      <trkpt lat="42.83948" lon="0.83646">
        <ele>1689.9</ele>
        <time>2021-06-12T11:49:26Z</time>
      </trkpt>
      <trkpt lat="42.83949" lon="0.83656">
        <ele>1692.3</ele>
        <time>2021-06-12T11:49:40Z</time>
      </trkpt>
      <trkpt lat="42.83948" lon="0.83663">
        <ele>1693.4</ele>
        <time>2021-06-12T11:49:51Z</time>
      </trkpt>
      <trkpt lat="42.83942" lon="0.83667">
        <ele>1692.3</ele>
        <time>2021-06-12T11:50:08Z</time>
      </trkpt>
      <trkpt lat="42.83938" lon="0.83675">
        <ele>1693.7</ele>
        <time>2021-06-12T11:50:20Z</time>
      </trkpt>
      <trkpt lat="42.83932" lon="0.83681">
        <ele>1693.9</ele>
        <time>2021-06-12T11:50:40Z</time>
      </trkpt>
      <trkpt lat="42.83927" lon="0.83685">
        <ele>1693.6</ele>
        <time>2021-06-12T11:50:46Z</time>
      </trkpt>
      <trkpt lat="42.83925" lon="0.8369">
        <ele>1694.7</ele>
        <time>2021-06-12T11:51:38Z</time>
      </trkpt>
      <trkpt lat="42.83921" lon="0.83697">
        <ele>1695.9</ele>
        <time>2021-06-12T11:51:44Z</time>
      </trkpt>
      <trkpt lat="42.83916" lon="0.83706">
        <ele>1697.8</ele>
        <time>2021-06-12T11:51:54Z</time>
      </trkpt>
      <trkpt lat="42.83911" lon="0.83715">
        <ele>1701.4</ele>
        <time>2021-06-12T11:52:12Z</time>
      </trkpt>
      <trkpt lat="42.83905" lon="0.83721">
        <ele>1704</ele>
        <time>2021-06-12T11:52:31Z</time>
      </trkpt>
      <trkpt lat="42.83897" lon="0.83725">
        <ele>1706</ele>
        <time>2021-06-12T11:52:47Z</time>
      </trkpt>
      <trkpt lat="42.83889" lon="0.83726">
        <ele>1706.9</ele>
        <time>2021-06-12T11:53:08Z</time>
      </trkpt>
      <trkpt lat="42.83884" lon="0.83726">
        <ele>1707.3</ele>
        <time>2021-06-12T11:53:17Z</time>
      </trkpt>
      <trkpt lat="42.83877" lon="0.83729">
        <ele>1708.8</ele>
        <time>2021-06-12T11:53:31Z</time>
      </trkpt>
      <trkpt lat="42.83872" lon="0.83733">
        <ele>1710.3</ele>
        <time>2021-06-12T11:53:39Z</time>
      </trkpt>
      <trkpt lat="42.83866" lon="0.83738">
        <ele>1712.1</ele>
        <time>2021-06-12T11:53:55Z</time>
      </trkpt>
      <trkpt lat="42.83859" lon="0.83742">
        <ele>1713.6</ele>
        <time>2021-06-12T11:54:09Z</time>
      </trkpt>
      <trkpt lat="42.83852" lon="0.83745">
        <ele>1714.8</ele>
        <time>2021-06-12T11:54:22Z</time>
      </trkpt>
      <trkpt lat="42.83847" lon="0.83748">
        <ele>1715.8</ele>
        <time>2021-06-12T11:54:54Z</time>
      </trkpt>
      <trkpt lat="42.83841" lon="0.83754">
        <ele>1718.5</ele>
        <time>2021-06-12T11:55:03Z</time>
      </trkpt>
      <trkpt lat="42.83837" lon="0.8375">
        <ele>1716.8</ele>
        <time>2021-06-12T11:55:20Z</time>
      </trkpt>
      <trkpt lat="42.83831" lon="0.83745">
        <ele>1716.4</ele>
        <time>2021-06-12T11:55:29Z</time>
      </trkpt>
      <trkpt lat="42.83825" lon="0.83746">
        <ele>1717.9</ele>
        <time>2021-06-12T11:55:57Z</time>
      </trkpt>
      <trkpt lat="42.8382" lon="0.83755">
        <ele>1721.7</ele>
        <time>2021-06-12T11:56:08Z</time>
      </trkpt>
      <trkpt lat="42.83816" lon="0.83764">
        <ele>1725.7</ele>
        <time>2021-06-12T11:56:19Z</time>
      </trkpt>
      <trkpt lat="42.83813" lon="0.83771">
        <ele>1728.6</ele>
        <time>2021-06-12T11:56:37Z</time>
      </trkpt>
      <trkpt lat="42.8381" lon="0.8378">
        <ele>1732</ele>
        <time>2021-06-12T11:57:01Z</time>
      </trkpt>
      <trkpt lat="42.83804" lon="0.83788">
        <ele>1734.9</ele>
        <time>2021-06-12T11:57:13Z</time>
      </trkpt>
      <trkpt lat="42.838" lon="0.8379">
        <ele>1735.5</ele>
        <time>2021-06-12T11:57:25Z</time>
      </trkpt>
      <trkpt lat="42.83792" lon="0.83793">
        <ele>1736.3</ele>
        <time>2021-06-12T11:57:38Z</time>
      </trkpt>
      <trkpt lat="42.83788" lon="0.83802">
        <ele>1738.4</ele>
        <time>2021-06-12T11:57:49Z</time>
      </trkpt>
      <trkpt lat="42.83782" lon="0.83805">
        <ele>1738.7</ele>
        <time>2021-06-12T11:58:25Z</time>
      </trkpt>
      <trkpt lat="42.83773" lon="0.8381">
        <ele>1738.9</ele>
        <time>2021-06-12T11:58:52Z</time>
      </trkpt>
      <trkpt lat="42.83768" lon="0.83819">
        <ele>1739.7</ele>
        <time>2021-06-12T11:59:38Z</time>
      </trkpt>
      <trkpt lat="42.83765" lon="0.8383">
        <ele>1740.7</ele>
        <time>2021-06-12T12:00:23Z</time>
      </trkpt>
      <trkpt lat="42.83756" lon="0.83844">
        <ele>1742.1</ele>
        <time>2021-06-12T12:01:10Z</time>
      </trkpt>
      <trkpt lat="42.83754" lon="0.83855">
        <ele>1744.6</ele>
        <time>2021-06-12T12:01:25Z</time>
      </trkpt>
      <trkpt lat="42.83749" lon="0.83864">
        <ele>1746.4</ele>
        <time>2021-06-12T12:01:38Z</time>
      </trkpt>
      <trkpt lat="42.8375" lon="0.83875">
        <ele>1749</ele>
        <time>2021-06-12T12:01:52Z</time>
      </trkpt>
      <trkpt lat="42.83747" lon="0.83884">
        <ele>1751.8</ele>
        <time>2021-06-12T12:02:02Z</time>
      </trkpt>
      <trkpt lat="42.83744" lon="0.83892">
        <ele>1754.1</ele>
        <time>2021-06-12T12:02:12Z</time>
      </trkpt>
      <trkpt lat="42.83739" lon="0.839">
        <ele>1756.3</ele>
        <time>2021-06-12T12:02:33Z</time>
      </trkpt>
      <trkpt lat="42.83737" lon="0.83909">
        <ele>1758.1</ele>
        <time>2021-06-12T12:02:44Z</time>
      </trkpt>
      <trkpt lat="42.83733" lon="0.83919">
        <ele>1759.9</ele>
        <time>2021-06-12T12:03:05Z</time>
      </trkpt>
      <trkpt lat="42.8373" lon="0.83929">
        <ele>1761.7</ele>
        <time>2021-06-12T12:03:13Z</time>
      </trkpt>
      <trkpt lat="42.83731" lon="0.83939">
        <ele>1763.8</ele>
        <time>2021-06-12T12:03:23Z</time>
      </trkpt>
      <trkpt lat="42.83728" lon="0.83946">
        <ele>1764.8</ele>
        <time>2021-06-12T12:03:47Z</time>
      </trkpt>
      <trkpt lat="42.83723" lon="0.83952">
        <ele>1765.3</ele>
        <time>2021-06-12T12:03:55Z</time>
      </trkpt>
      <trkpt lat="42.83716" lon="0.83955">
        <ele>1764.9</ele>
        <time>2021-06-12T12:04:04Z</time>
      </trkpt>
      <trkpt lat="42.83714" lon="0.83966">
        <ele>1766.3</ele>
        <time>2021-06-12T12:04:26Z</time>
      </trkpt>
      <trkpt lat="42.83709" lon="0.83969">
        <ele>1765.8</ele>
        <time>2021-06-12T12:05:00Z</time>
      </trkpt>
      <trkpt lat="42.83706" lon="0.8397">
        <ele>1765.4</ele>
        <time>2021-06-12T12:10:45Z</time>
      </trkpt>
      <trkpt lat="42.83708" lon="0.8397">
        <ele>1765.8</ele>
        <time>2021-06-12T12:20:55Z</time>
      </trkpt>
      <trkpt lat="42.83709" lon="0.83974">
        <ele>1766.5</ele>
        <time>2021-06-12T12:21:36Z</time>
      </trkpt>
      <trkpt lat="42.83703" lon="0.8398">
        <ele>1766.1</ele>
        <time>2021-06-12T12:22:03Z</time>
      </trkpt>
      <trkpt lat="42.83699" lon="0.83987">
        <ele>1766.1</ele>
        <time>2021-06-12T12:22:28Z</time>
      </trkpt>
      <trkpt lat="42.83695" lon="0.83992">
        <ele>1765.7</ele>
        <time>2021-06-12T12:22:37Z</time>
      </trkpt>
      <trkpt lat="42.83688" lon="0.83994">
        <ele>1764.1</ele>
        <time>2021-06-12T12:22:56Z</time>
      </trkpt>
      <trkpt lat="42.83681" lon="0.83998">
        <ele>1762.7</ele>
        <time>2021-06-12T12:23:49Z</time>
      </trkpt>
      <trkpt lat="42.83675" lon="0.83998">
        <ele>1761.1</ele>
        <time>2021-06-12T12:23:58Z</time>
      </trkpt>
      <trkpt lat="42.83667" lon="0.83996">
        <ele>1759</ele>
        <time>2021-06-12T12:24:10Z</time>
      </trkpt>
      <trkpt lat="42.8366" lon="0.83998">
        <ele>1761</ele>
        <time>2021-06-12T12:24:20Z</time>
      </trkpt>
      <trkpt lat="42.83655" lon="0.84004">
        <ele>1762.9</ele>
        <time>2021-06-12T12:24:26Z</time>
      </trkpt>
      <trkpt lat="42.83648" lon="0.84014">
        <ele>1765.6</ele>
        <time>2021-06-12T12:24:38Z</time>
      </trkpt>
      <trkpt lat="42.83648" lon="0.84022">
        <ele>1766.2</ele>
        <time>2021-06-12T12:24:45Z</time>
      </trkpt>
      <trkpt lat="42.83645" lon="0.84032">
        <ele>1767.3</ele>
        <time>2021-06-12T12:24:52Z</time>
      </trkpt>
      <trkpt lat="42.83642" lon="0.84038">
        <ele>1767.9</ele>
        <time>2021-06-12T12:25:10Z</time>
      </trkpt>
      <trkpt lat="42.83638" lon="0.84044">
        <ele>1768.5</ele>
        <time>2021-06-12T12:25:18Z</time>
      </trkpt>
      <trkpt lat="42.83634" lon="0.84054">
        <ele>1768.7</ele>
        <time>2021-06-12T12:25:25Z</time>
      </trkpt>
      <trkpt lat="42.8363" lon="0.84063">
        <ele>1768.6</ele>
        <time>2021-06-12T12:25:33Z</time>
      </trkpt>
      <trkpt lat="42.83626" lon="0.84072">
        <ele>1768.1</ele>
        <time>2021-06-12T12:25:59Z</time>
      </trkpt>
      <trkpt lat="42.83623" lon="0.8408">
        <ele>1767.4</ele>
        <time>2021-06-12T12:26:05Z</time>
      </trkpt>
      <trkpt lat="42.83621" lon="0.8409">
        <ele>1767.8</ele>
        <time>2021-06-12T12:26:13Z</time>
      </trkpt>
      <trkpt lat="42.83618" lon="0.84103">
        <ele>1768.9</ele>
        <time>2021-06-12T12:26:24Z</time>
      </trkpt>
      <trkpt lat="42.83613" lon="0.84109">
        <ele>1768.8</ele>
        <time>2021-06-12T12:26:32Z</time>
      </trkpt>
      <trkpt lat="42.83611" lon="0.84118">
        <ele>1769.4</ele>
        <time>2021-06-12T12:26:40Z</time>
      </trkpt>
      <trkpt lat="42.83614" lon="0.84118">
        <ele>1770</ele>
        <time>2021-06-12T12:40:45Z</time>
      </trkpt>
      <trkpt lat="42.83611" lon="0.84117">
        <ele>1769.3</ele>
        <time>2021-06-12T12:59:14Z</time>
      </trkpt>
      <trkpt lat="42.83616" lon="0.84119">
        <ele>1770.5</ele>
        <time>2021-06-12T12:59:43Z</time>
      </trkpt>
      <trkpt lat="42.83618" lon="0.84113">
        <ele>1770.1</ele>
        <time>2021-06-12T13:00:59Z</time>
      </trkpt>
      <trkpt lat="42.83615" lon="0.84116">
        <ele>1769.9</ele>
        <time>2021-06-12T13:05:06Z</time>
      </trkpt>
      <trkpt lat="42.8361" lon="0.84121">
        <ele>1769.5</ele>
        <time>2021-06-12T13:05:22Z</time>
      </trkpt>
      <trkpt lat="42.83604" lon="0.84125">
        <ele>1768.7</ele>
        <time>2021-06-12T13:05:28Z</time>
      </trkpt>
      <trkpt lat="42.83598" lon="0.84133">
        <ele>1768.2</ele>
        <time>2021-06-12T13:05:36Z</time>
      </trkpt>
      <trkpt lat="42.83595" lon="0.84141">
        <ele>1768.2</ele>
        <time>2021-06-12T13:05:44Z</time>
      </trkpt>
      <trkpt lat="42.83592" lon="0.8415">
        <ele>1768.1</ele>
        <time>2021-06-12T13:05:51Z</time>
      </trkpt>
      <trkpt lat="42.83587" lon="0.84156">
        <ele>1767.3</ele>
        <time>2021-06-12T13:05:57Z</time>
      </trkpt>
      <trkpt lat="42.83582" lon="0.84162">
        <ele>1767.1</ele>
        <time>2021-06-12T13:06:02Z</time>
      </trkpt>
      <trkpt lat="42.83578" lon="0.84171">
        <ele>1769.2</ele>
        <time>2021-06-12T13:06:10Z</time>
      </trkpt>
      <trkpt lat="42.83573" lon="0.84177">
        <ele>1771.5</ele>
        <time>2021-06-12T13:06:18Z</time>
      </trkpt>
      <trkpt lat="42.83569" lon="0.84185">
        <ele>1773.9</ele>
        <time>2021-06-12T13:06:24Z</time>
      </trkpt>
      <trkpt lat="42.83565" lon="0.84191">
        <ele>1775.9</ele>
        <time>2021-06-12T13:06:29Z</time>
      </trkpt>
      <trkpt lat="42.83561" lon="0.84201">
        <ele>1778.5</ele>
        <time>2021-06-12T13:06:43Z</time>
      </trkpt>
      <trkpt lat="42.8356" lon="0.84209">
        <ele>1780.1</ele>
        <time>2021-06-12T13:06:49Z</time>
      </trkpt>
      <trkpt lat="42.83559" lon="0.84216">
        <ele>1781.4</ele>
        <time>2021-06-12T13:06:55Z</time>
      </trkpt>
      <trkpt lat="42.83555" lon="0.84225">
        <ele>1783.8</ele>
        <time>2021-06-12T13:07:04Z</time>
      </trkpt>
      <trkpt lat="42.83552" lon="0.84234">
        <ele>1785.9</ele>
        <time>2021-06-12T13:07:10Z</time>
      </trkpt>
      <trkpt lat="42.8355" lon="0.84243">
        <ele>1787.7</ele>
        <time>2021-06-12T13:07:20Z</time>
      </trkpt>
      <trkpt lat="42.83549" lon="0.8426">
        <ele>1791.2</ele>
        <time>2021-06-12T13:07:34Z</time>
      </trkpt>
      <trkpt lat="42.83546" lon="0.84267">
        <ele>1793.4</ele>
        <time>2021-06-12T13:07:40Z</time>
      </trkpt>
      <trkpt lat="42.83541" lon="0.84276">
        <ele>1796.2</ele>
        <time>2021-06-12T13:07:50Z</time>
      </trkpt>
      <trkpt lat="42.83538" lon="0.84288">
        <ele>1799.3</ele>
        <time>2021-06-12T13:08:00Z</time>
      </trkpt>
      <trkpt lat="42.83538" lon="0.84298">
        <ele>1801.4</ele>
        <time>2021-06-12T13:08:09Z</time>
      </trkpt>
      <trkpt lat="42.83539" lon="0.84308">
        <ele>1803.4</ele>
        <time>2021-06-12T13:08:16Z</time>
      </trkpt>
      <trkpt lat="42.83541" lon="0.84313">
        <ele>1804.2</ele>
        <time>2021-06-12T13:08:31Z</time>
      </trkpt>
      <trkpt lat="42.8354" lon="0.84323">
        <ele>1806.5</ele>
        <time>2021-06-12T13:08:40Z</time>
      </trkpt>
      <trkpt lat="42.8354" lon="0.84332">
        <ele>1808.4</ele>
        <time>2021-06-12T13:09:03Z</time>
      </trkpt>
      <trkpt lat="42.83539" lon="0.84342">
        <ele>1809.8</ele>
        <time>2021-06-12T13:09:12Z</time>
      </trkpt>
      <trkpt lat="42.83539" lon="0.84354">
        <ele>1811.1</ele>
        <time>2021-06-12T13:09:21Z</time>
      </trkpt>
      <trkpt lat="42.83541" lon="0.84363">
        <ele>1811.9</ele>
        <time>2021-06-12T13:09:30Z</time>
      </trkpt>
      <trkpt lat="42.83543" lon="0.84371">
        <ele>1812.7</ele>
        <time>2021-06-12T13:09:38Z</time>
      </trkpt>
      <trkpt lat="42.83545" lon="0.84383">
        <ele>1814</ele>
        <time>2021-06-12T13:09:49Z</time>
      </trkpt>
      <trkpt lat="42.83547" lon="0.84391">
        <ele>1814.8</ele>
        <time>2021-06-12T13:09:57Z</time>
      </trkpt>
      <trkpt lat="42.8355" lon="0.844">
        <ele>1815.8</ele>
        <time>2021-06-12T13:10:16Z</time>
      </trkpt>
      <trkpt lat="42.83553" lon="0.84407">
        <ele>1816.5</ele>
        <time>2021-06-12T13:10:25Z</time>
      </trkpt>
      <trkpt lat="42.83555" lon="0.84414">
        <ele>1817.3</ele>
        <time>2021-06-12T13:10:32Z</time>
      </trkpt>
      <trkpt lat="42.83556" lon="0.84425">
        <ele>1819.3</ele>
        <time>2021-06-12T13:10:46Z</time>
      </trkpt>
      <trkpt lat="42.83561" lon="0.84428">
        <ele>1819.7</ele>
        <time>2021-06-12T13:11:13Z</time>
      </trkpt>
      <trkpt lat="42.83566" lon="0.84433">
        <ele>1820.6</ele>
        <time>2021-06-12T13:11:22Z</time>
      </trkpt>
      <trkpt lat="42.83569" lon="0.8444">
        <ele>1821.9</ele>
        <time>2021-06-12T13:11:37Z</time>
      </trkpt>
      <trkpt lat="42.83565" lon="0.84451">
        <ele>1824.1</ele>
        <time>2021-06-12T13:11:47Z</time>
      </trkpt>
      <trkpt lat="42.83567" lon="0.84459">
        <ele>1825.6</ele>
        <time>2021-06-12T13:11:57Z</time>
      </trkpt>
      <trkpt lat="42.83566" lon="0.84469">
        <ele>1827.6</ele>
        <time>2021-06-12T13:12:12Z</time>
      </trkpt>
      <trkpt lat="42.83569" lon="0.84478">
        <ele>1829.2</ele>
        <time>2021-06-12T13:12:26Z</time>
      </trkpt>
      <trkpt lat="42.83569" lon="0.8449">
        <ele>1831.6</ele>
        <time>2021-06-12T13:12:50Z</time>
      </trkpt>
      <trkpt lat="42.83569" lon="0.84497">
        <ele>1832.9</ele>
        <time>2021-06-12T13:12:56Z</time>
      </trkpt>
      <trkpt lat="42.8357" lon="0.84506">
        <ele>1835.1</ele>
        <time>2021-06-12T13:13:04Z</time>
      </trkpt>
      <trkpt lat="42.83572" lon="0.84508">
        <ele>1835.6</ele>
        <time>2021-06-12T13:14:45Z</time>
      </trkpt>
      <trkpt lat="42.83566" lon="0.84514">
        <ele>1837.3</ele>
        <time>2021-06-12T13:14:59Z</time>
      </trkpt>
      <trkpt lat="42.83561" lon="0.84521">
        <ele>1839.3</ele>
        <time>2021-06-12T13:15:17Z</time>
      </trkpt>
      <trkpt lat="42.83562" lon="0.84532">
        <ele>1842.1</ele>
        <time>2021-06-12T13:15:40Z</time>
      </trkpt>
      <trkpt lat="42.83567" lon="0.84539">
        <ele>1843.9</ele>
        <time>2021-06-12T13:16:01Z</time>
      </trkpt>
      <trkpt lat="42.83566" lon="0.84543">
        <ele>1845</ele>
        <time>2021-06-12T13:16:56Z</time>
      </trkpt>
      <trkpt lat="42.8356" lon="0.84548">
        <ele>1846.3</ele>
        <time>2021-06-12T13:17:19Z</time>
      </trkpt>
      <trkpt lat="42.83555" lon="0.84555">
        <ele>1848.1</ele>
        <time>2021-06-12T13:17:38Z</time>
      </trkpt>
      <trkpt lat="42.83549" lon="0.84564">
        <ele>1850.3</ele>
        <time>2021-06-12T13:17:53Z</time>
      </trkpt>
      <trkpt lat="42.83543" lon="0.84577">
        <ele>1853.5</ele>
        <time>2021-06-12T13:21:41Z</time>
      </trkpt>
      <trkpt lat="42.83543" lon="0.84585">
        <ele>1855.6</ele>
        <time>2021-06-12T13:21:52Z</time>
      </trkpt>
      <trkpt lat="42.83549" lon="0.84589">
        <ele>1857.3</ele>
        <time>2021-06-12T13:22:08Z</time>
      </trkpt>
      <trkpt lat="42.83556" lon="0.84592">
        <ele>1858.6</ele>
        <time>2021-06-12T13:22:29Z</time>
      </trkpt>
      <trkpt lat="42.8356" lon="0.84598">
        <ele>1861</ele>
        <time>2021-06-12T13:23:02Z</time>
      </trkpt>
      <trkpt lat="42.8356" lon="0.84607">
        <ele>1864.4</ele>
        <time>2021-06-12T13:23:35Z</time>
      </trkpt>
      <trkpt lat="42.83555" lon="0.84615">
        <ele>1867.2</ele>
        <time>2021-06-12T13:23:49Z</time>
      </trkpt>
      <trkpt lat="42.83553" lon="0.84623">
        <ele>1870.1</ele>
        <time>2021-06-12T13:24:12Z</time>
      </trkpt>
      <trkpt lat="42.83559" lon="0.84625">
        <ele>1871.2</ele>
        <time>2021-06-12T13:24:47Z</time>
      </trkpt>
      <trkpt lat="42.83564" lon="0.8463">
        <ele>1873.4</ele>
        <time>2021-06-12T13:25:01Z</time>
      </trkpt>
      <trkpt lat="42.83564" lon="0.84636">
        <ele>1875.7</ele>
        <time>2021-06-12T13:25:58Z</time>
      </trkpt>
      <trkpt lat="42.83561" lon="0.84642">
        <ele>1877.8</ele>
        <time>2021-06-12T13:26:49Z</time>
      </trkpt>
      <trkpt lat="42.83559" lon="0.84651">
        <ele>1881</ele>
        <time>2021-06-12T13:27:07Z</time>
      </trkpt>
      <trkpt lat="42.83556" lon="0.8466">
        <ele>1884.2</ele>
        <time>2021-06-12T13:27:25Z</time>
      </trkpt>
      <trkpt lat="42.83551" lon="0.84666">
        <ele>1886</ele>
        <time>2021-06-12T13:27:35Z</time>
      </trkpt>
      <trkpt lat="42.83545" lon="0.84673">
        <ele>1888.2</ele>
        <time>2021-06-12T13:27:49Z</time>
      </trkpt>
      <trkpt lat="42.83542" lon="0.8468">
        <ele>1890.7</ele>
        <time>2021-06-12T13:28:17Z</time>
      </trkpt>
      <trkpt lat="42.83539" lon="0.84688">
        <ele>1893.7</ele>
        <time>2021-06-12T13:28:34Z</time>
      </trkpt>
      <trkpt lat="42.83535" lon="0.84697">
        <ele>1897</ele>
        <time>2021-06-12T13:29:39Z</time>
      </trkpt>
      <trkpt lat="42.83532" lon="0.84706">
        <ele>1900.4</ele>
        <time>2021-06-12T13:30:06Z</time>
      </trkpt>
      <trkpt lat="42.83529" lon="0.84713">
        <ele>1903.1</ele>
        <time>2021-06-12T13:30:18Z</time>
      </trkpt>
      <trkpt lat="42.83527" lon="0.84722">
        <ele>1906.7</ele>
        <time>2021-06-12T13:30:31Z</time>
      </trkpt>
      <trkpt lat="42.83525" lon="0.84731">
        <ele>1910.3</ele>
        <time>2021-06-12T13:30:54Z</time>
      </trkpt>
      <trkpt lat="42.83524" lon="0.8474">
        <ele>1913.9</ele>
        <time>2021-06-12T13:31:07Z</time>
      </trkpt>
      <trkpt lat="42.83522" lon="0.84751">
        <ele>1918.1</ele>
        <time>2021-06-12T13:31:22Z</time>
      </trkpt>
      <trkpt lat="42.83519" lon="0.84762">
        <ele>1919.7</ele>
        <time>2021-06-12T13:31:38Z</time>
      </trkpt>
      <trkpt lat="42.83516" lon="0.84769">
        <ele>1920.6</ele>
        <time>2021-06-12T13:32:22Z</time>
      </trkpt>
      <trkpt lat="42.83514" lon="0.84778">
        <ele>1921.8</ele>
        <time>2021-06-12T13:32:34Z</time>
      </trkpt>
      <trkpt lat="42.83512" lon="0.84789">
        <ele>1923.1</ele>
        <time>2021-06-12T13:32:46Z</time>
      </trkpt>
      <trkpt lat="42.83511" lon="0.84798">
        <ele>1924.2</ele>
        <time>2021-06-12T13:32:56Z</time>
      </trkpt>
      <trkpt lat="42.8351" lon="0.84807">
        <ele>1925.2</ele>
        <time>2021-06-12T13:33:25Z</time>
      </trkpt>
      <trkpt lat="42.83507" lon="0.84819">
        <ele>1926.4</ele>
        <time>2021-06-12T13:33:36Z</time>
      </trkpt>
      <trkpt lat="42.83504" lon="0.84824">
        <ele>1926.5</ele>
        <time>2021-06-12T13:33:43Z</time>
      </trkpt>
      <trkpt lat="42.83499" lon="0.84835">
        <ele>1927.2</ele>
        <time>2021-06-12T13:33:55Z</time>
      </trkpt>
      <trkpt lat="42.83495" lon="0.84843">
        <ele>1927.9</ele>
        <time>2021-06-12T13:34:04Z</time>
      </trkpt>
      <trkpt lat="42.83491" lon="0.8485">
        <ele>1928.5</ele>
        <time>2021-06-12T13:34:11Z</time>
      </trkpt>
      <trkpt lat="42.83486" lon="0.84857">
        <ele>1929.2</ele>
        <time>2021-06-12T13:34:19Z</time>
      </trkpt>
      <trkpt lat="42.83481" lon="0.84866">
        <ele>1930</ele>
        <time>2021-06-12T13:34:28Z</time>
      </trkpt>
      <trkpt lat="42.83478" lon="0.84875">
        <ele>1930.8</ele>
        <time>2021-06-12T13:34:37Z</time>
      </trkpt>
      <trkpt lat="42.83474" lon="0.84882">
        <ele>1931.4</ele>
        <time>2021-06-12T13:34:57Z</time>
      </trkpt>
      <trkpt lat="42.83473" lon="0.84892">
        <ele>1932.2</ele>
        <time>2021-06-12T13:35:05Z</time>
      </trkpt>
      <trkpt lat="42.8347" lon="0.84902">
        <ele>1933</ele>
        <time>2021-06-12T13:35:16Z</time>
      </trkpt>
      <trkpt lat="42.83468" lon="0.84911">
        <ele>1933.7</ele>
        <time>2021-06-12T13:35:23Z</time>
      </trkpt>
      <trkpt lat="42.83464" lon="0.84919">
        <ele>1934.5</ele>
        <time>2021-06-12T13:35:30Z</time>
      </trkpt>
      <trkpt lat="42.83462" lon="0.84927">
        <ele>1935.4</ele>
        <time>2021-06-12T13:35:36Z</time>
      </trkpt>
      <trkpt lat="42.83459" lon="0.84935">
        <ele>1936.3</ele>
        <time>2021-06-12T13:35:43Z</time>
      </trkpt>
      <trkpt lat="42.83454" lon="0.84943">
        <ele>1937.1</ele>
        <time>2021-06-12T13:35:55Z</time>
      </trkpt>
      <trkpt lat="42.83448" lon="0.84949">
        <ele>1937.6</ele>
        <time>2021-06-12T13:36:04Z</time>
      </trkpt>
      <trkpt lat="42.83444" lon="0.84955">
        <ele>1938.1</ele>
        <time>2021-06-12T13:36:11Z</time>
      </trkpt>
      <trkpt lat="42.83444" lon="0.84964">
        <ele>1938.8</ele>
        <time>2021-06-12T13:36:18Z</time>
      </trkpt>
      <trkpt lat="42.83445" lon="0.84973">
        <ele>1939.5</ele>
        <time>2021-06-12T13:36:32Z</time>
      </trkpt>
      <trkpt lat="42.83441" lon="0.84979">
        <ele>1939.9</ele>
        <time>2021-06-12T13:36:45Z</time>
      </trkpt>
      <trkpt lat="42.83438" lon="0.84986">
        <ele>1940.3</ele>
        <time>2021-06-12T13:38:15Z</time>
      </trkpt>
      <trkpt lat="42.83433" lon="0.84995">
        <ele>1940.6</ele>
        <time>2021-06-12T13:38:31Z</time>
      </trkpt>
      <trkpt lat="42.83429" lon="0.85001">
        <ele>1940.9</ele>
        <time>2021-06-12T13:38:38Z</time>
      </trkpt>
      <trkpt lat="42.83427" lon="0.8501">
        <ele>1942.7</ele>
        <time>2021-06-12T13:38:53Z</time>
      </trkpt>
      <trkpt lat="42.8342" lon="0.85017">
        <ele>1943.8</ele>
        <time>2021-06-12T13:39:03Z</time>
      </trkpt>
      <trkpt lat="42.83417" lon="0.85022">
        <ele>1944.8</ele>
        <time>2021-06-12T13:39:08Z</time>
      </trkpt>
      <trkpt lat="42.8341" lon="0.85034">
        <ele>1948.8</ele>
        <time>2021-06-12T13:39:20Z</time>
      </trkpt>
      <trkpt lat="42.83406" lon="0.85038">
        <ele>1950.6</ele>
        <time>2021-06-12T13:41:53Z</time>
      </trkpt>
      <trkpt lat="42.83406" lon="0.85046">
        <ele>1952.4</ele>
        <time>2021-06-12T13:42:00Z</time>
      </trkpt>
      <trkpt lat="42.83407" lon="0.85056">
        <ele>1954.5</ele>
        <time>2021-06-12T13:42:06Z</time>
      </trkpt>
      <trkpt lat="42.83412" lon="0.85063">
        <ele>1954.8</ele>
        <time>2021-06-12T13:42:20Z</time>
      </trkpt>
      <trkpt lat="42.83415" lon="0.85072">
        <ele>1956</ele>
        <time>2021-06-12T13:42:28Z</time>
      </trkpt>
      <trkpt lat="42.8342" lon="0.85076">
        <ele>1956.3</ele>
        <time>2021-06-12T13:42:34Z</time>
      </trkpt>
      <trkpt lat="42.83425" lon="0.85081">
        <ele>1957.2</ele>
        <time>2021-06-12T13:42:41Z</time>
      </trkpt>
      <trkpt lat="42.8343" lon="0.85088">
        <ele>1958.6</ele>
        <time>2021-06-12T13:42:53Z</time>
      </trkpt>
      <trkpt lat="42.83438" lon="0.85107">
        <ele>1962.9</ele>
        <time>2021-06-12T13:43:17Z</time>
      </trkpt>
      <trkpt lat="42.83441" lon="0.85113">
        <ele>1964.3</ele>
        <time>2021-06-12T13:43:34Z</time>
      </trkpt>
      <trkpt lat="42.83446" lon="0.85123">
        <ele>1966.7</ele>
        <time>2021-06-12T13:43:48Z</time>
      </trkpt>
      <trkpt lat="42.83448" lon="0.85125">
        <ele>1967.2</ele>
        <time>2021-06-12T13:43:56Z</time>
      </trkpt>
      <trkpt lat="42.8345" lon="0.85129">
        <ele>1968.2</ele>
        <time>2021-06-12T13:44:05Z</time>
      </trkpt>
      <trkpt lat="42.83458" lon="0.85129">
        <ele>1968.3</ele>
        <time>2021-06-12T13:44:14Z</time>
      </trkpt>
      <trkpt lat="42.83464" lon="0.8513">
        <ele>1968.6</ele>
        <time>2021-06-12T13:44:25Z</time>
      </trkpt>
      <trkpt lat="42.8347" lon="0.85135">
        <ele>1970</ele>
        <time>2021-06-12T13:44:39Z</time>
      </trkpt>
      <trkpt lat="42.83477" lon="0.85141">
        <ele>1971.8</ele>
        <time>2021-06-12T13:45:11Z</time>
      </trkpt>
      <trkpt lat="42.83483" lon="0.85147">
        <ele>1973.6</ele>
        <time>2021-06-12T13:45:38Z</time>
      </trkpt>
      <trkpt lat="42.83488" lon="0.85155">
        <ele>1976.1</ele>
        <time>2021-06-12T13:45:47Z</time>
      </trkpt>
      <trkpt lat="42.8349" lon="0.85164">
        <ele>1978.7</ele>
        <time>2021-06-12T13:45:55Z</time>
      </trkpt>
      <trkpt lat="42.83493" lon="0.8517">
        <ele>1980.5</ele>
        <time>2021-06-12T13:46:05Z</time>
      </trkpt>
      <trkpt lat="42.83495" lon="0.85172">
        <ele>1981.1</ele>
        <time>2021-06-12T13:46:57Z</time>
      </trkpt>
      <trkpt lat="42.83497" lon="0.85181">
        <ele>1983.5</ele>
        <time>2021-06-12T13:47:13Z</time>
      </trkpt>
      <trkpt lat="42.835" lon="0.85193">
        <ele>1986.6</ele>
        <time>2021-06-12T13:47:26Z</time>
      </trkpt>
      <trkpt lat="42.83499" lon="0.85202">
        <ele>1988.9</ele>
        <time>2021-06-12T13:47:33Z</time>
      </trkpt>
      <trkpt lat="42.835" lon="0.8521">
        <ele>1990.9</ele>
        <time>2021-06-12T13:47:47Z</time>
      </trkpt>
      <trkpt lat="42.83501" lon="0.85219">
        <ele>1993.6</ele>
        <time>2021-06-12T13:48:03Z</time>
      </trkpt>
      <trkpt lat="42.83502" lon="0.85226">
        <ele>1995.8</ele>
        <time>2021-06-12T13:48:20Z</time>
      </trkpt>
      <trkpt lat="42.83502" lon="0.8524">
        <ele>1999.4</ele>
        <time>2021-06-12T13:48:47Z</time>
      </trkpt>
      <trkpt lat="42.83503" lon="0.85248">
        <ele>2001.8</ele>
        <time>2021-06-12T13:48:57Z</time>
      </trkpt>
      <trkpt lat="42.83508" lon="0.85257">
        <ele>2006.1</ele>
        <time>2021-06-12T13:50:28Z</time>
      </trkpt>
      <trkpt lat="42.83511" lon="0.85267">
        <ele>2009.6</ele>
        <time>2021-06-12T13:51:02Z</time>
      </trkpt>
      <trkpt lat="42.83509" lon="0.85277">
        <ele>2010.8</ele>
        <time>2021-06-12T13:51:35Z</time>
      </trkpt>
      <trkpt lat="42.83514" lon="0.85278">
        <ele>2013.3</ele>
        <time>2021-06-12T13:52:33Z</time>
      </trkpt>
      <trkpt lat="42.8352" lon="0.85276">
        <ele>2015.5</ele>
        <time>2021-06-12T13:52:49Z</time>
      </trkpt>
      <trkpt lat="42.83518" lon="0.85284">
        <ele>2016.3</ele>
        <time>2021-06-12T13:53:45Z</time>
      </trkpt>
      <trkpt lat="42.83518" lon="0.85292">
        <ele>2018.1</ele>
        <time>2021-06-12T13:53:58Z</time>
      </trkpt>
      <trkpt lat="42.83519" lon="0.853">
        <ele>2020.2</ele>
        <time>2021-06-12T13:54:38Z</time>
      </trkpt>
      <trkpt lat="42.83527" lon="0.85315">
        <ele>2027</ele>
        <time>2021-06-12T13:55:32Z</time>
      </trkpt>
      <trkpt lat="42.83523" lon="0.85323">
        <ele>2027</ele>
        <time>2021-06-12T13:56:34Z</time>
      </trkpt>
      <trkpt lat="42.83519" lon="0.85331">
        <ele>2026.9</ele>
        <time>2021-06-12T13:56:43Z</time>
      </trkpt>
      <trkpt lat="42.83517" lon="0.85336">
        <ele>2027.2</ele>
        <time>2021-06-12T13:56:49Z</time>
      </trkpt>
      <trkpt lat="42.83516" lon="0.85344">
        <ele>2028.8</ele>
        <time>2021-06-12T13:57:15Z</time>
      </trkpt>
      <trkpt lat="42.83515" lon="0.85352">
        <ele>2030.3</ele>
        <time>2021-06-12T13:57:28Z</time>
      </trkpt>
      <trkpt lat="42.83515" lon="0.85364">
        <ele>2033.4</ele>
        <time>2021-06-12T13:57:41Z</time>
      </trkpt>
      <trkpt lat="42.83515" lon="0.85371">
        <ele>2035.1</ele>
        <time>2021-06-12T13:58:40Z</time>
      </trkpt>
      <trkpt lat="42.83512" lon="0.8538">
        <ele>2035.9</ele>
        <time>2021-06-12T13:58:49Z</time>
      </trkpt>
      <trkpt lat="42.8351" lon="0.85389">
        <ele>2037.2</ele>
        <time>2021-06-12T13:58:59Z</time>
      </trkpt>
      <trkpt lat="42.83509" lon="0.85397">
        <ele>2038.7</ele>
        <time>2021-06-12T13:59:10Z</time>
      </trkpt>
      <trkpt lat="42.83509" lon="0.85406">
        <ele>2040.9</ele>
        <time>2021-06-12T13:59:23Z</time>
      </trkpt>
      <trkpt lat="42.8351" lon="0.85416">
        <ele>2043.9</ele>
        <time>2021-06-12T13:59:41Z</time>
      </trkpt>
      <trkpt lat="42.83515" lon="0.85427">
        <ele>2049.3</ele>
        <time>2021-06-12T13:59:53Z</time>
      </trkpt>
      <trkpt lat="42.83517" lon="0.85436">
        <ele>2052.7</ele>
        <time>2021-06-12T14:00:03Z</time>
      </trkpt>
      <trkpt lat="42.83516" lon="0.85441">
        <ele>2053.6</ele>
        <time>2021-06-12T14:00:53Z</time>
      </trkpt>
      <trkpt lat="42.83517" lon="0.85455">
        <ele>2057.8</ele>
        <time>2021-06-12T14:01:10Z</time>
      </trkpt>
      <trkpt lat="42.83515" lon="0.85463">
        <ele>2059.1</ele>
        <time>2021-06-12T14:01:17Z</time>
      </trkpt>
      <trkpt lat="42.83514" lon="0.85472">
        <ele>2061.1</ele>
        <time>2021-06-12T14:01:24Z</time>
      </trkpt>
      <trkpt lat="42.83512" lon="0.85482">
        <ele>2063.1</ele>
        <time>2021-06-12T14:01:34Z</time>
      </trkpt>
      <trkpt lat="42.83513" lon="0.8549">
        <ele>2065.6</ele>
        <time>2021-06-12T14:01:45Z</time>
      </trkpt>
      <trkpt lat="42.83514" lon="0.85499">
        <ele>2068.4</ele>
        <time>2021-06-12T14:01:56Z</time>
      </trkpt>
      <trkpt lat="42.83511" lon="0.85511">
        <ele>2069.7</ele>
        <time>2021-06-12T14:02:04Z</time>
      </trkpt>
      <trkpt lat="42.83511" lon="0.8552">
        <ele>2071.3</ele>
        <time>2021-06-12T14:02:14Z</time>
      </trkpt>
      <trkpt lat="42.83513" lon="0.85528">
        <ele>2073.3</ele>
        <time>2021-06-12T14:02:28Z</time>
      </trkpt>
      <trkpt lat="42.83519" lon="0.8554">
        <ele>2077.2</ele>
        <time>2021-06-12T14:03:06Z</time>
      </trkpt>
      <trkpt lat="42.8352" lon="0.85546">
        <ele>2078.5</ele>
        <time>2021-06-12T14:04:03Z</time>
      </trkpt>
      <trkpt lat="42.83523" lon="0.85557">
        <ele>2081.2</ele>
        <time>2021-06-12T14:04:23Z</time>
      </trkpt>
      <trkpt lat="42.83523" lon="0.85566">
        <ele>2082.7</ele>
        <time>2021-06-12T14:04:45Z</time>
      </trkpt>
      <trkpt lat="42.83526" lon="0.85577">
        <ele>2085.2</ele>
        <time>2021-06-12T14:04:56Z</time>
      </trkpt>
      <trkpt lat="42.83532" lon="0.85586">
        <ele>2088.3</ele>
        <time>2021-06-12T14:05:17Z</time>
      </trkpt>
      <trkpt lat="42.83534" lon="0.85595">
        <ele>2090.7</ele>
        <time>2021-06-12T14:05:59Z</time>
      </trkpt>
      <trkpt lat="42.83541" lon="0.85599">
        <ele>2093.1</ele>
        <time>2021-06-12T14:06:32Z</time>
      </trkpt>
      <trkpt lat="42.83545" lon="0.85612">
        <ele>2096.8</ele>
        <time>2021-06-12T14:06:58Z</time>
      </trkpt>
      <trkpt lat="42.83545" lon="0.85624">
        <ele>2099.2</ele>
        <time>2021-06-12T14:07:08Z</time>
      </trkpt>
      <trkpt lat="42.83547" lon="0.85634">
        <ele>2101.7</ele>
        <time>2021-06-12T14:07:41Z</time>
      </trkpt>
      <trkpt lat="42.83549" lon="0.85648">
        <ele>2105</ele>
        <time>2021-06-12T14:08:07Z</time>
      </trkpt>
      <trkpt lat="42.83549" lon="0.85656">
        <ele>2106.6</ele>
        <time>2021-06-12T14:08:21Z</time>
      </trkpt>
      <trkpt lat="42.83548" lon="0.85664">
        <ele>2108.1</ele>
        <time>2021-06-12T14:08:35Z</time>
      </trkpt>
      <trkpt lat="42.83541" lon="0.85669">
        <ele>2107.9</ele>
        <time>2021-06-12T14:08:53Z</time>
      </trkpt>
      <trkpt lat="42.83535" lon="0.85673">
        <ele>2107.7</ele>
        <time>2021-06-12T14:09:00Z</time>
      </trkpt>
      <trkpt lat="42.8353" lon="0.85677">
        <ele>2107.8</ele>
        <time>2021-06-12T14:12:21Z</time>
      </trkpt>
      <trkpt lat="42.83526" lon="0.85684">
        <ele>2108.7</ele>
        <time>2021-06-12T14:14:41Z</time>
      </trkpt>
      <trkpt lat="42.83522" lon="0.85691">
        <ele>2109.8</ele>
        <time>2021-06-12T14:14:49Z</time>
      </trkpt>
      <trkpt lat="42.83518" lon="0.857">
        <ele>2111.3</ele>
        <time>2021-06-12T14:15:00Z</time>
      </trkpt>
      <trkpt lat="42.83513" lon="0.85706">
        <ele>2112.1</ele>
        <time>2021-06-12T14:15:11Z</time>
      </trkpt>
      <trkpt lat="42.83508" lon="0.85711">
        <ele>2112.7</ele>
        <time>2021-06-12T14:15:18Z</time>
      </trkpt>
      <trkpt lat="42.83505" lon="0.8572">
        <ele>2114.7</ele>
        <time>2021-06-12T14:15:33Z</time>
      </trkpt>
      <trkpt lat="42.83501" lon="0.85728">
        <ele>2116.3</ele>
        <time>2021-06-12T14:15:44Z</time>
      </trkpt>
      <trkpt lat="42.83501" lon="0.85737">
        <ele>2118.7</ele>
        <time>2021-06-12T14:16:10Z</time>
      </trkpt>
      <trkpt lat="42.83499" lon="0.85745">
        <ele>2120.9</ele>
        <time>2021-06-12T14:16:41Z</time>
      </trkpt>
      <trkpt lat="42.83496" lon="0.85753">
        <ele>2123.2</ele>
        <time>2021-06-12T14:16:54Z</time>
      </trkpt>
      <trkpt lat="42.83492" lon="0.8576">
        <ele>2125</ele>
        <time>2021-06-12T14:17:02Z</time>
      </trkpt>
      <trkpt lat="42.83494" lon="0.85767">
        <ele>2125.7</ele>
        <time>2021-06-12T14:17:13Z</time>
      </trkpt>
      <trkpt lat="42.83496" lon="0.85776">
        <ele>2126.7</ele>
        <time>2021-06-12T14:17:28Z</time>
      </trkpt>
      <trkpt lat="42.83497" lon="0.85786">
        <ele>2128.1</ele>
        <time>2021-06-12T14:18:08Z</time>
      </trkpt>
      <trkpt lat="42.83497" lon="0.85795">
        <ele>2129.5</ele>
        <time>2021-06-12T14:18:25Z</time>
      </trkpt>
      <trkpt lat="42.83497" lon="0.85807">
        <ele>2131.3</ele>
        <time>2021-06-12T14:19:05Z</time>
      </trkpt>
      <trkpt lat="42.83496" lon="0.85817">
        <ele>2132.9</ele>
        <time>2021-06-12T14:19:45Z</time>
      </trkpt>
      <trkpt lat="42.83495" lon="0.85824">
        <ele>2134.1</ele>
        <time>2021-06-12T14:19:56Z</time>
      </trkpt>
      <trkpt lat="42.83497" lon="0.85834">
        <ele>2135.5</ele>
        <time>2021-06-12T14:20:23Z</time>
      </trkpt>
      <trkpt lat="42.83498" lon="0.85844">
        <ele>2137.8</ele>
        <time>2021-06-12T14:20:36Z</time>
      </trkpt>
      <trkpt lat="42.83501" lon="0.85852">
        <ele>2139.6</ele>
        <time>2021-06-12T14:20:48Z</time>
      </trkpt>
      <trkpt lat="42.83504" lon="0.85861">
        <ele>2142.2</ele>
        <time>2021-06-12T14:21:32Z</time>
      </trkpt>
      <trkpt lat="42.83511" lon="0.85867">
        <ele>2144.7</ele>
        <time>2021-06-12T14:21:45Z</time>
      </trkpt>
      <trkpt lat="42.83515" lon="0.85876">
        <ele>2147.4</ele>
        <time>2021-06-12T14:22:02Z</time>
      </trkpt>
      <trkpt lat="42.83516" lon="0.85888">
        <ele>2150.4</ele>
        <time>2021-06-12T14:22:34Z</time>
      </trkpt>
      <trkpt lat="42.83514" lon="0.85896">
        <ele>2152</ele>
        <time>2021-06-12T14:22:43Z</time>
      </trkpt>
      <trkpt lat="42.83514" lon="0.85902">
        <ele>2153.4</ele>
        <time>2021-06-12T14:22:50Z</time>
      </trkpt>
      <trkpt lat="42.83515" lon="0.85912">
        <ele>2155.9</ele>
        <time>2021-06-12T14:23:19Z</time>
      </trkpt>
      <trkpt lat="42.8352" lon="0.85918">
        <ele>2157.9</ele>
        <time>2021-06-12T14:23:32Z</time>
      </trkpt>
      <trkpt lat="42.8352" lon="0.85927">
        <ele>2159.9</ele>
        <time>2021-06-12T14:23:46Z</time>
      </trkpt>
      <trkpt lat="42.83523" lon="0.85936">
        <ele>2162.1</ele>
        <time>2021-06-12T14:24:22Z</time>
      </trkpt>
      <trkpt lat="42.83528" lon="0.8594">
        <ele>2163.4</ele>
        <time>2021-06-12T14:24:36Z</time>
      </trkpt>
      <trkpt lat="42.83532" lon="0.85954">
        <ele>2166.6</ele>
        <time>2021-06-12T14:25:14Z</time>
      </trkpt>
      <trkpt lat="42.83532" lon="0.85963">
        <ele>2168.3</ele>
        <time>2021-06-12T14:25:23Z</time>
      </trkpt>
      <trkpt lat="42.8354" lon="0.8596">
        <ele>2168.2</ele>
        <time>2021-06-12T14:25:37Z</time>
      </trkpt>
      <trkpt lat="42.83542" lon="0.85969">
        <ele>2169.9</ele>
        <time>2021-06-12T14:25:52Z</time>
      </trkpt>
      <trkpt lat="42.83547" lon="0.85976">
        <ele>2171.3</ele>
        <time>2021-06-12T14:26:11Z</time>
      </trkpt>
      <trkpt lat="42.83546" lon="0.85983">
        <ele>2172.5</ele>
        <time>2021-06-12T14:26:46Z</time>
      </trkpt>
      <trkpt lat="42.83545" lon="0.85993">
        <ele>2174.2</ele>
        <time>2021-06-12T14:26:54Z</time>
      </trkpt>
      <trkpt lat="42.83546" lon="0.86">
        <ele>2175.4</ele>
        <time>2021-06-12T14:27:01Z</time>
      </trkpt>
      <trkpt lat="42.83547" lon="0.8601">
        <ele>2175.4</ele>
        <time>2021-06-12T14:27:10Z</time>
      </trkpt>
      <trkpt lat="42.83551" lon="0.86018">
        <ele>2175.3</ele>
        <time>2021-06-12T14:27:18Z</time>
      </trkpt>
      <trkpt lat="42.83553" lon="0.86022">
        <ele>2175.3</ele>
        <time>2021-06-13T07:37:24Z</time>
      </trkpt>
      <trkpt lat="42.83547" lon="0.8603">
        <ele>2175.2</ele>
        <time>2021-06-13T07:45:11Z</time>
      </trkpt>
      <trkpt lat="42.83537" lon="0.86033">
        <ele>2175</ele>
        <time>2021-06-13T07:45:21Z</time>
      </trkpt>
      <trkpt lat="42.83527" lon="0.86046">
        <ele>2174.5</ele>
        <time>2021-06-13T07:45:40Z</time>
      </trkpt>
      <trkpt lat="42.83517" lon="0.86055">
        <ele>2174</ele>
        <time>2021-06-13T07:45:56Z</time>
      </trkpt>
      <trkpt lat="42.83509" lon="0.86065">
        <ele>2173.3</ele>
        <time>2021-06-13T07:46:14Z</time>
      </trkpt>
      <trkpt lat="42.83498" lon="0.86071">
        <ele>2172.8</ele>
        <time>2021-06-13T07:46:36Z</time>
      </trkpt>
      <trkpt lat="42.83485" lon="0.86075">
        <ele>2174</ele>
        <time>2021-06-13T07:47:22Z</time>
      </trkpt>
      <trkpt lat="42.83475" lon="0.86072">
        <ele>2175.2</ele>
        <time>2021-06-13T07:47:32Z</time>
      </trkpt>
      <trkpt lat="42.83463" lon="0.86071">
        <ele>2176.5</ele>
        <time>2021-06-13T07:47:44Z</time>
      </trkpt>
      <trkpt lat="42.83452" lon="0.8607">
        <ele>2177.6</ele>
        <time>2021-06-13T07:47:55Z</time>
      </trkpt>
      <trkpt lat="42.83441" lon="0.86068">
        <ele>2178.8</ele>
        <time>2021-06-13T07:48:14Z</time>
      </trkpt>
      <trkpt lat="42.8343" lon="0.86064">
        <ele>2180.1</ele>
        <time>2021-06-13T07:48:24Z</time>
      </trkpt>
      <trkpt lat="42.83419" lon="0.8606">
        <ele>2181.3</ele>
        <time>2021-06-13T07:48:34Z</time>
      </trkpt>
      <trkpt lat="42.83407" lon="0.86056">
        <ele>2183.5</ele>
        <time>2021-06-13T07:48:46Z</time>
      </trkpt>
      <trkpt lat="42.83396" lon="0.86056">
        <ele>2185.6</ele>
        <time>2021-06-13T07:48:59Z</time>
      </trkpt>
      <trkpt lat="42.83384" lon="0.86052">
        <ele>2188</ele>
        <time>2021-06-13T07:49:16Z</time>
      </trkpt>
      <trkpt lat="42.83372" lon="0.86054">
        <ele>2190.2</ele>
        <time>2021-06-13T07:49:27Z</time>
      </trkpt>
      <trkpt lat="42.83358" lon="0.86055">
        <ele>2192.9</ele>
        <time>2021-06-13T07:49:39Z</time>
      </trkpt>
      <trkpt lat="42.83344" lon="0.86056">
        <ele>2195.6</ele>
        <time>2021-06-13T07:49:50Z</time>
      </trkpt>
      <trkpt lat="42.83334" lon="0.86058">
        <ele>2197.6</ele>
        <time>2021-06-13T07:50:01Z</time>
      </trkpt>
      <trkpt lat="42.83322" lon="0.8606">
        <ele>2199.6</ele>
        <time>2021-06-13T07:50:13Z</time>
      </trkpt>
      <trkpt lat="42.83309" lon="0.8606">
        <ele>2201.7</ele>
        <time>2021-06-13T07:50:30Z</time>
      </trkpt>
      <trkpt lat="42.83297" lon="0.86054">
        <ele>2204</ele>
        <time>2021-06-13T07:50:47Z</time>
      </trkpt>
      <trkpt lat="42.83287" lon="0.86052">
        <ele>2205.8</ele>
        <time>2021-06-13T07:51:06Z</time>
      </trkpt>
      <trkpt lat="42.83276" lon="0.86056">
        <ele>2207.5</ele>
        <time>2021-06-13T07:51:24Z</time>
      </trkpt>
      <trkpt lat="42.83264" lon="0.86056">
        <ele>2209.6</ele>
        <time>2021-06-13T07:51:48Z</time>
      </trkpt>
      <trkpt lat="42.83251" lon="0.86051">
        <ele>2212.3</ele>
        <time>2021-06-13T07:52:01Z</time>
      </trkpt>
      <trkpt lat="42.83241" lon="0.86045">
        <ele>2215</ele>
        <time>2021-06-13T07:52:16Z</time>
      </trkpt>
      <trkpt lat="42.8323" lon="0.86041">
        <ele>2217.8</ele>
        <time>2021-06-13T07:52:28Z</time>
      </trkpt>
      <trkpt lat="42.83219" lon="0.86037">
        <ele>2220.8</ele>
        <time>2021-06-13T07:52:40Z</time>
      </trkpt>
      <trkpt lat="42.83208" lon="0.86029">
        <ele>2224.8</ele>
        <time>2021-06-13T07:52:53Z</time>
      </trkpt>
      <trkpt lat="42.83198" lon="0.86022">
        <ele>2228.8</ele>
        <time>2021-06-13T07:53:08Z</time>
      </trkpt>
      <trkpt lat="42.83189" lon="0.86014">
        <ele>2232.9</ele>
        <time>2021-06-13T07:53:31Z</time>
      </trkpt>
      <trkpt lat="42.83177" lon="0.86007">
        <ele>2238</ele>
        <time>2021-06-13T07:53:51Z</time>
      </trkpt>
      <trkpt lat="42.83167" lon="0.86002">
        <ele>2242.3</ele>
        <time>2021-06-13T07:54:35Z</time>
      </trkpt>
      <trkpt lat="42.83155" lon="0.85994">
        <ele>2247.1</ele>
        <time>2021-06-13T07:55:12Z</time>
      </trkpt>
      <trkpt lat="42.83146" lon="0.85983">
        <ele>2250.7</ele>
        <time>2021-06-13T07:55:32Z</time>
      </trkpt>
      <trkpt lat="42.8314" lon="0.8598">
        <ele>2252.9</ele>
        <time>2021-06-13T07:55:46Z</time>
      </trkpt>
      <trkpt lat="42.83133" lon="0.85974">
        <ele>2255.7</ele>
        <time>2021-06-13T07:56:00Z</time>
      </trkpt>
      <trkpt lat="42.83126" lon="0.85973">
        <ele>2258.1</ele>
        <time>2021-06-13T07:56:14Z</time>
      </trkpt>
      <trkpt lat="42.83117" lon="0.85972">
        <ele>2261.2</ele>
        <time>2021-06-13T07:56:33Z</time>
      </trkpt>
      <trkpt lat="42.8311" lon="0.85972">
        <ele>2263.6</ele>
        <time>2021-06-13T07:56:47Z</time>
      </trkpt>
      <trkpt lat="42.83102" lon="0.85973">
        <ele>2266.3</ele>
        <time>2021-06-13T07:57:17Z</time>
      </trkpt>
      <trkpt lat="42.83092" lon="0.85971">
        <ele>2269.8</ele>
        <time>2021-06-13T07:57:37Z</time>
      </trkpt>
      <trkpt lat="42.83082" lon="0.8597">
        <ele>2273</ele>
        <time>2021-06-13T07:57:54Z</time>
      </trkpt>
      <trkpt lat="42.83071" lon="0.85963">
        <ele>2275</ele>
        <time>2021-06-13T07:58:17Z</time>
      </trkpt>
      <trkpt lat="42.83059" lon="0.85959">
        <ele>2277</ele>
        <time>2021-06-13T07:58:32Z</time>
      </trkpt>
      <trkpt lat="42.83046" lon="0.85959">
        <ele>2278.6</ele>
        <time>2021-06-13T07:58:45Z</time>
      </trkpt>
      <trkpt lat="42.83037" lon="0.85949">
        <ele>2281.7</ele>
        <time>2021-06-13T07:58:55Z</time>
      </trkpt>
      <trkpt lat="42.83028" lon="0.85939">
        <ele>2285.1</ele>
        <time>2021-06-13T07:59:06Z</time>
      </trkpt>
      <trkpt lat="42.8302" lon="0.8593">
        <ele>2288.6</ele>
        <time>2021-06-13T07:59:16Z</time>
      </trkpt>
      <trkpt lat="42.83009" lon="0.85922">
        <ele>2292.7</ele>
        <time>2021-06-13T07:59:29Z</time>
      </trkpt>
      <trkpt lat="42.82999" lon="0.85914">
        <ele>2296.3</ele>
        <time>2021-06-13T07:59:42Z</time>
      </trkpt>
      <trkpt lat="42.82987" lon="0.85906">
        <ele>2300.9</ele>
        <time>2021-06-13T07:59:58Z</time>
      </trkpt>
      <trkpt lat="42.82978" lon="0.85899">
        <ele>2304.8</ele>
        <time>2021-06-13T08:00:14Z</time>
      </trkpt>
      <trkpt lat="42.82968" lon="0.85894">
        <ele>2309.5</ele>
        <time>2021-06-13T08:00:35Z</time>
      </trkpt>
      <trkpt lat="42.82956" lon="0.8589">
        <ele>2315.3</ele>
        <time>2021-06-13T08:01:04Z</time>
      </trkpt>
      <trkpt lat="42.82949" lon="0.85882">
        <ele>2319.6</ele>
        <time>2021-06-13T08:01:26Z</time>
      </trkpt>
      <trkpt lat="42.82945" lon="0.85873">
        <ele>2323.1</ele>
        <time>2021-06-13T08:01:51Z</time>
      </trkpt>
      <trkpt lat="42.82939" lon="0.85878">
        <ele>2325.2</ele>
        <time>2021-06-13T08:02:13Z</time>
      </trkpt>
      <trkpt lat="42.82933" lon="0.8587">
        <ele>2329.8</ele>
        <time>2021-06-13T08:02:31Z</time>
      </trkpt>
      <trkpt lat="42.82927" lon="0.85869">
        <ele>2333.2</ele>
        <time>2021-06-13T08:02:50Z</time>
      </trkpt>
      <trkpt lat="42.82922" lon="0.85855">
        <ele>2339.2</ele>
        <time>2021-06-13T08:03:05Z</time>
      </trkpt>
      <trkpt lat="42.82916" lon="0.85856">
        <ele>2342.5</ele>
        <time>2021-06-13T08:03:26Z</time>
      </trkpt>
      <trkpt lat="42.82911" lon="0.85854">
        <ele>2346.9</ele>
        <time>2021-06-13T08:03:45Z</time>
      </trkpt>
      <trkpt lat="42.82907" lon="0.85852">
        <ele>2350.4</ele>
        <time>2021-06-13T08:05:09Z</time>
      </trkpt>
      <trkpt lat="42.82901" lon="0.85843">
        <ele>2357.1</ele>
        <time>2021-06-13T08:05:23Z</time>
      </trkpt>
      <trkpt lat="42.82897" lon="0.85839">
        <ele>2361.1</ele>
        <time>2021-06-13T08:05:46Z</time>
      </trkpt>
      <trkpt lat="42.8289" lon="0.85832">
        <ele>2367.4</ele>
        <time>2021-06-13T08:06:03Z</time>
      </trkpt>
      <trkpt lat="42.82886" lon="0.85838">
        <ele>2369.4</ele>
        <time>2021-06-13T08:06:23Z</time>
      </trkpt>
      <trkpt lat="42.82885" lon="0.85846">
        <ele>2368.4</ele>
        <time>2021-06-13T08:06:44Z</time>
      </trkpt>
      <trkpt lat="42.82878" lon="0.85834">
        <ele>2376.2</ele>
        <time>2021-06-13T08:07:09Z</time>
      </trkpt>
      <trkpt lat="42.82872" lon="0.85829">
        <ele>2380.1</ele>
        <time>2021-06-13T08:07:27Z</time>
      </trkpt>
      <trkpt lat="42.82865" lon="0.85814">
        <ele>2383</ele>
        <time>2021-06-13T08:07:45Z</time>
      </trkpt>
      <trkpt lat="42.8286" lon="0.85825">
        <ele>2388.2</ele>
        <time>2021-06-13T08:08:19Z</time>
      </trkpt>
      <trkpt lat="42.82864" lon="0.85834">
        <ele>2386.4</ele>
        <time>2021-06-13T08:09:31Z</time>
      </trkpt>
      <trkpt lat="42.82856" lon="0.85843">
        <ele>2390.7</ele>
        <time>2021-06-13T08:09:41Z</time>
      </trkpt>
      <trkpt lat="42.82852" lon="0.85851">
        <ele>2392.3</ele>
        <time>2021-06-13T08:09:57Z</time>
      </trkpt>
      <trkpt lat="42.82844" lon="0.85848">
        <ele>2398.9</ele>
        <time>2021-06-13T08:10:11Z</time>
      </trkpt>
      <trkpt lat="42.82844" lon="0.85849">
        <ele>2398.7</ele>
        <time>2021-06-13T08:10:33Z</time>
      </trkpt>
      <trkpt lat="42.82839" lon="0.85854">
        <ele>2401.7</ele>
        <time>2021-06-13T08:10:52Z</time>
      </trkpt>
      <trkpt lat="42.82841" lon="0.8586">
        <ele>2399.3</ele>
        <time>2021-06-13T08:11:21Z</time>
      </trkpt>
      <trkpt lat="42.82832" lon="0.8585">
        <ele>2407.6</ele>
        <time>2021-06-13T08:11:36Z</time>
      </trkpt>
      <trkpt lat="42.82833" lon="0.85859">
        <ele>2405.6</ele>
        <time>2021-06-13T08:11:54Z</time>
      </trkpt>
      <trkpt lat="42.82828" lon="0.8586">
        <ele>2409.3</ele>
        <time>2021-06-13T08:12:09Z</time>
      </trkpt>
      <trkpt lat="42.82828" lon="0.85869">
        <ele>2408</ele>
        <time>2021-06-13T08:12:24Z</time>
      </trkpt>
      <trkpt lat="42.82822" lon="0.85858">
        <ele>2414.2</ele>
        <time>2021-06-13T08:12:42Z</time>
      </trkpt>
      <trkpt lat="42.82812" lon="0.85848">
        <ele>2423.2</ele>
        <time>2021-06-13T08:13:01Z</time>
      </trkpt>
      <trkpt lat="42.82806" lon="0.85836">
        <ele>2429.3</ele>
        <time>2021-06-13T08:13:22Z</time>
      </trkpt>
      <trkpt lat="42.828" lon="0.85825">
        <ele>2434.9</ele>
        <time>2021-06-13T08:13:43Z</time>
      </trkpt>
      <trkpt lat="42.82794" lon="0.85815">
        <ele>2441.1</ele>
        <time>2021-06-13T08:14:01Z</time>
      </trkpt>
      <trkpt lat="42.82791" lon="0.85822">
        <ele>2442.8</ele>
        <time>2021-06-13T08:14:18Z</time>
      </trkpt>
      <trkpt lat="42.82786" lon="0.85828">
        <ele>2445.8</ele>
        <time>2021-06-13T08:14:39Z</time>
      </trkpt>
      <trkpt lat="42.82783" lon="0.8584">
        <ele>2446.3</ele>
        <time>2021-06-13T08:14:58Z</time>
      </trkpt>
      <trkpt lat="42.82776" lon="0.85848">
        <ele>2450.7</ele>
        <time>2021-06-13T08:15:13Z</time>
      </trkpt>
      <trkpt lat="42.8277" lon="0.85854">
        <ele>2454.7</ele>
        <time>2021-06-13T08:16:00Z</time>
      </trkpt>
      <trkpt lat="42.82759" lon="0.8588">
        <ele>2460.7</ele>
        <time>2021-06-13T08:17:09Z</time>
      </trkpt>
      <trkpt lat="42.82741" lon="0.85863">
        <ele>2474</ele>
        <time>2021-06-13T08:17:19Z</time>
      </trkpt>
      <trkpt lat="42.82737" lon="0.85852">
        <ele>2476.4</ele>
        <time>2021-06-13T08:35:09Z</time>
      </trkpt>
      <trkpt lat="42.82729" lon="0.85843">
        <ele>2480.5</ele>
        <time>2021-06-13T08:35:51Z</time>
      </trkpt>
      <trkpt lat="42.82723" lon="0.85857">
        <ele>2483</ele>
        <time>2021-06-13T08:36:15Z</time>
      </trkpt>
      <trkpt lat="42.82715" lon="0.8587">
        <ele>2487.1</ele>
        <time>2021-06-13T08:36:37Z</time>
      </trkpt>
      <trkpt lat="42.8271" lon="0.85865">
        <ele>2489.6</ele>
        <time>2021-06-13T08:37:08Z</time>
      </trkpt>
      <trkpt lat="42.82707" lon="0.85884">
        <ele>2491.8</ele>
        <time>2021-06-13T08:37:34Z</time>
      </trkpt>
      <trkpt lat="42.82701" lon="0.85898">
        <ele>2496</ele>
        <time>2021-06-13T08:37:54Z</time>
      </trkpt>
      <trkpt lat="42.82696" lon="0.85899">
        <ele>2499.1</ele>
        <time>2021-06-13T08:38:22Z</time>
      </trkpt>
      <trkpt lat="42.82687" lon="0.85912">
        <ele>2505.9</ele>
        <time>2021-06-13T08:38:42Z</time>
      </trkpt>
      <trkpt lat="42.82683" lon="0.85927">
        <ele>2505.8</ele>
        <time>2021-06-13T08:39:07Z</time>
      </trkpt>
      <trkpt lat="42.82678" lon="0.85941">
        <ele>2505.2</ele>
        <time>2021-06-13T08:39:23Z</time>
      </trkpt>
      <trkpt lat="42.82672" lon="0.85929">
        <ele>2513</ele>
        <time>2021-06-13T08:39:45Z</time>
      </trkpt>
      <trkpt lat="42.82669" lon="0.85925">
        <ele>2516.2</ele>
        <time>2021-06-13T08:40:01Z</time>
      </trkpt>
      <trkpt lat="42.82667" lon="0.85909">
        <ele>2518.6</ele>
        <time>2021-06-13T08:40:42Z</time>
      </trkpt>
      <trkpt lat="42.82663" lon="0.85895">
        <ele>2516.6</ele>
        <time>2021-06-13T08:40:56Z</time>
      </trkpt>
      <trkpt lat="42.82656" lon="0.85907">
        <ele>2518.5</ele>
        <time>2021-06-13T08:41:12Z</time>
      </trkpt>
      <trkpt lat="42.82651" lon="0.85909">
        <ele>2518.8</ele>
        <time>2021-06-13T08:41:29Z</time>
      </trkpt>
      <trkpt lat="42.8265" lon="0.85895">
        <ele>2516.6</ele>
        <time>2021-06-13T08:42:30Z</time>
      </trkpt>
      <trkpt lat="42.82641" lon="0.85881">
        <ele>2514.4</ele>
        <time>2021-06-13T08:42:53Z</time>
      </trkpt>
      <trkpt lat="42.82634" lon="0.85881">
        <ele>2514.4</ele>
        <time>2021-06-13T08:43:18Z</time>
      </trkpt>
      <trkpt lat="42.8263" lon="0.85868">
        <ele>2512.4</ele>
        <time>2021-06-13T08:43:39Z</time>
      </trkpt>
      <trkpt lat="42.82624" lon="0.85872">
        <ele>2513</ele>
        <time>2021-06-13T08:43:59Z</time>
      </trkpt>
      <trkpt lat="42.82619" lon="0.8587">
        <ele>2512.7</ele>
        <time>2021-06-13T08:44:25Z</time>
      </trkpt>
      <trkpt lat="42.82616" lon="0.85869">
        <ele>2512.6</ele>
        <time>2021-06-13T08:47:43Z</time>
      </trkpt>
      <trkpt lat="42.8261" lon="0.85869">
        <ele>2512.6</ele>
        <time>2021-06-13T08:47:56Z</time>
      </trkpt>
      <trkpt lat="42.82606" lon="0.85863">
        <ele>2511.6</ele>
        <time>2021-06-13T08:48:29Z</time>
      </trkpt>
      <trkpt lat="42.82601" lon="0.85848">
        <ele>2509.3</ele>
        <time>2021-06-13T08:48:44Z</time>
      </trkpt>
      <trkpt lat="42.82594" lon="0.85836">
        <ele>2507.4</ele>
        <time>2021-06-13T08:49:00Z</time>
      </trkpt>
      <trkpt lat="42.82589" lon="0.85822">
        <ele>2511.2</ele>
        <time>2021-06-13T08:49:22Z</time>
      </trkpt>
      <trkpt lat="42.82583" lon="0.85829">
        <ele>2626</ele>
        <time>2021-06-13T08:49:41Z</time>
      </trkpt>
      <trkpt lat="42.8258" lon="0.85843">
        <ele>2546</ele>
        <time>2021-06-13T08:49:55Z</time>
      </trkpt>
      <trkpt lat="42.82579" lon="0.85842">
        <ele>2546</ele>
        <time>2021-06-13T08:53:26Z</time>
      </trkpt>
      <trkpt lat="42.82575" lon="0.85829">
        <ele>2629</ele>
        <time>2021-06-13T08:55:32Z</time>
      </trkpt>
      <trkpt lat="42.8257" lon="0.85822">
        <ele>2628</ele>
        <time>2021-06-13T08:59:14Z</time>
      </trkpt>
      <trkpt lat="42.82565" lon="0.85811">
        <ele>2626</ele>
        <time>2021-06-13T08:59:33Z</time>
      </trkpt>
      <trkpt lat="42.82555" lon="0.85802">
        <ele>2624</ele>
        <time>2021-06-13T08:59:43Z</time>
      </trkpt>
      <trkpt lat="42.82546" lon="0.8579">
        <ele>2622</ele>
        <time>2021-06-13T08:59:57Z</time>
      </trkpt>
      <trkpt lat="42.82537" lon="0.85792">
        <ele>2622</ele>
        <time>2021-06-13T09:01:27Z</time>
      </trkpt>
      <trkpt lat="42.82528" lon="0.85788">
        <ele>2624</ele>
        <time>2021-06-13T09:01:37Z</time>
      </trkpt>
      <trkpt lat="42.82529" lon="0.85792">
        <ele>2626</ele>
        <time>2021-06-13T09:02:25Z</time>
      </trkpt>
      <trkpt lat="42.82539" lon="0.85799">
        <ele>2631</ele>
        <time>2021-06-13T09:02:36Z</time>
      </trkpt>
      <trkpt lat="42.8255" lon="0.85794">
        <ele>2630</ele>
        <time>2021-06-13T09:03:18Z</time>
      </trkpt>
      <trkpt lat="42.82561" lon="0.85789">
        <ele>2627</ele>
        <time>2021-06-13T09:03:29Z</time>
      </trkpt>
      <trkpt lat="42.8257" lon="0.85785">
        <ele>2625</ele>
        <time>2021-06-13T09:03:42Z</time>
      </trkpt>
      <trkpt lat="42.82578" lon="0.8578">
        <ele>2624</ele>
        <time>2021-06-13T09:04:07Z</time>
      </trkpt>
      <trkpt lat="42.8258" lon="0.8577">
        <ele>2622</ele>
        <time>2021-06-13T09:04:47Z</time>
      </trkpt>
      <trkpt lat="42.82585" lon="0.85753">
        <ele>2536.9</ele>
        <time>2021-06-13T09:05:11Z</time>
      </trkpt>
      <trkpt lat="42.82585" lon="0.85742">
        <ele>2538.8</ele>
        <time>2021-06-13T09:06:16Z</time>
      </trkpt>
      <trkpt lat="42.82579" lon="0.85746">
        <ele>2545.17</ele>
        <time>2021-06-13T09:07:43Z</time>
      </trkpt>
      <trkpt lat="42.82577" lon="0.85765">
        <ele>2627</ele>
        <time>2021-06-13T09:08:00Z</time>
      </trkpt>
      <trkpt lat="42.82572" lon="0.8578">
        <ele>2629</ele>
        <time>2021-06-13T09:08:15Z</time>
      </trkpt>
      <trkpt lat="42.82562" lon="0.85786">
        <ele>2629</ele>
        <time>2021-06-13T09:08:25Z</time>
      </trkpt>
      <trkpt lat="42.82552" lon="0.85792">
        <ele>2628</ele>
        <time>2021-06-13T09:08:35Z</time>
      </trkpt>
      <trkpt lat="42.8254" lon="0.85796">
        <ele>2626</ele>
        <time>2021-06-13T09:08:52Z</time>
      </trkpt>
      <trkpt lat="42.8253" lon="0.85792">
        <ele>2625</ele>
        <time>2021-06-13T09:11:10Z</time>
      </trkpt>
      <trkpt lat="42.82523" lon="0.85786">
        <ele>2621</ele>
        <time>2021-06-13T09:21:13Z</time>
      </trkpt>
      <trkpt lat="42.82533" lon="0.85791">
        <ele>2623</ele>
        <time>2021-06-13T09:23:45Z</time>
      </trkpt>
      <trkpt lat="42.82543" lon="0.85796">
        <ele>2624</ele>
        <time>2021-06-13T09:23:56Z</time>
      </trkpt>
      <trkpt lat="42.82545" lon="0.85794">
        <ele>2626</ele>
        <time>2021-06-13T09:24:31Z</time>
      </trkpt>
      <trkpt lat="42.8255" lon="0.85801">
        <ele>2625</ele>
        <time>2021-06-13T09:25:32Z</time>
      </trkpt>
      <trkpt lat="42.82559" lon="0.85807">
        <ele>2625</ele>
        <time>2021-06-13T09:25:43Z</time>
      </trkpt>
      <trkpt lat="42.82569" lon="0.85817">
        <ele>2626</ele>
        <time>2021-06-13T09:26:16Z</time>
      </trkpt>
      <trkpt lat="42.82575" lon="0.8583">
        <ele>2626</ele>
        <time>2021-06-13T09:26:38Z</time>
      </trkpt>
      <trkpt lat="42.82582" lon="0.85836">
        <ele>2546</ele>
        <time>2021-06-13T09:27:09Z</time>
      </trkpt>
      <trkpt lat="42.82585" lon="0.85822">
        <ele>2511.2</ele>
        <time>2021-06-13T09:27:27Z</time>
      </trkpt>
      <trkpt lat="42.82591" lon="0.8583">
        <ele>2508.2</ele>
        <time>2021-06-13T09:27:57Z</time>
      </trkpt>
      <trkpt lat="42.82597" lon="0.85844">
        <ele>2508.7</ele>
        <time>2021-06-13T09:28:25Z</time>
      </trkpt>
      <trkpt lat="42.82601" lon="0.85858">
        <ele>2510.8</ele>
        <time>2021-06-13T09:28:56Z</time>
      </trkpt>
      <trkpt lat="42.82609" lon="0.85873">
        <ele>2513.2</ele>
        <time>2021-06-13T09:29:12Z</time>
      </trkpt>
      <trkpt lat="42.82616" lon="0.85867">
        <ele>2512.3</ele>
        <time>2021-06-13T09:29:29Z</time>
      </trkpt>
      <trkpt lat="42.82619" lon="0.85877">
        <ele>2513.8</ele>
        <time>2021-06-13T09:29:48Z</time>
      </trkpt>
      <trkpt lat="42.82622" lon="0.85864">
        <ele>2511.8</ele>
        <time>2021-06-13T09:30:07Z</time>
      </trkpt>
      <trkpt lat="42.82626" lon="0.85876">
        <ele>2513.7</ele>
        <time>2021-06-13T09:30:24Z</time>
      </trkpt>
      <trkpt lat="42.8263" lon="0.85876">
        <ele>2513.7</ele>
        <time>2021-06-13T09:30:44Z</time>
      </trkpt>
      <trkpt lat="42.82635" lon="0.85885">
        <ele>2515.1</ele>
        <time>2021-06-13T09:31:03Z</time>
      </trkpt>
      <trkpt lat="42.8264" lon="0.8588">
        <ele>2514.3</ele>
        <time>2021-06-13T09:31:22Z</time>
      </trkpt>
      <trkpt lat="42.82645" lon="0.85893">
        <ele>2516.3</ele>
        <time>2021-06-13T09:31:40Z</time>
      </trkpt>
      <trkpt lat="42.82647" lon="0.85909">
        <ele>2518.8</ele>
        <time>2021-06-13T09:32:00Z</time>
      </trkpt>
      <trkpt lat="42.82654" lon="0.85907">
        <ele>2518.5</ele>
        <time>2021-06-13T09:32:24Z</time>
      </trkpt>
      <trkpt lat="42.82659" lon="0.85893">
        <ele>2516.3</ele>
        <time>2021-06-13T09:32:49Z</time>
      </trkpt>
      <trkpt lat="42.82662" lon="0.85907">
        <ele>2518.5</ele>
        <time>2021-06-13T09:33:02Z</time>
      </trkpt>
      <trkpt lat="42.82666" lon="0.85923">
        <ele>2518.4</ele>
        <time>2021-06-13T09:33:21Z</time>
      </trkpt>
      <trkpt lat="42.82671" lon="0.85931">
        <ele>2513.1</ele>
        <time>2021-06-13T09:33:40Z</time>
      </trkpt>
      <trkpt lat="42.82675" lon="0.85936">
        <ele>2508.9</ele>
        <time>2021-06-13T09:33:59Z</time>
      </trkpt>
      <trkpt lat="42.82682" lon="0.85922">
        <ele>2508.1</ele>
        <time>2021-06-13T09:34:15Z</time>
      </trkpt>
      <trkpt lat="42.82688" lon="0.8591">
        <ele>2505.1</ele>
        <time>2021-06-13T09:34:37Z</time>
      </trkpt>
      <trkpt lat="42.82696" lon="0.85897">
        <ele>2499</ele>
        <time>2021-06-13T09:34:58Z</time>
      </trkpt>
      <trkpt lat="42.82699" lon="0.85898">
        <ele>2497.2</ele>
        <time>2021-06-13T09:35:19Z</time>
      </trkpt>
      <trkpt lat="42.82706" lon="0.85883">
        <ele>2492.3</ele>
        <time>2021-06-13T09:35:40Z</time>
      </trkpt>
      <trkpt lat="42.82709" lon="0.85867">
        <ele>2490.2</ele>
        <time>2021-06-13T09:35:53Z</time>
      </trkpt>
      <trkpt lat="42.82716" lon="0.85868">
        <ele>2486.5</ele>
        <time>2021-06-13T09:36:17Z</time>
      </trkpt>
      <trkpt lat="42.82722" lon="0.85862">
        <ele>2483.4</ele>
        <time>2021-06-13T09:36:35Z</time>
      </trkpt>
      <trkpt lat="42.8273" lon="0.85848">
        <ele>2479.9</ele>
        <time>2021-06-13T09:36:56Z</time>
      </trkpt>
      <trkpt lat="42.82737" lon="0.85849">
        <ele>2476.6</ele>
        <time>2021-06-13T09:37:22Z</time>
      </trkpt>
      <trkpt lat="42.82744" lon="0.85859">
        <ele>2472.5</ele>
        <time>2021-06-13T09:38:21Z</time>
      </trkpt>
      <trkpt lat="42.82749" lon="0.85874">
        <ele>2468.6</ele>
        <time>2021-06-13T09:38:46Z</time>
      </trkpt>
      <trkpt lat="42.82754" lon="0.85887">
        <ele>2463.7</ele>
        <time>2021-06-13T09:39:02Z</time>
      </trkpt>
      <trkpt lat="42.82762" lon="0.85883">
        <ele>2457.8</ele>
        <time>2021-06-13T09:39:21Z</time>
      </trkpt>
      <trkpt lat="42.82768" lon="0.85868">
        <ele>2454.7</ele>
        <time>2021-06-13T09:39:47Z</time>
      </trkpt>
      <trkpt lat="42.82775" lon="0.85854">
        <ele>2450.8</ele>
        <time>2021-06-13T09:40:07Z</time>
      </trkpt>
      <trkpt lat="42.82781" lon="0.85842">
        <ele>2447.6</ele>
        <time>2021-06-13T09:40:24Z</time>
      </trkpt>
      <trkpt lat="42.82785" lon="0.85829">
        <ele>2446.4</ele>
        <time>2021-06-13T09:40:46Z</time>
      </trkpt>
      <trkpt lat="42.82791" lon="0.85817">
        <ele>2443.5</ele>
        <time>2021-06-13T09:41:08Z</time>
      </trkpt>
      <trkpt lat="42.82795" lon="0.85822">
        <ele>2439.4</ele>
        <time>2021-06-13T09:41:25Z</time>
      </trkpt>
      <trkpt lat="42.82802" lon="0.85832">
        <ele>2432.8</ele>
        <time>2021-06-13T09:41:41Z</time>
      </trkpt>
      <trkpt lat="42.8281" lon="0.85845">
        <ele>2425.1</ele>
        <time>2021-06-13T09:41:58Z</time>
      </trkpt>
      <trkpt lat="42.82817" lon="0.85855">
        <ele>2418.4</ele>
        <time>2021-06-13T09:42:15Z</time>
      </trkpt>
      <trkpt lat="42.82826" lon="0.85867">
        <ele>2409.8</ele>
        <time>2021-06-13T09:42:28Z</time>
      </trkpt>
      <trkpt lat="42.82828" lon="0.85856">
        <ele>2409.8</ele>
        <time>2021-06-13T09:42:39Z</time>
      </trkpt>
      <trkpt lat="42.82832" lon="0.8586">
        <ele>2406.2</ele>
        <time>2021-06-13T09:42:50Z</time>
      </trkpt>
      <trkpt lat="42.82835" lon="0.85849">
        <ele>2405.5</ele>
        <time>2021-06-13T09:43:03Z</time>
      </trkpt>
      <trkpt lat="42.82838" lon="0.85853">
        <ele>2402.6</ele>
        <time>2021-06-13T09:43:17Z</time>
      </trkpt>
      <trkpt lat="42.82845" lon="0.85852">
        <ele>2397.5</ele>
        <time>2021-06-13T09:43:37Z</time>
      </trkpt>
      <trkpt lat="42.8285" lon="0.85853">
        <ele>2393.5</ele>
        <time>2021-06-13T09:43:56Z</time>
      </trkpt>
      <trkpt lat="42.82856" lon="0.85847">
        <ele>2390</ele>
        <time>2021-06-13T09:44:18Z</time>
      </trkpt>
      <trkpt lat="42.82865" lon="0.85852">
        <ele>2382.3</ele>
        <time>2021-06-13T09:44:31Z</time>
      </trkpt>
      <trkpt lat="42.82865" lon="0.85834">
        <ele>2385.7</ele>
        <time>2021-06-13T09:44:41Z</time>
      </trkpt>
      <trkpt lat="42.82864" lon="0.85816">
        <ele>2384</ele>
        <time>2021-06-13T09:44:53Z</time>
      </trkpt>
      <trkpt lat="42.82869" lon="0.8582">
        <ele>2381</ele>
        <time>2021-06-13T09:45:12Z</time>
      </trkpt>
      <trkpt lat="42.82877" lon="0.85831">
        <ele>2376.7</ele>
        <time>2021-06-13T09:45:26Z</time>
      </trkpt>
      <trkpt lat="42.82883" lon="0.85841">
        <ele>2371</ele>
        <time>2021-06-13T09:45:43Z</time>
      </trkpt>
      <trkpt lat="42.82891" lon="0.85845">
        <ele>2364.1</ele>
        <time>2021-06-13T09:46:01Z</time>
      </trkpt>
      <trkpt lat="42.82891" lon="0.8583">
        <ele>2366.4</ele>
        <time>2021-06-13T09:46:12Z</time>
      </trkpt>
      <trkpt lat="42.82898" lon="0.85839">
        <ele>2360.3</ele>
        <time>2021-06-13T09:46:31Z</time>
      </trkpt>
      <trkpt lat="42.82903" lon="0.85842">
        <ele>2355.9</ele>
        <time>2021-06-13T09:46:50Z</time>
      </trkpt>
      <trkpt lat="42.82906" lon="0.85858">
        <ele>2349.7</ele>
        <time>2021-06-13T09:47:08Z</time>
      </trkpt>
      <trkpt lat="42.82915" lon="0.85858">
        <ele>2342.8</ele>
        <time>2021-06-13T09:47:33Z</time>
      </trkpt>
      <trkpt lat="42.82921" lon="0.85857">
        <ele>2339.3</ele>
        <time>2021-06-13T09:47:48Z</time>
      </trkpt>
      <trkpt lat="42.82925" lon="0.85867">
        <ele>2334.7</ele>
        <time>2021-06-13T09:47:59Z</time>
      </trkpt>
      <trkpt lat="42.82931" lon="0.85873">
        <ele>2330.2</ele>
        <time>2021-06-13T09:48:11Z</time>
      </trkpt>
      <trkpt lat="42.82936" lon="0.85874">
        <ele>2327.5</ele>
        <time>2021-06-13T09:48:23Z</time>
      </trkpt>
      <trkpt lat="42.82942" lon="0.85878">
        <ele>2323.7</ele>
        <time>2021-06-13T09:48:39Z</time>
      </trkpt>
      <trkpt lat="42.82947" lon="0.8588">
        <ele>2320.9</ele>
        <time>2021-06-13T09:48:55Z</time>
      </trkpt>
      <trkpt lat="42.82953" lon="0.85891">
        <ele>2316.5</ele>
        <time>2021-06-13T09:49:11Z</time>
      </trkpt>
      <trkpt lat="42.82965" lon="0.85893">
        <ele>2310.9</ele>
        <time>2021-06-13T09:49:30Z</time>
      </trkpt>
      <trkpt lat="42.82974" lon="0.85898">
        <ele>2306.6</ele>
        <time>2021-06-13T09:49:42Z</time>
      </trkpt>
      <trkpt lat="42.82986" lon="0.85903">
        <ele>2301.4</ele>
        <time>2021-06-13T09:49:55Z</time>
      </trkpt>
      <trkpt lat="42.82996" lon="0.85915">
        <ele>2297.4</ele>
        <time>2021-06-13T09:50:09Z</time>
      </trkpt>
      <trkpt lat="42.83007" lon="0.85921">
        <ele>2293.4</ele>
        <time>2021-06-13T09:50:19Z</time>
      </trkpt>
      <trkpt lat="42.83019" lon="0.8593">
        <ele>2288.8</ele>
        <time>2021-06-13T09:50:30Z</time>
      </trkpt>
      <trkpt lat="42.83028" lon="0.85939">
        <ele>2285.1</ele>
        <time>2021-06-13T09:50:41Z</time>
      </trkpt>
      <trkpt lat="42.83036" lon="0.85945">
        <ele>2282.6</ele>
        <time>2021-06-13T09:51:13Z</time>
      </trkpt>
      <trkpt lat="42.83045" lon="0.85959">
        <ele>2278.7</ele>
        <time>2021-06-13T09:51:23Z</time>
      </trkpt>
      <trkpt lat="42.83058" lon="0.8596">
        <ele>2276.9</ele>
        <time>2021-06-13T09:51:33Z</time>
      </trkpt>
      <trkpt lat="42.83069" lon="0.85963">
        <ele>2275.2</ele>
        <time>2021-06-13T09:51:42Z</time>
      </trkpt>
      <trkpt lat="42.83081" lon="0.85971">
        <ele>2273</ele>
        <time>2021-06-13T09:51:54Z</time>
      </trkpt>
      <trkpt lat="42.83091" lon="0.8597">
        <ele>2270.3</ele>
        <time>2021-06-13T09:52:06Z</time>
      </trkpt>
      <trkpt lat="42.83101" lon="0.85981">
        <ele>2265.9</ele>
        <time>2021-06-13T09:52:20Z</time>
      </trkpt>
      <trkpt lat="42.83113" lon="0.85978">
        <ele>2262.1</ele>
        <time>2021-06-13T09:52:31Z</time>
      </trkpt>
      <trkpt lat="42.83124" lon="0.85977">
        <ele>2258.5</ele>
        <time>2021-06-13T09:52:43Z</time>
      </trkpt>
      <trkpt lat="42.83134" lon="0.85974">
        <ele>2255.3</ele>
        <time>2021-06-13T09:52:54Z</time>
      </trkpt>
      <trkpt lat="42.8314" lon="0.85981">
        <ele>2252.8</ele>
        <time>2021-06-13T09:53:03Z</time>
      </trkpt>
      <trkpt lat="42.83148" lon="0.85986">
        <ele>2249.9</ele>
        <time>2021-06-13T09:53:14Z</time>
      </trkpt>
      <trkpt lat="42.83156" lon="0.85995">
        <ele>2246.7</ele>
        <time>2021-06-13T09:53:24Z</time>
      </trkpt>
      <trkpt lat="42.83166" lon="0.86003">
        <ele>2242.4</ele>
        <time>2021-06-13T09:53:34Z</time>
      </trkpt>
      <trkpt lat="42.83177" lon="0.86008">
        <ele>2237.8</ele>
        <time>2021-06-13T09:53:45Z</time>
      </trkpt>
      <trkpt lat="42.83186" lon="0.86017">
        <ele>2233</ele>
        <time>2021-06-13T09:53:56Z</time>
      </trkpt>
      <trkpt lat="42.83198" lon="0.86024">
        <ele>2228.3</ele>
        <time>2021-06-13T09:54:05Z</time>
      </trkpt>
      <trkpt lat="42.83211" lon="0.86032">
        <ele>2223.5</ele>
        <time>2021-06-13T09:54:16Z</time>
      </trkpt>
      <trkpt lat="42.83223" lon="0.8604">
        <ele>2219.4</ele>
        <time>2021-06-13T09:54:26Z</time>
      </trkpt>
      <trkpt lat="42.83236" lon="0.86044">
        <ele>2216.1</ele>
        <time>2021-06-13T09:54:36Z</time>
      </trkpt>
      <trkpt lat="42.83248" lon="0.8605">
        <ele>2213</ele>
        <time>2021-06-13T09:54:55Z</time>
      </trkpt>
      <trkpt lat="42.83258" lon="0.86056">
        <ele>2210.6</ele>
        <time>2021-06-13T09:55:11Z</time>
      </trkpt>
      <trkpt lat="42.83272" lon="0.86058">
        <ele>2208</ele>
        <time>2021-06-13T09:55:22Z</time>
      </trkpt>
      <trkpt lat="42.83284" lon="0.86056">
        <ele>2206.1</ele>
        <time>2021-06-13T09:55:33Z</time>
      </trkpt>
      <trkpt lat="42.83293" lon="0.86057">
        <ele>2204.5</ele>
        <time>2021-06-13T09:55:47Z</time>
      </trkpt>
      <trkpt lat="42.83301" lon="0.86058">
        <ele>2203.1</ele>
        <time>2021-06-13T09:55:59Z</time>
      </trkpt>
      <trkpt lat="42.83312" lon="0.8606">
        <ele>2201.3</ele>
        <time>2021-06-13T09:56:09Z</time>
      </trkpt>
      <trkpt lat="42.83325" lon="0.8606">
        <ele>2199.1</ele>
        <time>2021-06-13T09:56:21Z</time>
      </trkpt>
      <trkpt lat="42.83339" lon="0.86057">
        <ele>2196.6</ele>
        <time>2021-06-13T09:56:31Z</time>
      </trkpt>
      <trkpt lat="42.83352" lon="0.86056">
        <ele>2194.1</ele>
        <time>2021-06-13T09:56:41Z</time>
      </trkpt>
      <trkpt lat="42.83364" lon="0.86056">
        <ele>2191.8</ele>
        <time>2021-06-13T09:56:51Z</time>
      </trkpt>
      <trkpt lat="42.83377" lon="0.86056">
        <ele>2189.3</ele>
        <time>2021-06-13T09:57:06Z</time>
      </trkpt>
      <trkpt lat="42.8339" lon="0.86058">
        <ele>2186.8</ele>
        <time>2021-06-13T09:57:21Z</time>
      </trkpt>
      <trkpt lat="42.83403" lon="0.86058">
        <ele>2184.2</ele>
        <time>2021-06-13T09:57:34Z</time>
      </trkpt>
      <trkpt lat="42.83412" lon="0.86061">
        <ele>2182.4</ele>
        <time>2021-06-13T09:57:45Z</time>
      </trkpt>
      <trkpt lat="42.83424" lon="0.86063">
        <ele>2180.7</ele>
        <time>2021-06-13T09:57:57Z</time>
      </trkpt>
      <trkpt lat="42.83436" lon="0.86067">
        <ele>2179.4</ele>
        <time>2021-06-13T09:58:08Z</time>
      </trkpt>
      <trkpt lat="42.83448" lon="0.86071">
        <ele>2178</ele>
        <time>2021-06-13T09:58:18Z</time>
      </trkpt>
      <trkpt lat="42.83461" lon="0.86072">
        <ele>2176.6</ele>
        <time>2021-06-13T09:58:29Z</time>
      </trkpt>
      <trkpt lat="42.83472" lon="0.86073">
        <ele>2175.4</ele>
        <time>2021-06-13T09:58:38Z</time>
      </trkpt>
      <trkpt lat="42.83484" lon="0.86078">
        <ele>2174</ele>
        <time>2021-06-13T09:58:51Z</time>
      </trkpt>
      <trkpt lat="42.83498" lon="0.86071">
        <ele>2172.8</ele>
        <time>2021-06-13T09:59:05Z</time>
      </trkpt>
      <trkpt lat="42.8351" lon="0.86065">
        <ele>2173.3</ele>
        <time>2021-06-13T09:59:30Z</time>
      </trkpt>
      <trkpt lat="42.83518" lon="0.86055">
        <ele>2174</ele>
        <time>2021-06-13T09:59:44Z</time>
      </trkpt>
      <trkpt lat="42.83528" lon="0.86042">
        <ele>2174.7</ele>
        <time>2021-06-13T09:59:57Z</time>
      </trkpt>
      <trkpt lat="42.83538" lon="0.86035">
        <ele>2175</ele>
        <time>2021-06-13T10:00:15Z</time>
      </trkpt>
      <trkpt lat="42.83551" lon="0.86028">
        <ele>2175.3</ele>
        <time>2021-06-13T10:00:27Z</time>
      </trkpt>
      <trkpt lat="42.83554" lon="0.86026">
        <ele>2175.3</ele>
        <time>2021-06-13T10:11:12Z</time>
      </trkpt>
      <trkpt lat="42.83568" lon="0.86028">
        <ele>2175.5</ele>
        <time>2021-06-13T10:11:24Z</time>
      </trkpt>
      <trkpt lat="42.8358" lon="0.86032">
        <ele>2175.7</ele>
        <time>2021-06-13T10:11:38Z</time>
      </trkpt>
      <trkpt lat="42.83592" lon="0.86038">
        <ele>2178.8</ele>
        <time>2021-06-13T10:11:51Z</time>
      </trkpt>
      <trkpt lat="42.83605" lon="0.86046">
        <ele>2183.4</ele>
        <time>2021-06-13T10:12:11Z</time>
      </trkpt>
      <trkpt lat="42.83608" lon="0.86062">
        <ele>2184.8</ele>
        <time>2021-06-13T10:12:49Z</time>
      </trkpt>
      <trkpt lat="42.83605" lon="0.86076">
        <ele>2184.1</ele>
        <time>2021-06-13T10:13:03Z</time>
      </trkpt>
      <trkpt lat="42.83608" lon="0.86092">
        <ele>2183.8</ele>
        <time>2021-06-13T10:13:17Z</time>
      </trkpt>
      <trkpt lat="42.83615" lon="0.86106">
        <ele>2183.6</ele>
        <time>2021-06-13T10:13:37Z</time>
      </trkpt>
      <trkpt lat="42.83623" lon="0.86115">
        <ele>2184.3</ele>
        <time>2021-06-13T10:13:56Z</time>
      </trkpt>
      <trkpt lat="42.83631" lon="0.86125">
        <ele>2184.7</ele>
        <time>2021-06-13T10:14:39Z</time>
      </trkpt>
      <trkpt lat="42.83643" lon="0.86132">
        <ele>2186.4</ele>
        <time>2021-06-13T10:15:02Z</time>
      </trkpt>
      <trkpt lat="42.83652" lon="0.86122">
        <ele>2191.1</ele>
        <time>2021-06-13T10:15:18Z</time>
      </trkpt>
      <trkpt lat="42.83662" lon="0.86113">
        <ele>2196.2</ele>
        <time>2021-06-13T10:15:42Z</time>
      </trkpt>
      <trkpt lat="42.8367" lon="0.86105">
        <ele>2199.4</ele>
        <time>2021-06-13T10:15:56Z</time>
      </trkpt>
      <trkpt lat="42.83679" lon="0.861">
        <ele>2200.3</ele>
        <time>2021-06-13T10:16:16Z</time>
      </trkpt>
      <trkpt lat="42.83684" lon="0.86091">
        <ele>2202.6</ele>
        <time>2021-06-13T10:16:33Z</time>
      </trkpt>
      <trkpt lat="42.83693" lon="0.86079">
        <ele>2204.9</ele>
        <time>2021-06-13T10:17:47Z</time>
      </trkpt>
      <trkpt lat="42.83698" lon="0.86067">
        <ele>2205.8</ele>
        <time>2021-06-13T10:17:57Z</time>
      </trkpt>
      <trkpt lat="42.83709" lon="0.8606">
        <ele>2206.9</ele>
        <time>2021-06-13T10:18:07Z</time>
      </trkpt>
      <trkpt lat="42.83718" lon="0.86053">
        <ele>2208.4</ele>
        <time>2021-06-13T10:18:18Z</time>
      </trkpt>
      <trkpt lat="42.83729" lon="0.86045">
        <ele>2210.6</ele>
        <time>2021-06-13T10:18:32Z</time>
      </trkpt>
      <trkpt lat="42.83737" lon="0.86037">
        <ele>2212.9</ele>
        <time>2021-06-13T10:18:42Z</time>
      </trkpt>
      <trkpt lat="42.83745" lon="0.86025">
        <ele>2216.5</ele>
        <time>2021-06-13T10:19:00Z</time>
      </trkpt>
      <trkpt lat="42.83754" lon="0.86012">
        <ele>2220.2</ele>
        <time>2021-06-13T10:19:14Z</time>
      </trkpt>
      <trkpt lat="42.83765" lon="0.86004">
        <ele>2222.1</ele>
        <time>2021-06-13T10:19:28Z</time>
      </trkpt>
      <trkpt lat="42.83777" lon="0.86001">
        <ele>2222.8</ele>
        <time>2021-06-13T10:19:40Z</time>
      </trkpt>
      <trkpt lat="42.83787" lon="0.85995">
        <ele>2223.3</ele>
        <time>2021-06-13T10:19:52Z</time>
      </trkpt>
      <trkpt lat="42.83798" lon="0.85992">
        <ele>2223.7</ele>
        <time>2021-06-13T10:20:04Z</time>
      </trkpt>
      <trkpt lat="42.83809" lon="0.85989">
        <ele>2224.3</ele>
        <time>2021-06-13T10:20:17Z</time>
      </trkpt>
      <trkpt lat="42.8382" lon="0.8599">
        <ele>2224.4</ele>
        <time>2021-06-13T10:20:32Z</time>
      </trkpt>
      <trkpt lat="42.83829" lon="0.85981">
        <ele>2226</ele>
        <time>2021-06-13T10:20:47Z</time>
      </trkpt>
      <trkpt lat="42.83834" lon="0.85963">
        <ele>2228.9</ele>
        <time>2021-06-13T10:22:02Z</time>
      </trkpt>
      <trkpt lat="42.83837" lon="0.85945">
        <ele>2230.8</ele>
        <time>2021-06-13T10:22:19Z</time>
      </trkpt>
      <trkpt lat="42.83837" lon="0.85928">
        <ele>2233.7</ele>
        <time>2021-06-13T10:22:36Z</time>
      </trkpt>
      <trkpt lat="42.83838" lon="0.85914">
        <ele>2235.6</ele>
        <time>2021-06-13T10:22:48Z</time>
      </trkpt>
      <trkpt lat="42.83841" lon="0.85901">
        <ele>2235.9</ele>
        <time>2021-06-13T10:22:58Z</time>
      </trkpt>
      <trkpt lat="42.83844" lon="0.85887">
        <ele>2236.7</ele>
        <time>2021-06-13T10:23:09Z</time>
      </trkpt>
      <trkpt lat="42.83848" lon="0.85867">
        <ele>2238.1</ele>
        <time>2021-06-13T10:23:25Z</time>
      </trkpt>
      <trkpt lat="42.83853" lon="0.8585">
        <ele>2239.3</ele>
        <time>2021-06-13T10:23:41Z</time>
      </trkpt>
      <trkpt lat="42.8386" lon="0.85839">
        <ele>2239.6</ele>
        <time>2021-06-13T10:23:53Z</time>
      </trkpt>
      <trkpt lat="42.83867" lon="0.85823">
        <ele>2240.5</ele>
        <time>2021-06-13T10:24:12Z</time>
      </trkpt>
      <trkpt lat="42.83874" lon="0.8581">
        <ele>2241.2</ele>
        <time>2021-06-13T10:24:23Z</time>
      </trkpt>
      <trkpt lat="42.8388" lon="0.85799">
        <ele>2242.1</ele>
        <time>2021-06-13T10:25:00Z</time>
      </trkpt>
      <trkpt lat="42.83887" lon="0.85784">
        <ele>2244</ele>
        <time>2021-06-13T10:25:14Z</time>
      </trkpt>
      <trkpt lat="42.83892" lon="0.85772">
        <ele>2245.9</ele>
        <time>2021-06-13T10:25:25Z</time>
      </trkpt>
      <trkpt lat="42.83899" lon="0.8576">
        <ele>2248.2</ele>
        <time>2021-06-13T10:25:39Z</time>
      </trkpt>
      <trkpt lat="42.83907" lon="0.8575">
        <ele>2250.5</ele>
        <time>2021-06-13T10:25:52Z</time>
      </trkpt>
      <trkpt lat="42.83914" lon="0.85736">
        <ele>2252.6</ele>
        <time>2021-06-13T10:26:11Z</time>
      </trkpt>
      <trkpt lat="42.83919" lon="0.85724">
        <ele>2253.7</ele>
        <time>2021-06-13T10:26:21Z</time>
      </trkpt>
      <trkpt lat="42.83927" lon="0.85715">
        <ele>2252.6</ele>
        <time>2021-06-13T10:26:35Z</time>
      </trkpt>
      <trkpt lat="42.83937" lon="0.85708">
        <ele>2250.8</ele>
        <time>2021-06-13T10:26:45Z</time>
      </trkpt>
      <trkpt lat="42.83943" lon="0.85696">
        <ele>2251.3</ele>
        <time>2021-06-13T10:26:57Z</time>
      </trkpt>
      <trkpt lat="42.83948" lon="0.85684">
        <ele>2252.3</ele>
        <time>2021-06-13T10:27:53Z</time>
      </trkpt>
      <trkpt lat="42.83958" lon="0.85675">
        <ele>2251.8</ele>
        <time>2021-06-13T10:28:04Z</time>
      </trkpt>
      <trkpt lat="42.83971" lon="0.85677">
        <ele>2248.5</ele>
        <time>2021-06-13T10:29:08Z</time>
      </trkpt>
      <trkpt lat="42.83981" lon="0.85668">
        <ele>2248.5</ele>
        <time>2021-06-13T10:29:51Z</time>
      </trkpt>
      <trkpt lat="42.83991" lon="0.8566">
        <ele>2247</ele>
        <time>2021-06-13T10:30:08Z</time>
      </trkpt>
      <trkpt lat="42.84003" lon="0.85666">
        <ele>2244</ele>
        <time>2021-06-13T10:30:25Z</time>
      </trkpt>
      <trkpt lat="42.84014" lon="0.85671">
        <ele>2238.9</ele>
        <time>2021-06-13T10:30:49Z</time>
      </trkpt>
      <trkpt lat="42.84026" lon="0.85671">
        <ele>2234.8</ele>
        <time>2021-06-13T10:31:10Z</time>
      </trkpt>
      <trkpt lat="42.84035" lon="0.85673">
        <ele>2231.2</ele>
        <time>2021-06-13T10:31:26Z</time>
      </trkpt>
      <trkpt lat="42.84046" lon="0.85665">
        <ele>2229</ele>
        <time>2021-06-13T10:31:46Z</time>
      </trkpt>
      <trkpt lat="42.84056" lon="0.85663">
        <ele>2225.5</ele>
        <time>2021-06-13T10:32:04Z</time>
      </trkpt>
      <trkpt lat="42.84067" lon="0.85657">
        <ele>2221.6</ele>
        <time>2021-06-13T10:32:23Z</time>
      </trkpt>
      <trkpt lat="42.84078" lon="0.8565">
        <ele>2217.5</ele>
        <time>2021-06-13T10:32:35Z</time>
      </trkpt>
      <trkpt lat="42.8409" lon="0.85652">
        <ele>2213.1</ele>
        <time>2021-06-13T10:32:48Z</time>
      </trkpt>
      <trkpt lat="42.841" lon="0.85649">
        <ele>2209.3</ele>
        <time>2021-06-13T10:33:01Z</time>
      </trkpt>
      <trkpt lat="42.84111" lon="0.85657">
        <ele>2205.5</ele>
        <time>2021-06-13T10:33:17Z</time>
      </trkpt>
      <trkpt lat="42.84124" lon="0.85654">
        <ele>2200.5</ele>
        <time>2021-06-13T10:33:41Z</time>
      </trkpt>
      <trkpt lat="42.84131" lon="0.85642">
        <ele>2197.1</ele>
        <time>2021-06-13T10:33:55Z</time>
      </trkpt>
      <trkpt lat="42.84141" lon="0.85642">
        <ele>2193.2</ele>
        <time>2021-06-13T10:34:09Z</time>
      </trkpt>
      <trkpt lat="42.84152" lon="0.85645">
        <ele>2189.3</ele>
        <time>2021-06-13T10:34:26Z</time>
      </trkpt>
      <trkpt lat="42.84162" lon="0.85646">
        <ele>2185.5</ele>
        <time>2021-06-13T10:34:45Z</time>
      </trkpt>
      <trkpt lat="42.8417" lon="0.8566">
        <ele>2183.9</ele>
        <time>2021-06-13T10:35:05Z</time>
      </trkpt>
      <trkpt lat="42.84182" lon="0.85663">
        <ele>2179.4</ele>
        <time>2021-06-13T10:35:23Z</time>
      </trkpt>
      <trkpt lat="42.8419" lon="0.85677">
        <ele>2174.3</ele>
        <time>2021-06-13T10:35:42Z</time>
      </trkpt>
      <trkpt lat="42.84196" lon="0.85687">
        <ele>2169.8</ele>
        <time>2021-06-13T10:36:00Z</time>
      </trkpt>
      <trkpt lat="42.84207" lon="0.85698">
        <ele>2163.1</ele>
        <time>2021-06-13T10:36:19Z</time>
      </trkpt>
      <trkpt lat="42.84216" lon="0.85702">
        <ele>2158.7</ele>
        <time>2021-06-13T10:36:34Z</time>
      </trkpt>
      <trkpt lat="42.84224" lon="0.85711">
        <ele>2153.8</ele>
        <time>2021-06-13T10:36:52Z</time>
      </trkpt>
      <trkpt lat="42.84232" lon="0.85716">
        <ele>2149.6</ele>
        <time>2021-06-13T10:37:08Z</time>
      </trkpt>
      <trkpt lat="42.84244" lon="0.85716">
        <ele>2144.9</ele>
        <time>2021-06-13T10:37:40Z</time>
      </trkpt>
      <trkpt lat="42.84259" lon="0.85715">
        <ele>2139.3</ele>
        <time>2021-06-13T10:38:02Z</time>
      </trkpt>
      <trkpt lat="42.84269" lon="0.8571">
        <ele>2136.6</ele>
        <time>2021-06-13T10:38:19Z</time>
      </trkpt>
      <trkpt lat="42.84284" lon="0.85705">
        <ele>2132.1</ele>
        <time>2021-06-13T10:38:35Z</time>
      </trkpt>
      <trkpt lat="42.84296" lon="0.85701">
        <ele>2128.5</ele>
        <time>2021-06-13T10:38:47Z</time>
      </trkpt>
      <trkpt lat="42.84308" lon="0.85693">
        <ele>2125.9</ele>
        <time>2021-06-13T10:39:00Z</time>
      </trkpt>
      <trkpt lat="42.84318" lon="0.85684">
        <ele>2124.3</ele>
        <time>2021-06-13T10:39:21Z</time>
      </trkpt>
      <trkpt lat="42.84328" lon="0.85687">
        <ele>2120</ele>
        <time>2021-06-13T10:39:31Z</time>
      </trkpt>
      <trkpt lat="42.84339" lon="0.85688">
        <ele>2115.3</ele>
        <time>2021-06-13T10:39:48Z</time>
      </trkpt>
      <trkpt lat="42.84349" lon="0.857">
        <ele>2107.9</ele>
        <time>2021-06-13T10:40:07Z</time>
      </trkpt>
      <trkpt lat="42.84359" lon="0.85692">
        <ele>2105.3</ele>
        <time>2021-06-13T10:40:46Z</time>
      </trkpt>
      <trkpt lat="42.84369" lon="0.85684">
        <ele>2102.8</ele>
        <time>2021-06-13T10:40:56Z</time>
      </trkpt>
      <trkpt lat="42.84379" lon="0.85674">
        <ele>2100.9</ele>
        <time>2021-06-13T10:41:11Z</time>
      </trkpt>
      <trkpt lat="42.84382" lon="0.8566">
        <ele>2101.1</ele>
        <time>2021-06-13T10:41:24Z</time>
      </trkpt>
      <trkpt lat="42.8439" lon="0.85646">
        <ele>2097</ele>
        <time>2021-06-13T10:41:41Z</time>
      </trkpt>
      <trkpt lat="42.84395" lon="0.8563">
        <ele>2094.4</ele>
        <time>2021-06-13T10:41:56Z</time>
      </trkpt>
      <trkpt lat="42.84402" lon="0.8562">
        <ele>2091.3</ele>
        <time>2021-06-13T10:42:09Z</time>
      </trkpt>
      <trkpt lat="42.84409" lon="0.8561">
        <ele>2088.3</ele>
        <time>2021-06-13T10:42:28Z</time>
      </trkpt>
      <trkpt lat="42.84415" lon="0.856">
        <ele>2085.8</ele>
        <time>2021-06-13T10:42:56Z</time>
      </trkpt>
      <trkpt lat="42.84423" lon="0.85595">
        <ele>2082</ele>
        <time>2021-06-13T10:43:11Z</time>
      </trkpt>
      <trkpt lat="42.84427" lon="0.85582">
        <ele>2079.8</ele>
        <time>2021-06-13T10:43:24Z</time>
      </trkpt>
      <trkpt lat="42.84433" lon="0.85564">
        <ele>2073.7</ele>
        <time>2021-06-13T10:43:43Z</time>
      </trkpt>
      <trkpt lat="42.84437" lon="0.85552">
        <ele>2069.8</ele>
        <time>2021-06-13T10:43:58Z</time>
      </trkpt>
      <trkpt lat="42.84449" lon="0.85555">
        <ele>2064.8</ele>
        <time>2021-06-13T10:44:13Z</time>
      </trkpt>
      <trkpt lat="42.84459" lon="0.85564">
        <ele>2061.7</ele>
        <time>2021-06-13T10:44:29Z</time>
      </trkpt>
      <trkpt lat="42.84462" lon="0.85548">
        <ele>2057.8</ele>
        <time>2021-06-13T10:45:13Z</time>
      </trkpt>
      <trkpt lat="42.84467" lon="0.85534">
        <ele>2053.5</ele>
        <time>2021-06-13T10:45:36Z</time>
      </trkpt>
      <trkpt lat="42.84464" lon="0.85521">
        <ele>2052.9</ele>
        <time>2021-06-13T10:45:56Z</time>
      </trkpt>
      <trkpt lat="42.84461" lon="0.85504">
        <ele>2051.5</ele>
        <time>2021-06-13T10:46:19Z</time>
      </trkpt>
      <trkpt lat="42.8446" lon="0.8549">
        <ele>2048.4</ele>
        <time>2021-06-13T10:46:33Z</time>
      </trkpt>
      <trkpt lat="42.84449" lon="0.85471">
        <ele>2046.5</ele>
        <time>2021-06-13T10:47:03Z</time>
      </trkpt>
      <trkpt lat="42.84446" lon="0.85459">
        <ele>2043.6</ele>
        <time>2021-06-13T10:47:22Z</time>
      </trkpt>
      <trkpt lat="42.8444" lon="0.85444">
        <ele>2040.3</ele>
        <time>2021-06-13T10:47:39Z</time>
      </trkpt>
      <trkpt lat="42.8444" lon="0.85436">
        <ele>2037.6</ele>
        <time>2021-06-13T10:47:50Z</time>
      </trkpt>
      <trkpt lat="42.84435" lon="0.8542">
        <ele>2033.2</ele>
        <time>2021-06-13T10:48:12Z</time>
      </trkpt>
      <trkpt lat="42.84434" lon="0.85402">
        <ele>2029.9</ele>
        <time>2021-06-13T10:48:35Z</time>
      </trkpt>
      <trkpt lat="42.84429" lon="0.85388">
        <ele>2028.7</ele>
        <time>2021-06-13T10:48:56Z</time>
      </trkpt>
      <trkpt lat="42.84429" lon="0.85372">
        <ele>2026.1</ele>
        <time>2021-06-13T10:49:15Z</time>
      </trkpt>
      <trkpt lat="42.84433" lon="0.85363">
        <ele>2024</ele>
        <time>2021-06-13T10:49:28Z</time>
      </trkpt>
      <trkpt lat="42.84445" lon="0.85366">
        <ele>2022.2</ele>
        <time>2021-06-13T10:49:49Z</time>
      </trkpt>
      <trkpt lat="42.84455" lon="0.85354">
        <ele>2018.6</ele>
        <time>2021-06-13T10:50:21Z</time>
      </trkpt>
      <trkpt lat="42.84458" lon="0.85348">
        <ele>2017.2</ele>
        <time>2021-06-13T10:55:38Z</time>
      </trkpt>
      <trkpt lat="42.8447" lon="0.85347">
        <ele>2014.9</ele>
        <time>2021-06-13T10:57:45Z</time>
      </trkpt>
      <trkpt lat="42.84482" lon="0.8535">
        <ele>2013.2</ele>
        <time>2021-06-13T10:57:56Z</time>
      </trkpt>
      <trkpt lat="42.84494" lon="0.85351">
        <ele>2011.2</ele>
        <time>2021-06-13T10:58:07Z</time>
      </trkpt>
      <trkpt lat="42.84502" lon="0.85345">
        <ele>2008.9</ele>
        <time>2021-06-13T10:58:18Z</time>
      </trkpt>
      <trkpt lat="42.84514" lon="0.85342">
        <ele>2005.4</ele>
        <time>2021-06-13T10:58:30Z</time>
      </trkpt>
      <trkpt lat="42.84524" lon="0.85338">
        <ele>2002.2</ele>
        <time>2021-06-13T10:58:43Z</time>
      </trkpt>
      <trkpt lat="42.84534" lon="0.85345">
        <ele>2000.5</ele>
        <time>2021-06-13T10:59:01Z</time>
      </trkpt>
      <trkpt lat="42.84543" lon="0.85352">
        <ele>1999</ele>
        <time>2021-06-13T10:59:11Z</time>
      </trkpt>
      <trkpt lat="42.84554" lon="0.8535">
        <ele>1995.9</ele>
        <time>2021-06-13T10:59:21Z</time>
      </trkpt>
      <trkpt lat="42.84565" lon="0.85354">
        <ele>1993.5</ele>
        <time>2021-06-13T10:59:32Z</time>
      </trkpt>
      <trkpt lat="42.84577" lon="0.85361">
        <ele>1991.3</ele>
        <time>2021-06-13T10:59:46Z</time>
      </trkpt>
      <trkpt lat="42.84589" lon="0.85367">
        <ele>1988.9</ele>
        <time>2021-06-13T10:59:59Z</time>
      </trkpt>
      <trkpt lat="42.84602" lon="0.85372">
        <ele>1985.9</ele>
        <time>2021-06-13T11:00:12Z</time>
      </trkpt>
      <trkpt lat="42.84613" lon="0.85377">
        <ele>1983.3</ele>
        <time>2021-06-13T11:00:36Z</time>
      </trkpt>
      <trkpt lat="42.84625" lon="0.85384">
        <ele>1980.6</ele>
        <time>2021-06-13T11:00:49Z</time>
      </trkpt>
      <trkpt lat="42.84631" lon="0.85398">
        <ele>1980</ele>
        <time>2021-06-13T11:01:04Z</time>
      </trkpt>
      <trkpt lat="42.84641" lon="0.85404">
        <ele>1977.4</ele>
        <time>2021-06-13T11:01:17Z</time>
      </trkpt>
      <trkpt lat="42.84651" lon="0.85412">
        <ele>1974.8</ele>
        <time>2021-06-13T11:01:34Z</time>
      </trkpt>
      <trkpt lat="42.84659" lon="0.85407">
        <ele>1971.9</ele>
        <time>2021-06-13T11:01:47Z</time>
      </trkpt>
      <trkpt lat="42.8467" lon="0.85403">
        <ele>1969.2</ele>
        <time>2021-06-13T11:01:57Z</time>
      </trkpt>
      <trkpt lat="42.84683" lon="0.85405">
        <ele>1968.7</ele>
        <time>2021-06-13T11:02:16Z</time>
      </trkpt>
      <trkpt lat="42.84694" lon="0.854">
        <ele>1968.1</ele>
        <time>2021-06-13T11:02:26Z</time>
      </trkpt>
      <trkpt lat="42.84706" lon="0.854">
        <ele>1967.6</ele>
        <time>2021-06-13T11:02:38Z</time>
      </trkpt>
      <trkpt lat="42.84718" lon="0.85398">
        <ele>1967.1</ele>
        <time>2021-06-13T11:03:22Z</time>
      </trkpt>
      <trkpt lat="42.84727" lon="0.85387">
        <ele>1966.5</ele>
        <time>2021-06-13T11:03:43Z</time>
      </trkpt>
      <trkpt lat="42.84733" lon="0.85377">
        <ele>1966</ele>
        <time>2021-06-13T11:04:13Z</time>
      </trkpt>
      <trkpt lat="42.84742" lon="0.85365">
        <ele>1965.6</ele>
        <time>2021-06-13T11:04:29Z</time>
      </trkpt>
      <trkpt lat="42.84751" lon="0.85353">
        <ele>1965.3</ele>
        <time>2021-06-13T11:05:08Z</time>
      </trkpt>
      <trkpt lat="42.84763" lon="0.85352">
        <ele>1965.5</ele>
        <time>2021-06-13T11:05:20Z</time>
      </trkpt>
      <trkpt lat="42.84776" lon="0.85348">
        <ele>1965.7</ele>
        <time>2021-06-13T11:05:37Z</time>
      </trkpt>
      <trkpt lat="42.84788" lon="0.85348">
        <ele>1966</ele>
        <time>2021-06-13T11:06:33Z</time>
      </trkpt>
      <trkpt lat="42.84798" lon="0.85347">
        <ele>1966.2</ele>
        <time>2021-06-13T11:06:56Z</time>
      </trkpt>
      <trkpt lat="42.84809" lon="0.85342">
        <ele>1966.4</ele>
        <time>2021-06-13T11:07:07Z</time>
      </trkpt>
      <trkpt lat="42.84821" lon="0.85337">
        <ele>1966.7</ele>
        <time>2021-06-13T11:07:20Z</time>
      </trkpt>
      <trkpt lat="42.84831" lon="0.85327">
        <ele>1966.8</ele>
        <time>2021-06-13T11:07:35Z</time>
      </trkpt>
      <trkpt lat="42.84839" lon="0.85316">
        <ele>1966.5</ele>
        <time>2021-06-13T11:07:45Z</time>
      </trkpt>
      <trkpt lat="42.8485" lon="0.8531">
        <ele>1966.1</ele>
        <time>2021-06-13T11:08:07Z</time>
      </trkpt>
      <trkpt lat="42.8486" lon="0.85299">
        <ele>1965.7</ele>
        <time>2021-06-13T11:08:20Z</time>
      </trkpt>
      <trkpt lat="42.84869" lon="0.85289">
        <ele>1965.3</ele>
        <time>2021-06-13T11:09:17Z</time>
      </trkpt>
      <trkpt lat="42.84882" lon="0.85288">
        <ele>1965.1</ele>
        <time>2021-06-13T11:09:29Z</time>
      </trkpt>
      <trkpt lat="42.84892" lon="0.85284">
        <ele>1964.8</ele>
        <time>2021-06-13T11:09:41Z</time>
      </trkpt>
      <trkpt lat="42.84903" lon="0.85276">
        <ele>1964.5</ele>
        <time>2021-06-13T11:09:52Z</time>
      </trkpt>
      <trkpt lat="42.84912" lon="0.85265">
        <ele>1964.2</ele>
        <time>2021-06-13T11:10:06Z</time>
      </trkpt>
      <trkpt lat="42.84923" lon="0.85256">
        <ele>1964.2</ele>
        <time>2021-06-13T11:10:20Z</time>
      </trkpt>
      <trkpt lat="42.84933" lon="0.85247">
        <ele>1964.5</ele>
        <time>2021-06-13T11:10:48Z</time>
      </trkpt>
      <trkpt lat="42.84945" lon="0.85243">
        <ele>1965</ele>
        <time>2021-06-13T11:11:01Z</time>
      </trkpt>
      <trkpt lat="42.84957" lon="0.85238">
        <ele>1965.5</ele>
        <time>2021-06-13T11:11:21Z</time>
      </trkpt>
      <trkpt lat="42.8497" lon="0.85228">
        <ele>1966.2</ele>
        <time>2021-06-13T11:11:41Z</time>
      </trkpt>
      <trkpt lat="42.84982" lon="0.85221">
        <ele>1966.9</ele>
        <time>2021-06-13T11:11:54Z</time>
      </trkpt>
      <trkpt lat="42.84991" lon="0.85214">
        <ele>1967.5</ele>
        <time>2021-06-13T11:12:06Z</time>
      </trkpt>
      <trkpt lat="42.85" lon="0.85205">
        <ele>1968.2</ele>
        <time>2021-06-13T11:12:16Z</time>
      </trkpt>
      <trkpt lat="42.8501" lon="0.85197">
        <ele>1968.9</ele>
        <time>2021-06-13T11:12:29Z</time>
      </trkpt>
      <trkpt lat="42.8502" lon="0.85188">
        <ele>1969.6</ele>
        <time>2021-06-13T11:12:39Z</time>
      </trkpt>
      <trkpt lat="42.85029" lon="0.85186">
        <ele>1969.9</ele>
        <time>2021-06-13T11:12:49Z</time>
      </trkpt>
      <trkpt lat="42.85039" lon="0.85186">
        <ele>1970.2</ele>
        <time>2021-06-13T11:13:57Z</time>
      </trkpt>
      <trkpt lat="42.85052" lon="0.85185">
        <ele>1970.6</ele>
        <time>2021-06-13T11:14:09Z</time>
      </trkpt>
      <trkpt lat="42.85062" lon="0.85198">
        <ele>1970.5</ele>
        <time>2021-06-13T11:14:23Z</time>
      </trkpt>
      <trkpt lat="42.85071" lon="0.85204">
        <ele>1970.7</ele>
        <time>2021-06-13T11:14:54Z</time>
      </trkpt>
      <trkpt lat="42.85084" lon="0.85199">
        <ele>1971.3</ele>
        <time>2021-06-13T11:15:14Z</time>
      </trkpt>
      <trkpt lat="42.85089" lon="0.85185">
        <ele>1972.1</ele>
        <time>2021-06-13T11:15:25Z</time>
      </trkpt>
      <trkpt lat="42.85095" lon="0.85172">
        <ele>1973</ele>
        <time>2021-06-13T11:15:36Z</time>
      </trkpt>
      <trkpt lat="42.851" lon="0.85158">
        <ele>1973.4</ele>
        <time>2021-06-13T11:15:50Z</time>
      </trkpt>
      <trkpt lat="42.85105" lon="0.85147">
        <ele>1973.5</ele>
        <time>2021-06-13T11:16:19Z</time>
      </trkpt>
      <trkpt lat="42.85107" lon="0.85132">
        <ele>1973.1</ele>
        <time>2021-06-13T11:16:39Z</time>
      </trkpt>
      <trkpt lat="42.85117" lon="0.85119">
        <ele>1973.3</ele>
        <time>2021-06-13T11:17:08Z</time>
      </trkpt>
      <trkpt lat="42.85128" lon="0.85109">
        <ele>1973.4</ele>
        <time>2021-06-13T11:17:25Z</time>
      </trkpt>
      <trkpt lat="42.85135" lon="0.85098">
        <ele>1973.1</ele>
        <time>2021-06-13T11:17:52Z</time>
      </trkpt>
      <trkpt lat="42.85145" lon="0.85088">
        <ele>1972.8</ele>
        <time>2021-06-13T11:18:05Z</time>
      </trkpt>
      <trkpt lat="42.85155" lon="0.85077">
        <ele>1972.4</ele>
        <time>2021-06-13T11:18:18Z</time>
      </trkpt>
      <trkpt lat="42.85165" lon="0.8507">
        <ele>1972.2</ele>
        <time>2021-06-13T11:18:29Z</time>
      </trkpt>
      <trkpt lat="42.85172" lon="0.85057">
        <ele>1972.5</ele>
        <time>2021-06-13T11:18:42Z</time>
      </trkpt>
      <trkpt lat="42.85178" lon="0.85045">
        <ele>1972.9</ele>
        <time>2021-06-13T11:18:51Z</time>
      </trkpt>
      <trkpt lat="42.85185" lon="0.85031">
        <ele>1973.3</ele>
        <time>2021-06-13T11:19:07Z</time>
      </trkpt>
      <trkpt lat="42.85189" lon="0.85018">
        <ele>1973.1</ele>
        <time>2021-06-13T11:19:19Z</time>
      </trkpt>
      <trkpt lat="42.85196" lon="0.85003">
        <ele>1973.2</ele>
        <time>2021-06-13T11:19:48Z</time>
      </trkpt>
      <trkpt lat="42.85202" lon="0.8499">
        <ele>1973.7</ele>
        <time>2021-06-13T11:19:59Z</time>
      </trkpt>
      <trkpt lat="42.85208" lon="0.84975">
        <ele>1974.1</ele>
        <time>2021-06-13T11:20:11Z</time>
      </trkpt>
      <trkpt lat="42.85211" lon="0.84962">
        <ele>1973.9</ele>
        <time>2021-06-13T11:20:21Z</time>
      </trkpt>
      <trkpt lat="42.85215" lon="0.84948">
        <ele>1973.5</ele>
        <time>2021-06-13T11:20:31Z</time>
      </trkpt>
      <trkpt lat="42.85218" lon="0.84934">
        <ele>1973</ele>
        <time>2021-06-13T11:20:41Z</time>
      </trkpt>
      <trkpt lat="42.85219" lon="0.84923">
        <ele>1972.4</ele>
        <time>2021-06-13T11:20:58Z</time>
      </trkpt>
      <trkpt lat="42.85222" lon="0.84909">
        <ele>1971.5</ele>
        <time>2021-06-13T11:21:37Z</time>
      </trkpt>
      <trkpt lat="42.85224" lon="0.84893">
        <ele>1970.3</ele>
        <time>2021-06-13T11:21:51Z</time>
      </trkpt>
      <trkpt lat="42.85224" lon="0.84877">
        <ele>1969.2</ele>
        <time>2021-06-13T11:22:10Z</time>
      </trkpt>
      <trkpt lat="42.85226" lon="0.84862">
        <ele>1968</ele>
        <time>2021-06-13T11:22:19Z</time>
      </trkpt>
      <trkpt lat="42.85228" lon="0.84846">
        <ele>1966.6</ele>
        <time>2021-06-13T11:22:30Z</time>
      </trkpt>
      <trkpt lat="42.85231" lon="0.84831">
        <ele>1965.1</ele>
        <time>2021-06-13T11:22:40Z</time>
      </trkpt>
      <trkpt lat="42.85234" lon="0.84817">
        <ele>1963.6</ele>
        <time>2021-06-13T11:22:51Z</time>
      </trkpt>
      <trkpt lat="42.85232" lon="0.84801">
        <ele>1962.6</ele>
        <time>2021-06-13T11:23:00Z</time>
      </trkpt>
      <trkpt lat="42.85234" lon="0.8479">
        <ele>1961.4</ele>
        <time>2021-06-13T11:23:09Z</time>
      </trkpt>
      <trkpt lat="42.85235" lon="0.84773">
        <ele>1959.8</ele>
        <time>2021-06-13T11:23:22Z</time>
      </trkpt>
      <trkpt lat="42.85237" lon="0.84757">
        <ele>1958.1</ele>
        <time>2021-06-13T11:23:34Z</time>
      </trkpt>
      <trkpt lat="42.85239" lon="0.84742">
        <ele>1956.4</ele>
        <time>2021-06-13T11:23:45Z</time>
      </trkpt>
      <trkpt lat="42.85241" lon="0.84728">
        <ele>1954.9</ele>
        <time>2021-06-13T11:23:56Z</time>
      </trkpt>
      <trkpt lat="42.85242" lon="0.84711">
        <ele>1953.3</ele>
        <time>2021-06-13T11:24:08Z</time>
      </trkpt>
      <trkpt lat="42.85243" lon="0.84695">
        <ele>1951.8</ele>
        <time>2021-06-13T11:24:26Z</time>
      </trkpt>
      <trkpt lat="42.85248" lon="0.84682">
        <ele>1950.3</ele>
        <time>2021-06-13T11:26:00Z</time>
      </trkpt>
      <trkpt lat="42.85249" lon="0.84667">
        <ele>1949.1</ele>
        <time>2021-06-13T11:26:14Z</time>
      </trkpt>
      <trkpt lat="42.85251" lon="0.84652">
        <ele>1948.3</ele>
        <time>2021-06-13T11:26:44Z</time>
      </trkpt>
      <trkpt lat="42.85246" lon="0.84635">
        <ele>1947.2</ele>
        <time>2021-06-13T11:26:56Z</time>
      </trkpt>
      <trkpt lat="42.85246" lon="0.84617">
        <ele>1946</ele>
        <time>2021-06-13T11:27:13Z</time>
      </trkpt>
      <trkpt lat="42.85246" lon="0.84601">
        <ele>1944.9</ele>
        <time>2021-06-13T11:27:34Z</time>
      </trkpt>
      <trkpt lat="42.85244" lon="0.84585">
        <ele>1943.7</ele>
        <time>2021-06-13T11:27:50Z</time>
      </trkpt>
      <trkpt lat="42.85239" lon="0.84572">
        <ele>1943.6</ele>
        <time>2021-06-13T11:28:05Z</time>
      </trkpt>
      <trkpt lat="42.85233" lon="0.84558">
        <ele>1943.4</ele>
        <time>2021-06-13T11:28:19Z</time>
      </trkpt>
      <trkpt lat="42.8523" lon="0.84542">
        <ele>1943.5</ele>
        <time>2021-06-13T11:28:34Z</time>
      </trkpt>
      <trkpt lat="42.85231" lon="0.84528">
        <ele>1943.9</ele>
        <time>2021-06-13T11:28:46Z</time>
      </trkpt>
      <trkpt lat="42.85224" lon="0.84512">
        <ele>1943.1</ele>
        <time>2021-06-13T11:28:58Z</time>
      </trkpt>
      <trkpt lat="42.85218" lon="0.84496">
        <ele>1942</ele>
        <time>2021-06-13T11:29:21Z</time>
      </trkpt>
      <trkpt lat="42.85211" lon="0.8448">
        <ele>1939.7</ele>
        <time>2021-06-13T11:29:35Z</time>
      </trkpt>
      <trkpt lat="42.85206" lon="0.84466">
        <ele>1937.8</ele>
        <time>2021-06-13T11:29:46Z</time>
      </trkpt>
      <trkpt lat="42.85205" lon="0.84449">
        <ele>1936.5</ele>
        <time>2021-06-13T11:30:02Z</time>
      </trkpt>
      <trkpt lat="42.85203" lon="0.84434">
        <ele>1935</ele>
        <time>2021-06-13T11:30:13Z</time>
      </trkpt>
      <trkpt lat="42.85194" lon="0.84421">
        <ele>1932.2</ele>
        <time>2021-06-13T11:30:30Z</time>
      </trkpt>
      <trkpt lat="42.85197" lon="0.84404">
        <ele>1932.9</ele>
        <time>2021-06-13T11:30:52Z</time>
      </trkpt>
      <trkpt lat="42.85199" lon="0.84388">
        <ele>1933.7</ele>
        <time>2021-06-13T11:31:23Z</time>
      </trkpt>
      <trkpt lat="42.85201" lon="0.84373">
        <ele>1934.4</ele>
        <time>2021-06-13T11:31:33Z</time>
      </trkpt>
      <trkpt lat="42.85205" lon="0.84358">
        <ele>1935.1</ele>
        <time>2021-06-13T11:31:43Z</time>
      </trkpt>
      <trkpt lat="42.8521" lon="0.84344">
        <ele>1935.5</ele>
        <time>2021-06-13T11:31:53Z</time>
      </trkpt>
      <trkpt lat="42.85217" lon="0.84331">
        <ele>1935.6</ele>
        <time>2021-06-13T11:32:02Z</time>
      </trkpt>
      <trkpt lat="42.85226" lon="0.84318">
        <ele>1934.5</ele>
        <time>2021-06-13T11:32:12Z</time>
      </trkpt>
      <trkpt lat="42.85234" lon="0.84306">
        <ele>1933.5</ele>
        <time>2021-06-13T11:32:22Z</time>
      </trkpt>
      <trkpt lat="42.85244" lon="0.84296">
        <ele>1932.8</ele>
        <time>2021-06-13T11:32:32Z</time>
      </trkpt>
      <trkpt lat="42.85252" lon="0.84285">
        <ele>1932</ele>
        <time>2021-06-13T11:32:42Z</time>
      </trkpt>
      <trkpt lat="42.85263" lon="0.84277">
        <ele>1932</ele>
        <time>2021-06-13T11:32:51Z</time>
      </trkpt>
      <trkpt lat="42.85273" lon="0.84271">
        <ele>1932.1</ele>
        <time>2021-06-13T11:33:00Z</time>
      </trkpt>
      <trkpt lat="42.85283" lon="0.84265">
        <ele>1932.2</ele>
        <time>2021-06-13T11:33:09Z</time>
      </trkpt>
      <trkpt lat="42.85294" lon="0.84257">
        <ele>1932.1</ele>
        <time>2021-06-13T11:33:46Z</time>
      </trkpt>
      <trkpt lat="42.85301" lon="0.84246">
        <ele>1931.1</ele>
        <time>2021-06-13T11:33:55Z</time>
      </trkpt>
      <trkpt lat="42.85314" lon="0.84239">
        <ele>1930.9</ele>
        <time>2021-06-13T11:34:06Z</time>
      </trkpt>
      <trkpt lat="42.85313" lon="0.84225">
        <ele>1928.8</ele>
        <time>2021-06-13T11:34:17Z</time>
      </trkpt>
      <trkpt lat="42.85314" lon="0.84209">
        <ele>1926.4</ele>
        <time>2021-06-13T11:34:27Z</time>
      </trkpt>
      <trkpt lat="42.8532" lon="0.84195">
        <ele>1924.4</ele>
        <time>2021-06-13T11:34:37Z</time>
      </trkpt>
      <trkpt lat="42.85324" lon="0.84181">
        <ele>1922.3</ele>
        <time>2021-06-13T11:34:55Z</time>
      </trkpt>
      <trkpt lat="42.85327" lon="0.84166">
        <ele>1920</ele>
        <time>2021-06-13T11:35:06Z</time>
      </trkpt>
      <trkpt lat="42.85332" lon="0.84151">
        <ele>1919.1</ele>
        <time>2021-06-13T11:35:46Z</time>
      </trkpt>
      <trkpt lat="42.85344" lon="0.84138">
        <ele>1917.4</ele>
        <time>2021-06-13T11:36:02Z</time>
      </trkpt>
      <trkpt lat="42.85349" lon="0.84125">
        <ele>1915.5</ele>
        <time>2021-06-13T11:36:20Z</time>
      </trkpt>
      <trkpt lat="42.85357" lon="0.84117">
        <ele>1913.4</ele>
        <time>2021-06-13T11:36:37Z</time>
      </trkpt>
      <trkpt lat="42.85368" lon="0.8411">
        <ele>1910.4</ele>
        <time>2021-06-13T11:37:20Z</time>
      </trkpt>
      <trkpt lat="42.85377" lon="0.84101">
        <ele>1906.8</ele>
        <time>2021-06-13T11:37:51Z</time>
      </trkpt>
      <trkpt lat="42.85381" lon="0.84086">
        <ele>1902.5</ele>
        <time>2021-06-13T11:38:59Z</time>
      </trkpt>
      <trkpt lat="42.85388" lon="0.84072">
        <ele>1897.5</ele>
        <time>2021-06-13T11:39:46Z</time>
      </trkpt>
      <trkpt lat="42.85393" lon="0.84057">
        <ele>1892.7</ele>
        <time>2021-06-13T11:40:24Z</time>
      </trkpt>
      <trkpt lat="42.854" lon="0.84042">
        <ele>1886.6</ele>
        <time>2021-06-13T11:40:42Z</time>
      </trkpt>
      <trkpt lat="42.85412" lon="0.84032">
        <ele>1879.2</ele>
        <time>2021-06-13T11:40:58Z</time>
      </trkpt>
      <trkpt lat="42.85419" lon="0.84021">
        <ele>1874.1</ele>
        <time>2021-06-13T11:41:10Z</time>
      </trkpt>
      <trkpt lat="42.85429" lon="0.8401">
        <ele>1871.2</ele>
        <time>2021-06-13T11:41:25Z</time>
      </trkpt>
      <trkpt lat="42.85434" lon="0.83997">
        <ele>1868.3</ele>
        <time>2021-06-13T11:41:35Z</time>
      </trkpt>
      <trkpt lat="42.85441" lon="0.83983">
        <ele>1867</ele>
        <time>2021-06-13T11:41:45Z</time>
      </trkpt>
      <trkpt lat="42.85446" lon="0.83969">
        <ele>1865.4</ele>
        <time>2021-06-13T11:41:54Z</time>
      </trkpt>
      <trkpt lat="42.85453" lon="0.83954">
        <ele>1863.5</ele>
        <time>2021-06-13T11:42:07Z</time>
      </trkpt>
      <trkpt lat="42.85461" lon="0.83945">
        <ele>1862.2</ele>
        <time>2021-06-13T11:42:21Z</time>
      </trkpt>
      <trkpt lat="42.85473" lon="0.8394">
        <ele>1861.1</ele>
        <time>2021-06-13T11:42:47Z</time>
      </trkpt>
      <trkpt lat="42.85483" lon="0.83937">
        <ele>1860.3</ele>
        <time>2021-06-13T11:43:15Z</time>
      </trkpt>
      <trkpt lat="42.85494" lon="0.83938">
        <ele>1860.1</ele>
        <time>2021-06-13T11:43:26Z</time>
      </trkpt>
      <trkpt lat="42.85506" lon="0.83945">
        <ele>1859.8</ele>
        <time>2021-06-13T11:43:36Z</time>
      </trkpt>
      <trkpt lat="42.85517" lon="0.83949">
        <ele>1858.1</ele>
        <time>2021-06-13T11:43:46Z</time>
      </trkpt>
      <trkpt lat="42.85522" lon="0.83942">
        <ele>1856</ele>
        <time>2021-06-13T12:35:32Z</time>
      </trkpt>
      <trkpt lat="42.8553" lon="0.83935">
        <ele>1853.4</ele>
        <time>2021-06-13T12:37:07Z</time>
      </trkpt>
      <trkpt lat="42.8554" lon="0.83924">
        <ele>1850.1</ele>
        <time>2021-06-13T12:37:21Z</time>
      </trkpt>
      <trkpt lat="42.85549" lon="0.8391">
        <ele>1847.7</ele>
        <time>2021-06-13T12:37:40Z</time>
      </trkpt>
      <trkpt lat="42.85559" lon="0.83903">
        <ele>1846.1</ele>
        <time>2021-06-13T12:37:55Z</time>
      </trkpt>
      <trkpt lat="42.85569" lon="0.83904">
        <ele>1844.5</ele>
        <time>2021-06-13T12:38:21Z</time>
      </trkpt>
      <trkpt lat="42.85582" lon="0.839">
        <ele>1842.4</ele>
        <time>2021-06-13T12:38:42Z</time>
      </trkpt>
      <trkpt lat="42.8559" lon="0.83887">
        <ele>1840.9</ele>
        <time>2021-06-13T12:38:55Z</time>
      </trkpt>
      <trkpt lat="42.85599" lon="0.83884">
        <ele>1838.9</ele>
        <time>2021-06-13T12:39:04Z</time>
      </trkpt>
      <trkpt lat="42.85609" lon="0.83874">
        <ele>1836.6</ele>
        <time>2021-06-13T12:39:21Z</time>
      </trkpt>
      <trkpt lat="42.85617" lon="0.83875">
        <ele>1834.8</ele>
        <time>2021-06-13T12:39:35Z</time>
      </trkpt>
      <trkpt lat="42.85623" lon="0.83889">
        <ele>1833.8</ele>
        <time>2021-06-13T12:39:52Z</time>
      </trkpt>
      <trkpt lat="42.85628" lon="0.83879">
        <ele>1832.4</ele>
        <time>2021-06-13T12:40:12Z</time>
      </trkpt>
      <trkpt lat="42.85639" lon="0.83878">
        <ele>1829.9</ele>
        <time>2021-06-13T12:40:28Z</time>
      </trkpt>
      <trkpt lat="42.85648" lon="0.83873">
        <ele>1827.7</ele>
        <time>2021-06-13T12:40:41Z</time>
      </trkpt>
      <trkpt lat="42.85656" lon="0.83856">
        <ele>1825</ele>
        <time>2021-06-13T12:41:07Z</time>
      </trkpt>
      <trkpt lat="42.85661" lon="0.8384">
        <ele>1822.9</ele>
        <time>2021-06-13T12:41:23Z</time>
      </trkpt>
      <trkpt lat="42.85667" lon="0.83824">
        <ele>1819.1</ele>
        <time>2021-06-13T12:41:37Z</time>
      </trkpt>
      <trkpt lat="42.85676" lon="0.83813">
        <ele>1815.5</ele>
        <time>2021-06-13T12:41:47Z</time>
      </trkpt>
      <trkpt lat="42.85688" lon="0.83807">
        <ele>1812.3</ele>
        <time>2021-06-13T12:42:01Z</time>
      </trkpt>
      <trkpt lat="42.85697" lon="0.83792">
        <ele>1806.9</ele>
        <time>2021-06-13T12:42:19Z</time>
      </trkpt>
      <trkpt lat="42.8571" lon="0.83788">
        <ele>1803.4</ele>
        <time>2021-06-13T12:42:39Z</time>
      </trkpt>
      <trkpt lat="42.85722" lon="0.83789">
        <ele>1801.4</ele>
        <time>2021-06-13T12:42:55Z</time>
      </trkpt>
      <trkpt lat="42.85724" lon="0.83776">
        <ele>1797</ele>
        <time>2021-06-13T12:43:04Z</time>
      </trkpt>
      <trkpt lat="42.85731" lon="0.83764">
        <ele>1791.6</ele>
        <time>2021-06-13T12:43:51Z</time>
      </trkpt>
      <trkpt lat="42.85738" lon="0.83749">
        <ele>1784.9</ele>
        <time>2021-06-13T12:44:09Z</time>
      </trkpt>
      <trkpt lat="42.85733" lon="0.83745">
        <ele>1785.2</ele>
        <time>2021-06-13T12:49:54Z</time>
      </trkpt>
      <trkpt lat="42.85742" lon="0.8373">
        <ele>1778.5</ele>
        <time>2021-06-13T12:50:36Z</time>
      </trkpt>
      <trkpt lat="42.85747" lon="0.83716">
        <ele>1772.9</ele>
        <time>2021-06-13T12:50:50Z</time>
      </trkpt>
      <trkpt lat="42.85751" lon="0.83723">
        <ele>1773.3</ele>
        <time>2021-06-13T12:51:04Z</time>
      </trkpt>
      <trkpt lat="42.85755" lon="0.83706">
        <ele>1766</ele>
        <time>2021-06-13T12:51:17Z</time>
      </trkpt>
      <trkpt lat="42.85756" lon="0.8369">
        <ele>1760.7</ele>
        <time>2021-06-13T12:51:33Z</time>
      </trkpt>
      <trkpt lat="42.85754" lon="0.83675">
        <ele>1757.4</ele>
        <time>2021-06-13T12:51:47Z</time>
      </trkpt>
      <trkpt lat="42.85754" lon="0.8366">
        <ele>1752</ele>
        <time>2021-06-13T12:52:38Z</time>
      </trkpt>
      <trkpt lat="42.8575" lon="0.83643">
        <ele>1746.8</ele>
        <time>2021-06-13T12:52:57Z</time>
      </trkpt>
      <trkpt lat="42.85748" lon="0.83635">
        <ele>1744.4</ele>
        <time>2021-06-13T12:53:21Z</time>
      </trkpt>
      <trkpt lat="42.85757" lon="0.83637">
        <ele>1740.4</ele>
        <time>2021-06-13T12:53:53Z</time>
      </trkpt>
      <trkpt lat="42.85752" lon="0.83623">
        <ele>1737.1</ele>
        <time>2021-06-13T12:54:07Z</time>
      </trkpt>
      <trkpt lat="42.85744" lon="0.8361">
        <ele>1736.2</ele>
        <time>2021-06-13T12:54:37Z</time>
      </trkpt>
      <trkpt lat="42.85734" lon="0.83599">
        <ele>1738.1</ele>
        <time>2021-06-13T12:54:52Z</time>
      </trkpt>
      <trkpt lat="42.85738" lon="0.83597">
        <ele>1734.7</ele>
        <time>2021-06-13T12:55:19Z</time>
      </trkpt>
      <trkpt lat="42.8575" lon="0.83593">
        <ele>1725.2</ele>
        <time>2021-06-13T12:55:46Z</time>
      </trkpt>
      <trkpt lat="42.85756" lon="0.83592">
        <ele>1721.4</ele>
        <time>2021-06-13T12:56:17Z</time>
      </trkpt>
      <trkpt lat="42.85744" lon="0.83582">
        <ele>1724.4</ele>
        <time>2021-06-13T12:56:49Z</time>
      </trkpt>
      <trkpt lat="42.85734" lon="0.83571">
        <ele>1726.2</ele>
        <time>2021-06-13T12:57:14Z</time>
      </trkpt>
      <trkpt lat="42.8573" lon="0.83555">
        <ele>1721.8</ele>
        <time>2021-06-13T12:57:37Z</time>
      </trkpt>
      <trkpt lat="42.85728" lon="0.83541">
        <ele>1717</ele>
        <time>2021-06-13T12:58:03Z</time>
      </trkpt>
      <trkpt lat="42.85736" lon="0.83543">
        <ele>1711.5</ele>
        <time>2021-06-13T12:58:36Z</time>
      </trkpt>
      <trkpt lat="42.85747" lon="0.83548">
        <ele>1705.1</ele>
        <time>2021-06-13T12:58:49Z</time>
      </trkpt>
      <trkpt lat="42.85754" lon="0.83544">
        <ele>1698.5</ele>
        <time>2021-06-13T12:59:05Z</time>
      </trkpt>
      <trkpt lat="42.8575" lon="0.83531">
        <ele>1694</ele>
        <time>2021-06-13T12:59:23Z</time>
      </trkpt>
      <trkpt lat="42.85753" lon="0.83531">
        <ele>1692.4</ele>
        <time>2021-06-13T12:59:45Z</time>
      </trkpt>
      <trkpt lat="42.85757" lon="0.83522">
        <ele>1685.6</ele>
        <time>2021-06-13T13:00:16Z</time>
      </trkpt>
      <trkpt lat="42.85748" lon="0.83511">
        <ele>1685.5</ele>
        <time>2021-06-13T13:00:34Z</time>
      </trkpt>
      <trkpt lat="42.8575" lon="0.83506">
        <ele>1681.1</ele>
        <time>2021-06-13T13:00:56Z</time>
      </trkpt>
      <trkpt lat="42.85749" lon="0.83497">
        <ele>1677.5</ele>
        <time>2021-06-13T13:01:21Z</time>
      </trkpt>
      <trkpt lat="42.85751" lon="0.83495">
        <ele>1675.1</ele>
        <time>2021-06-13T13:01:55Z</time>
      </trkpt>
      <trkpt lat="42.85761" lon="0.83502">
        <ele>1673.2</ele>
        <time>2021-06-13T13:02:10Z</time>
      </trkpt>
      <trkpt lat="42.85768" lon="0.83512">
        <ele>1674.6</ele>
        <time>2021-06-13T13:02:22Z</time>
      </trkpt>
      <trkpt lat="42.8578" lon="0.8351">
        <ele>1667.2</ele>
        <time>2021-06-13T13:02:47Z</time>
      </trkpt>
      <trkpt lat="42.85789" lon="0.8352">
        <ele>1667.5</ele>
        <time>2021-06-13T13:03:04Z</time>
      </trkpt>
      <trkpt lat="42.85801" lon="0.83524">
        <ele>1663.1</ele>
        <time>2021-06-13T13:03:23Z</time>
      </trkpt>
      <trkpt lat="42.85798" lon="0.83508">
        <ele>1656.7</ele>
        <time>2021-06-13T13:03:42Z</time>
      </trkpt>
      <trkpt lat="42.85796" lon="0.83492">
        <ele>1649.9</ele>
        <time>2021-06-13T13:03:59Z</time>
      </trkpt>
      <trkpt lat="42.85789" lon="0.83478">
        <ele>1647</ele>
        <time>2021-06-13T13:04:48Z</time>
      </trkpt>
      <trkpt lat="42.85782" lon="0.83464">
        <ele>1644.1</ele>
        <time>2021-06-13T13:05:09Z</time>
      </trkpt>
      <trkpt lat="42.85775" lon="0.83454">
        <ele>1643.1</ele>
        <time>2021-06-13T13:05:55Z</time>
      </trkpt>
      <trkpt lat="42.85766" lon="0.83445">
        <ele>1643.7</ele>
        <time>2021-06-13T13:06:15Z</time>
      </trkpt>
      <trkpt lat="42.8576" lon="0.83426">
        <ele>1638</ele>
        <time>2021-06-13T13:06:38Z</time>
      </trkpt>
      <trkpt lat="42.85759" lon="0.83411">
        <ele>1632.4</ele>
        <time>2021-06-13T13:06:55Z</time>
      </trkpt>
      <trkpt lat="42.85764" lon="0.83394">
        <ele>1624.7</ele>
        <time>2021-06-13T13:07:10Z</time>
      </trkpt>
      <trkpt lat="42.85764" lon="0.83377">
        <ele>1619.6</ele>
        <time>2021-06-13T13:07:39Z</time>
      </trkpt>
      <trkpt lat="42.85768" lon="0.83362">
        <ele>1613</ele>
        <time>2021-06-13T13:07:56Z</time>
      </trkpt>
      <trkpt lat="42.85769" lon="0.83345">
        <ele>1607.4</ele>
        <time>2021-06-13T13:08:07Z</time>
      </trkpt>
      <trkpt lat="42.85772" lon="0.83328">
        <ele>1602.2</ele>
        <time>2021-06-13T13:08:19Z</time>
      </trkpt>
      <trkpt lat="42.85772" lon="0.83311">
        <ele>1601.8</ele>
        <time>2021-06-13T13:08:34Z</time>
      </trkpt>
      <trkpt lat="42.85772" lon="0.83297">
        <ele>1601.4</ele>
        <time>2021-06-13T13:08:49Z</time>
      </trkpt>
      <trkpt lat="42.85777" lon="0.83284">
        <ele>1598</ele>
        <time>2021-06-13T13:09:07Z</time>
      </trkpt>
      <trkpt lat="42.85773" lon="0.8327">
        <ele>1600.1</ele>
        <time>2021-06-13T13:09:35Z</time>
      </trkpt>
      <trkpt lat="42.85784" lon="0.83256">
        <ele>1592.4</ele>
        <time>2021-06-13T13:09:54Z</time>
      </trkpt>
      <trkpt lat="42.85789" lon="0.8324">
        <ele>1590.6</ele>
        <time>2021-06-13T13:10:09Z</time>
      </trkpt>
      <trkpt lat="42.85794" lon="0.83227">
        <ele>1589.4</ele>
        <time>2021-06-13T13:10:19Z</time>
      </trkpt>
      <trkpt lat="42.85805" lon="0.83215">
        <ele>1583.8</ele>
        <time>2021-06-13T13:10:32Z</time>
      </trkpt>
      <trkpt lat="42.85816" lon="0.83205">
        <ele>1577.7</ele>
        <time>2021-06-13T13:10:44Z</time>
      </trkpt>
      <trkpt lat="42.85823" lon="0.83189">
        <ele>1575.2</ele>
        <time>2021-06-13T13:10:57Z</time>
      </trkpt>
      <trkpt lat="42.85824" lon="0.83174">
        <ele>1576.7</ele>
        <time>2021-06-13T13:11:07Z</time>
      </trkpt>
      <trkpt lat="42.85834" lon="0.83161">
        <ele>1571</ele>
        <time>2021-06-13T13:11:19Z</time>
      </trkpt>
      <trkpt lat="42.85841" lon="0.83147">
        <ele>1567.2</ele>
        <time>2021-06-13T13:16:52Z</time>
      </trkpt>
      <trkpt lat="42.85849" lon="0.83139">
        <ele>1562</ele>
        <time>2021-06-13T13:19:21Z</time>
      </trkpt>
      <trkpt lat="42.85846" lon="0.83124">
        <ele>1565.3</ele>
        <time>2021-06-13T13:19:31Z</time>
      </trkpt>
      <trkpt lat="42.85854" lon="0.83112">
        <ele>1560.2</ele>
        <time>2021-06-13T13:19:42Z</time>
      </trkpt>
      <trkpt lat="42.85865" lon="0.83087">
        <ele>1553.5</ele>
        <time>2021-06-13T13:20:07Z</time>
      </trkpt>
      <trkpt lat="42.85862" lon="0.83072">
        <ele>1554.8</ele>
        <time>2021-06-13T13:20:20Z</time>
      </trkpt>
      <trkpt lat="42.85861" lon="0.8306">
        <ele>1554.3</ele>
        <time>2021-06-13T13:20:39Z</time>
      </trkpt>
      <trkpt lat="42.85865" lon="0.83044">
        <ele>1549.6</ele>
        <time>2021-06-13T13:20:52Z</time>
      </trkpt>
      <trkpt lat="42.85874" lon="0.83031">
        <ele>1541.4</ele>
        <time>2021-06-13T13:21:08Z</time>
      </trkpt>
      <trkpt lat="42.85877" lon="0.83019">
        <ele>1537.9</ele>
        <time>2021-06-13T13:21:21Z</time>
      </trkpt>
      <trkpt lat="42.85875" lon="0.83006">
        <ele>1538.1</ele>
        <time>2021-06-13T13:21:32Z</time>
      </trkpt>
      <trkpt lat="42.85884" lon="0.82986">
        <ele>1529.4</ele>
        <time>2021-06-13T13:21:53Z</time>
      </trkpt>
      <trkpt lat="42.85886" lon="0.82968">
        <ele>1526.2</ele>
        <time>2021-06-13T13:22:10Z</time>
      </trkpt>
      <trkpt lat="42.85881" lon="0.82979">
        <ele>1531</ele>
        <time>2021-06-13T13:22:41Z</time>
      </trkpt>
      <trkpt lat="42.8589" lon="0.82993">
        <ele>1525.5</ele>
        <time>2021-06-13T13:23:10Z</time>
      </trkpt>
      <trkpt lat="42.8592" lon="0.82991">
        <ele>1503.2</ele>
        <time>2021-06-13T13:24:07Z</time>
      </trkpt>
      <trkpt lat="42.85918" lon="0.82976">
        <ele>1502.7</ele>
        <time>2021-06-13T13:24:18Z</time>
      </trkpt>
      <trkpt lat="42.85917" lon="0.82959">
        <ele>1501.4</ele>
        <time>2021-06-13T13:24:35Z</time>
      </trkpt>
      <trkpt lat="42.85932" lon="0.82974">
        <ele>1494.7</ele>
        <time>2021-06-13T13:24:51Z</time>
      </trkpt>
      <trkpt lat="42.85935" lon="0.82988">
        <ele>1494.8</ele>
        <time>2021-06-13T13:25:13Z</time>
      </trkpt>
      <trkpt lat="42.85949" lon="0.83007">
        <ele>1489.8</ele>
        <time>2021-06-13T13:25:28Z</time>
      </trkpt>
      <trkpt lat="42.85951" lon="0.83024">
        <ele>1491</ele>
        <time>2021-06-13T13:25:41Z</time>
      </trkpt>
      <trkpt lat="42.85951" lon="0.83042">
        <ele>1493.4</ele>
        <time>2021-06-13T13:25:57Z</time>
      </trkpt>
      <trkpt lat="42.85965" lon="0.83055">
        <ele>1488.4</ele>
        <time>2021-06-13T13:26:36Z</time>
      </trkpt>
      <trkpt lat="42.8597" lon="0.83041">
        <ele>1484</ele>
        <time>2021-06-13T13:26:50Z</time>
      </trkpt>
      <trkpt lat="42.85974" lon="0.83023">
        <ele>1479.3</ele>
        <time>2021-06-13T13:27:12Z</time>
      </trkpt>
      <trkpt lat="42.85976" lon="0.83009">
        <ele>1476.1</ele>
        <time>2021-06-13T13:27:36Z</time>
      </trkpt>
      <trkpt lat="42.85981" lon="0.82992">
        <ele>1470.6</ele>
        <time>2021-06-13T13:27:53Z</time>
      </trkpt>
      <trkpt lat="42.85986" lon="0.82979">
        <ele>1465.7</ele>
        <time>2021-06-13T13:28:04Z</time>
      </trkpt>
      <trkpt lat="42.85986" lon="0.82961">
        <ele>1462.5</ele>
        <time>2021-06-13T13:28:25Z</time>
      </trkpt>
      <trkpt lat="42.8599" lon="0.82944">
        <ele>1457.1</ele>
        <time>2021-06-13T13:28:46Z</time>
      </trkpt>
      <trkpt lat="42.85992" lon="0.82929">
        <ele>1453.2</ele>
        <time>2021-06-13T13:29:06Z</time>
      </trkpt>
      <trkpt lat="42.85994" lon="0.82913">
        <ele>1449</ele>
        <time>2021-06-13T13:29:21Z</time>
      </trkpt>
      <trkpt lat="42.85998" lon="0.829">
        <ele>1444.1</ele>
        <time>2021-06-13T13:29:41Z</time>
      </trkpt>
      <trkpt lat="42.86005" lon="0.82884">
        <ele>1439.8</ele>
        <time>2021-06-13T13:30:03Z</time>
      </trkpt>
      <trkpt lat="42.86004" lon="0.82867">
        <ele>1436.3</ele>
        <time>2021-06-13T13:30:19Z</time>
      </trkpt>
      <trkpt lat="42.86013" lon="0.82853">
        <ele>1432.8</ele>
        <time>2021-06-13T13:30:39Z</time>
      </trkpt>
      <trkpt lat="42.86015" lon="0.82834">
        <ele>1428.2</ele>
        <time>2021-06-13T13:31:07Z</time>
      </trkpt>
      <trkpt lat="42.86017" lon="0.82819">
        <ele>1425.4</ele>
        <time>2021-06-13T13:31:21Z</time>
      </trkpt>
      <trkpt lat="42.86025" lon="0.82807">
        <ele>1422.2</ele>
        <time>2021-06-13T13:31:35Z</time>
      </trkpt>
      <trkpt lat="42.86028" lon="0.82794">
        <ele>1419.5</ele>
        <time>2021-06-13T13:31:48Z</time>
      </trkpt>
      <trkpt lat="42.86036" lon="0.82778">
        <ele>1415.3</ele>
        <time>2021-06-13T13:32:05Z</time>
      </trkpt>
      <trkpt lat="42.86032" lon="0.82772">
        <ele>1415</ele>
        <time>2021-06-13T13:32:33Z</time>
      </trkpt>
      <trkpt lat="42.86033" lon="0.82765">
        <ele>1413.5</ele>
        <time>2021-06-13T13:32:52Z</time>
      </trkpt>
      <trkpt lat="42.8604" lon="0.82748">
        <ele>1409.1</ele>
        <time>2021-06-13T13:33:15Z</time>
      </trkpt>
      <trkpt lat="42.86041" lon="0.82732">
        <ele>1406.5</ele>
        <time>2021-06-13T13:33:26Z</time>
      </trkpt>
      <trkpt lat="42.86038" lon="0.82717">
        <ele>1405</ele>
        <time>2021-06-13T13:33:37Z</time>
      </trkpt>
      <trkpt lat="42.86046" lon="0.82702">
        <ele>1400.5</ele>
        <time>2021-06-13T13:34:04Z</time>
      </trkpt>
      <trkpt lat="42.86051" lon="0.82682">
        <ele>1395.8</ele>
        <time>2021-06-13T13:34:50Z</time>
      </trkpt>
      <trkpt lat="42.86056" lon="0.8267">
        <ele>1392.1</ele>
        <time>2021-06-13T13:35:07Z</time>
      </trkpt>
      <trkpt lat="42.8606" lon="0.82659">
        <ele>1388.6</ele>
        <time>2021-06-13T13:35:36Z</time>
      </trkpt>
      <trkpt lat="42.86072" lon="0.82675">
        <ele>1387.6</ele>
        <time>2021-06-13T13:36:01Z</time>
      </trkpt>
      <trkpt lat="42.86075" lon="0.82683">
        <ele>1388.2</ele>
        <time>2021-06-13T13:37:32Z</time>
      </trkpt>
      <trkpt lat="42.86076" lon="0.82677">
        <ele>1386.7</ele>
        <time>2021-06-13T13:43:17Z</time>
      </trkpt>
      <trkpt lat="42.8608" lon="0.82662">
        <ele>1382.3</ele>
        <time>2021-06-13T13:43:45Z</time>
      </trkpt>
      <trkpt lat="42.86082" lon="0.82647">
        <ele>1378.7</ele>
        <time>2021-06-13T13:44:01Z</time>
      </trkpt>
      <trkpt lat="42.86081" lon="0.82625">
        <ele>1374.8</ele>
        <time>2021-06-13T13:44:20Z</time>
      </trkpt>
      <trkpt lat="42.86087" lon="0.8261">
        <ele>1373.3</ele>
        <time>2021-06-13T13:44:32Z</time>
      </trkpt>
      <trkpt lat="42.86093" lon="0.82594">
        <ele>1373.9</ele>
        <time>2021-06-13T13:44:44Z</time>
      </trkpt>
      <trkpt lat="42.861" lon="0.82581">
        <ele>1375.8</ele>
        <time>2021-06-13T13:44:55Z</time>
      </trkpt>
      <trkpt lat="42.86109" lon="0.8257">
        <ele>1379.6</ele>
        <time>2021-06-13T13:45:04Z</time>
      </trkpt>
      <trkpt lat="42.86113" lon="0.82556">
        <ele>1379.8</ele>
        <time>2021-06-13T13:45:22Z</time>
      </trkpt>
      <trkpt lat="42.86104" lon="0.82544">
        <ele>1372.3</ele>
        <time>2021-06-13T13:45:36Z</time>
      </trkpt>
      <trkpt lat="42.86099" lon="0.82527">
        <ele>1366.4</ele>
        <time>2021-06-13T13:45:46Z</time>
      </trkpt>
      <trkpt lat="42.86095" lon="0.82511">
        <ele>1361.2</ele>
        <time>2021-06-13T13:45:55Z</time>
      </trkpt>
      <trkpt lat="42.86089" lon="0.82497">
        <ele>1355.3</ele>
        <time>2021-06-13T13:46:05Z</time>
      </trkpt>
      <trkpt lat="42.8608" lon="0.82482">
        <ele>1350.1</ele>
        <time>2021-06-13T13:46:15Z</time>
      </trkpt>
      <trkpt lat="42.86075" lon="0.82468">
        <ele>1348.7</ele>
        <time>2021-06-13T13:46:28Z</time>
      </trkpt>
      <trkpt lat="42.86074" lon="0.82451">
        <ele>1346.5</ele>
        <time>2021-06-13T13:46:42Z</time>
      </trkpt>
      <trkpt lat="42.86076" lon="0.82437">
        <ele>1344.6</ele>
        <time>2021-06-13T13:46:53Z</time>
      </trkpt>
      <trkpt lat="42.8608" lon="0.82422">
        <ele>1342.6</ele>
        <time>2021-06-13T13:47:04Z</time>
      </trkpt>
      <trkpt lat="42.86083" lon="0.82406">
        <ele>1339.9</ele>
        <time>2021-06-13T13:47:16Z</time>
      </trkpt>
      <trkpt lat="42.86087" lon="0.82392">
        <ele>1339.6</ele>
        <time>2021-06-13T13:47:28Z</time>
      </trkpt>
      <trkpt lat="42.8609" lon="0.82377">
        <ele>1338.4</ele>
        <time>2021-06-13T13:47:41Z</time>
      </trkpt>
      <trkpt lat="42.86095" lon="0.82358">
        <ele>1337.3</ele>
        <time>2021-06-13T13:47:56Z</time>
      </trkpt>
      <trkpt lat="42.86097" lon="0.82344">
        <ele>1335.4</ele>
        <time>2021-06-13T13:48:11Z</time>
      </trkpt>
      <trkpt lat="42.86102" lon="0.82328">
        <ele>1333.5</ele>
        <time>2021-06-13T13:48:21Z</time>
      </trkpt>
      <trkpt lat="42.86107" lon="0.82313">
        <ele>1329.8</ele>
        <time>2021-06-13T13:48:48Z</time>
      </trkpt>
      <trkpt lat="42.86107" lon="0.82293">
        <ele>1321.5</ele>
        <time>2021-06-13T13:48:59Z</time>
      </trkpt>
      <trkpt lat="42.86109" lon="0.82278">
        <ele>1316.1</ele>
        <time>2021-06-13T13:49:08Z</time>
      </trkpt>
      <trkpt lat="42.86116" lon="0.82264">
        <ele>1312.7</ele>
        <time>2021-06-13T13:49:20Z</time>
      </trkpt>
      <trkpt lat="42.86121" lon="0.82248">
        <ele>1307.4</ele>
        <time>2021-06-13T13:49:35Z</time>
      </trkpt>
      <trkpt lat="42.86116" lon="0.82238">
        <ele>1301.7</ele>
        <time>2021-06-13T13:49:44Z</time>
      </trkpt>
      <trkpt lat="42.86136" lon="0.82228">
        <ele>1303.5</ele>
        <time>2021-06-13T13:50:28Z</time>
      </trkpt>
      <trkpt lat="42.86153" lon="0.82206">
        <ele>1298.3</ele>
        <time>2021-06-13T13:50:56Z</time>
      </trkpt>
      <trkpt lat="42.86169" lon="0.82194">
        <ele>1296.8</ele>
        <time>2021-06-13T13:51:33Z</time>
      </trkpt>
      <trkpt lat="42.86178" lon="0.82168">
        <ele>1286.6</ele>
        <time>2021-06-13T13:52:01Z</time>
      </trkpt>
      <trkpt lat="42.8619" lon="0.82157">
        <ele>1284.3</ele>
        <time>2021-06-13T13:52:14Z</time>
      </trkpt>
      <trkpt lat="42.86204" lon="0.82144">
        <ele>1281.6</ele>
        <time>2021-06-13T13:52:31Z</time>
      </trkpt>
      <trkpt lat="42.86211" lon="0.82131">
        <ele>1277</ele>
        <time>2021-06-13T13:52:46Z</time>
      </trkpt>
      <trkpt lat="42.86215" lon="0.82111">
        <ele>1268.1</ele>
        <time>2021-06-13T13:53:12Z</time>
      </trkpt>
      <trkpt lat="42.86221" lon="0.82094">
        <ele>1261.3</ele>
        <time>2021-06-13T13:53:29Z</time>
      </trkpt>
      <trkpt lat="42.86213" lon="0.82091">
        <ele>1257.6</ele>
        <time>2021-06-13T13:53:46Z</time>
      </trkpt>
      <trkpt lat="42.86223" lon="0.82083">
        <ele>1256.4</ele>
        <time>2021-06-13T13:54:03Z</time>
      </trkpt>
      <trkpt lat="42.86228" lon="0.82069">
        <ele>1251</ele>
        <time>2021-06-13T13:54:19Z</time>
      </trkpt>
      <trkpt lat="42.86239" lon="0.82058">
        <ele>1248.7</ele>
        <time>2021-06-13T13:54:39Z</time>
      </trkpt>
      <trkpt lat="42.8625" lon="0.82052">
        <ele>1249</ele>
        <time>2021-06-13T13:54:58Z</time>
      </trkpt>
      <trkpt lat="42.86252" lon="0.82032">
        <ele>1240.2</ele>
        <time>2021-06-13T13:55:11Z</time>
      </trkpt>
      <trkpt lat="42.86253" lon="0.82018">
        <ele>1233.9</ele>
        <time>2021-06-13T13:55:23Z</time>
      </trkpt>
      <trkpt lat="42.86258" lon="0.82007">
        <ele>1230.9</ele>
        <time>2021-06-13T13:55:37Z</time>
      </trkpt>
      <trkpt lat="42.86268" lon="0.81998">
        <ele>1231.1</ele>
        <time>2021-06-13T13:55:47Z</time>
      </trkpt>
      <trkpt lat="42.8627" lon="0.81982">
        <ele>1224.5</ele>
        <time>2021-06-13T13:56:44Z</time>
      </trkpt>
      <trkpt lat="42.86275" lon="0.81966">
        <ele>1219.2</ele>
        <time>2021-06-13T13:56:57Z</time>
      </trkpt>
      <trkpt lat="42.86284" lon="0.81958">
        <ele>1219.4</ele>
        <time>2021-06-13T13:57:14Z</time>
      </trkpt>
      <trkpt lat="42.86294" lon="0.81948">
        <ele>1219.2</ele>
        <time>2021-06-13T13:57:27Z</time>
      </trkpt>
      <trkpt lat="42.86298" lon="0.81933">
        <ele>1214</ele>
        <time>2021-06-13T13:57:41Z</time>
      </trkpt>
      <trkpt lat="42.86303" lon="0.81917">
        <ele>1208.7</ele>
        <time>2021-06-13T13:57:51Z</time>
      </trkpt>
      <trkpt lat="42.8631" lon="0.81905">
        <ele>1206.2</ele>
        <time>2021-06-13T13:58:08Z</time>
      </trkpt>
      <trkpt lat="42.86315" lon="0.81892">
        <ele>1202.2</ele>
        <time>2021-06-13T13:58:21Z</time>
      </trkpt>
      <trkpt lat="42.86323" lon="0.81878">
        <ele>1198.8</ele>
        <time>2021-06-13T13:58:35Z</time>
      </trkpt>
      <trkpt lat="42.86331" lon="0.81859">
        <ele>1192.7</ele>
        <time>2021-06-13T13:58:54Z</time>
      </trkpt>
      <trkpt lat="42.86333" lon="0.81844">
        <ele>1186.1</ele>
        <time>2021-06-13T13:59:04Z</time>
      </trkpt>
      <trkpt lat="42.8634" lon="0.81827">
        <ele>1180.7</ele>
        <time>2021-06-13T13:59:16Z</time>
      </trkpt>
      <trkpt lat="42.8634" lon="0.81814">
        <ele>1175.6</ele>
        <time>2021-06-13T13:59:30Z</time>
      </trkpt>
      <trkpt lat="42.86349" lon="0.818">
        <ele>1173.6</ele>
        <time>2021-06-13T13:59:57Z</time>
      </trkpt>
      <trkpt lat="42.86365" lon="0.81775">
        <ele>1171.4</ele>
        <time>2021-06-13T14:00:18Z</time>
      </trkpt>
      <trkpt lat="42.8638" lon="0.81775">
        <ele>1178.2</ele>
        <time>2021-06-13T14:00:28Z</time>
      </trkpt>
      <trkpt lat="42.86392" lon="0.81779">
        <ele>1184.7</ele>
        <time>2021-06-13T14:00:41Z</time>
      </trkpt>
      <trkpt lat="42.86407" lon="0.81778">
        <ele>1191.1</ele>
        <time>2021-06-13T14:01:01Z</time>
      </trkpt>
      <trkpt lat="42.864" lon="0.81766">
        <ele>1184.8</ele>
        <time>2021-06-13T14:02:12Z</time>
      </trkpt>
      <trkpt lat="42.86396" lon="0.81755">
        <ele>1179.9</ele>
        <time>2021-06-13T14:02:51Z</time>
      </trkpt>
      <trkpt lat="42.86401" lon="0.81738">
        <ele>1177.4</ele>
        <time>2021-06-13T14:03:02Z</time>
      </trkpt>
      <trkpt lat="42.864" lon="0.81722">
        <ele>1171.9</ele>
        <time>2021-06-13T14:03:14Z</time>
      </trkpt>
      <trkpt lat="42.86403" lon="0.81703">
        <ele>1167.5</ele>
        <time>2021-06-13T14:03:25Z</time>
      </trkpt>
      <trkpt lat="42.86409" lon="0.81686">
        <ele>1165.2</ele>
        <time>2021-06-13T14:03:35Z</time>
      </trkpt>
      <trkpt lat="42.86407" lon="0.81667">
        <ele>1158.3</ele>
        <time>2021-06-13T14:03:50Z</time>
      </trkpt>
      <trkpt lat="42.86416" lon="0.81651">
        <ele>1161.3</ele>
        <time>2021-06-13T14:04:00Z</time>
      </trkpt>
      <trkpt lat="42.86419" lon="0.8163">
        <ele>1161.9</ele>
        <time>2021-06-13T14:04:12Z</time>
      </trkpt>
      <trkpt lat="42.86417" lon="0.81611">
        <ele>1158.6</ele>
        <time>2021-06-13T14:04:22Z</time>
      </trkpt>
      <trkpt lat="42.86416" lon="0.81593">
        <ele>1156.4</ele>
        <time>2021-06-13T14:04:43Z</time>
      </trkpt>
      <trkpt lat="42.86413" lon="0.81578">
        <ele>1154.2</ele>
        <time>2021-06-13T14:04:56Z</time>
      </trkpt>
      <trkpt lat="42.8641" lon="0.81559">
        <ele>1154.4</ele>
        <time>2021-06-13T14:05:07Z</time>
      </trkpt>
      <trkpt lat="42.8641" lon="0.81541">
        <ele>1156.5</ele>
        <time>2021-06-13T14:05:19Z</time>
      </trkpt>
      <trkpt lat="42.86402" lon="0.81525">
        <ele>1152.7</ele>
        <time>2021-06-13T14:05:32Z</time>
      </trkpt>
      <trkpt lat="42.86399" lon="0.81512">
        <ele>1152</ele>
        <time>2021-06-13T14:05:42Z</time>
      </trkpt>
      <trkpt lat="42.8639" lon="0.81502">
        <ele>1146.6</ele>
        <time>2021-06-13T14:05:52Z</time>
      </trkpt>
      <trkpt lat="42.86382" lon="0.8149">
        <ele>1141.8</ele>
        <time>2021-06-13T14:06:03Z</time>
      </trkpt>
      <trkpt lat="42.8638" lon="0.81472">
        <ele>1141.7</ele>
        <time>2021-06-13T14:06:22Z</time>
      </trkpt>
      <trkpt lat="42.86376" lon="0.81455">
        <ele>1140.2</ele>
        <time>2021-06-13T14:06:33Z</time>
      </trkpt>
      <trkpt lat="42.86372" lon="0.81441">
        <ele>1138.6</ele>
        <time>2021-06-13T14:06:44Z</time>
      </trkpt>
      <trkpt lat="42.86368" lon="0.81425">
        <ele>1137.2</ele>
        <time>2021-06-13T14:06:54Z</time>
      </trkpt>
      <trkpt lat="42.86366" lon="0.81407">
        <ele>1136.3</ele>
        <time>2021-06-13T14:07:04Z</time>
      </trkpt>
      <trkpt lat="42.86366" lon="0.81391">
        <ele>1135.9</ele>
        <time>2021-06-13T14:07:21Z</time>
      </trkpt>
      <trkpt lat="42.86364" lon="0.81373">
        <ele>1134.1</ele>
        <time>2021-06-13T14:07:31Z</time>
      </trkpt>
      <trkpt lat="42.86364" lon="0.81357">
        <ele>1133.6</ele>
        <time>2021-06-13T14:07:42Z</time>
      </trkpt>
      <trkpt lat="42.86366" lon="0.81341">
        <ele>1134.5</ele>
        <time>2021-06-13T14:07:53Z</time>
      </trkpt>
      <trkpt lat="42.86367" lon="0.81324">
        <ele>1136.2</ele>
        <time>2021-06-13T14:08:14Z</time>
      </trkpt>
      <trkpt lat="42.86355" lon="0.81313">
        <ele>1129.3</ele>
        <time>2021-06-13T14:08:24Z</time>
      </trkpt>
      <trkpt lat="42.86347" lon="0.81302">
        <ele>1125.2</ele>
        <time>2021-06-13T14:08:46Z</time>
      </trkpt>
      <trkpt lat="42.86341" lon="0.81286">
        <ele>1123</ele>
        <time>2021-06-13T14:08:57Z</time>
      </trkpt>
      <trkpt lat="42.86333" lon="0.81273">
        <ele>1119</ele>
        <time>2021-06-13T14:09:06Z</time>
      </trkpt>
      <trkpt lat="42.86328" lon="0.81257">
        <ele>1117.8</ele>
        <time>2021-06-13T14:09:17Z</time>
      </trkpt>
      <trkpt lat="42.86322" lon="0.81241">
        <ele>1114.8</ele>
        <time>2021-06-13T14:09:27Z</time>
      </trkpt>
      <trkpt lat="42.86312" lon="0.81229">
        <ele>1108.6</ele>
        <time>2021-06-13T14:09:38Z</time>
      </trkpt>
      <trkpt lat="42.86305" lon="0.81213">
        <ele>1104.3</ele>
        <time>2021-06-13T14:09:55Z</time>
      </trkpt>
      <trkpt lat="42.86303" lon="0.81197">
        <ele>1103.2</ele>
        <time>2021-06-13T14:10:05Z</time>
      </trkpt>
      <trkpt lat="42.86303" lon="0.81181">
        <ele>1103.2</ele>
        <time>2021-06-13T14:10:33Z</time>
      </trkpt>
      <trkpt lat="42.86305" lon="0.81169">
        <ele>1104.1</ele>
        <time>2021-06-13T14:10:42Z</time>
      </trkpt>
      <trkpt lat="42.86308" lon="0.8115">
        <ele>1102.2</ele>
        <time>2021-06-13T14:10:52Z</time>
      </trkpt>
      <trkpt lat="42.86313" lon="0.81131">
        <ele>1100.6</ele>
        <time>2021-06-13T14:11:02Z</time>
      </trkpt>
      <trkpt lat="42.86316" lon="0.81111">
        <ele>1097.7</ele>
        <time>2021-06-13T14:11:13Z</time>
      </trkpt>
      <trkpt lat="42.86319" lon="0.81097">
        <ele>1096.2</ele>
        <time>2021-06-13T14:11:22Z</time>
      </trkpt>
      <trkpt lat="42.86323" lon="0.81081">
        <ele>1094.6</ele>
        <time>2021-06-13T14:11:34Z</time>
      </trkpt>
      <trkpt lat="42.8632" lon="0.81063">
        <ele>1087.9</ele>
        <time>2021-06-13T14:11:56Z</time>
      </trkpt>
      <trkpt lat="42.86319" lon="0.81047">
        <ele>1082.9</ele>
        <time>2021-06-13T14:12:12Z</time>
      </trkpt>
      <trkpt lat="42.86322" lon="0.81033">
        <ele>1080.7</ele>
        <time>2021-06-13T14:12:23Z</time>
      </trkpt>
      <trkpt lat="42.86326" lon="0.81027">
        <ele>1081.3</ele>
        <time>2021-06-13T14:12:39Z</time>
      </trkpt>
      <trkpt lat="42.86334" lon="0.81011">
        <ele>1081.5</ele>
        <time>2021-06-13T14:13:19Z</time>
      </trkpt>
      <trkpt lat="42.8634" lon="0.80997">
        <ele>1081.4</ele>
        <time>2021-06-13T14:13:36Z</time>
      </trkpt>
      <trkpt lat="42.86347" lon="0.80982">
        <ele>1082.3</ele>
        <time>2021-06-13T14:13:47Z</time>
      </trkpt>
      <trkpt lat="42.86354" lon="0.80967">
        <ele>1082.8</ele>
        <time>2021-06-13T14:13:57Z</time>
      </trkpt>
      <trkpt lat="42.86359" lon="0.80953">
        <ele>1082.2</ele>
        <time>2021-06-13T14:14:08Z</time>
      </trkpt>
      <trkpt lat="42.86363" lon="0.80938">
        <ele>1080.6</ele>
        <time>2021-06-13T14:14:21Z</time>
      </trkpt>
      <trkpt lat="42.86372" lon="0.80923">
        <ele>1081.2</ele>
        <time>2021-06-13T14:14:31Z</time>
      </trkpt>
      <trkpt lat="42.86378" lon="0.809">
        <ele>1076.6</ele>
        <time>2021-06-13T14:15:03Z</time>
      </trkpt>
      <trkpt lat="42.86386" lon="0.80886">
        <ele>1075</ele>
        <time>2021-06-13T14:15:15Z</time>
      </trkpt>
      <trkpt lat="42.86389" lon="0.80869">
        <ele>1069.8</ele>
        <time>2021-06-13T14:15:28Z</time>
      </trkpt>
      <trkpt lat="42.8639" lon="0.80849">
        <ele>1062.6</ele>
        <time>2021-06-13T14:15:41Z</time>
      </trkpt>
      <trkpt lat="42.86387" lon="0.80832">
        <ele>1055.3</ele>
        <time>2021-06-13T14:15:53Z</time>
      </trkpt>
      <trkpt lat="42.86397" lon="0.80827">
        <ele>1056.3</ele>
        <time>2021-06-13T14:16:08Z</time>
      </trkpt>
      <trkpt lat="42.8641" lon="0.80821">
        <ele>1057.7</ele>
        <time>2021-06-13T14:16:27Z</time>
      </trkpt>
      <trkpt lat="42.8642" lon="0.80809">
        <ele>1056.4</ele>
        <time>2021-06-13T14:16:42Z</time>
      </trkpt>
      <trkpt lat="42.86431" lon="0.80801">
        <ele>1057.5</ele>
        <time>2021-06-13T14:17:09Z</time>
      </trkpt>
      <trkpt lat="42.8645" lon="0.80792">
        <ele>1061.7</ele>
        <time>2021-06-13T14:17:56Z</time>
      </trkpt>
      <trkpt lat="42.8646" lon="0.8078">
        <ele>1062.3</ele>
        <time>2021-06-13T14:18:06Z</time>
      </trkpt>
      <trkpt lat="42.86464" lon="0.80763">
        <ele>1059.5</ele>
        <time>2021-06-13T14:18:23Z</time>
      </trkpt>
      <trkpt lat="42.8647" lon="0.80749">
        <ele>1058.8</ele>
        <time>2021-06-13T14:18:34Z</time>
      </trkpt>
      <trkpt lat="42.86473" lon="0.80732">
        <ele>1058.2</ele>
        <time>2021-06-13T14:18:44Z</time>
      </trkpt>
      <trkpt lat="42.86472" lon="0.80717">
        <ele>1055.8</ele>
        <time>2021-06-13T14:18:54Z</time>
      </trkpt>
      <trkpt lat="42.8647" lon="0.80703">
        <ele>1052.9</ele>
        <time>2021-06-13T14:19:03Z</time>
      </trkpt>
      <trkpt lat="42.86469" lon="0.80686">
        <ele>1050.2</ele>
        <time>2021-06-13T14:19:14Z</time>
      </trkpt>
      <trkpt lat="42.86468" lon="0.80669">
        <ele>1047.3</ele>
        <time>2021-06-13T14:19:25Z</time>
      </trkpt>
      <trkpt lat="42.86461" lon="0.80657">
        <ele>1041.8</ele>
        <time>2021-06-13T14:19:34Z</time>
      </trkpt>
      <trkpt lat="42.86457" lon="0.80641">
        <ele>1038</ele>
        <time>2021-06-13T14:19:45Z</time>
      </trkpt>
      <trkpt lat="42.86454" lon="0.80627">
        <ele>1035.1</ele>
        <time>2021-06-13T14:20:18Z</time>
      </trkpt>
      <trkpt lat="42.86459" lon="0.80613">
        <ele>1036.9</ele>
        <time>2021-06-13T14:20:28Z</time>
      </trkpt>
      <trkpt lat="42.86466" lon="0.80598">
        <ele>1039.6</ele>
        <time>2021-06-13T14:20:41Z</time>
      </trkpt>
      <trkpt lat="42.86471" lon="0.80587">
        <ele>1041.3</ele>
        <time>2021-06-13T14:21:02Z</time>
      </trkpt>
      <trkpt lat="42.86477" lon="0.80573">
        <ele>1043</ele>
        <time>2021-06-13T14:21:16Z</time>
      </trkpt>
      <trkpt lat="42.86483" lon="0.80558">
        <ele>1044.2</ele>
        <time>2021-06-13T14:21:36Z</time>
      </trkpt>
      <trkpt lat="42.86488" lon="0.80542">
        <ele>1044.6</ele>
        <time>2021-06-13T14:21:46Z</time>
      </trkpt>
      <trkpt lat="42.86494" lon="0.80528">
        <ele>1045.5</ele>
        <time>2021-06-13T14:21:56Z</time>
      </trkpt>
      <trkpt lat="42.86502" lon="0.80515">
        <ele>1047.3</ele>
        <time>2021-06-13T14:22:06Z</time>
      </trkpt>
      <trkpt lat="42.86511" lon="0.805">
        <ele>1049.1</ele>
        <time>2021-06-13T14:22:20Z</time>
      </trkpt>
      <trkpt lat="42.86519" lon="0.80489">
        <ele>1050.7</ele>
        <time>2021-06-13T14:22:30Z</time>
      </trkpt>
      <trkpt lat="42.86529" lon="0.80483">
        <ele>1054.3</ele>
        <time>2021-06-13T14:22:43Z</time>
      </trkpt>
      <trkpt lat="42.86532" lon="0.80468">
        <ele>1052.9</ele>
        <time>2021-06-13T14:23:04Z</time>
      </trkpt>
      <trkpt lat="42.86533" lon="0.80451">
        <ele>1050.1</ele>
        <time>2021-06-13T14:23:14Z</time>
      </trkpt>
      <trkpt lat="42.86539" lon="0.80437">
        <ele>1050.5</ele>
        <time>2021-06-13T14:23:25Z</time>
      </trkpt>
      <trkpt lat="42.86543" lon="0.80418">
        <ele>1048.9</ele>
        <time>2021-06-13T14:23:36Z</time>
      </trkpt>
      <trkpt lat="42.86545" lon="0.80404">
        <ele>1048.4</ele>
        <time>2021-06-13T14:23:45Z</time>
      </trkpt>
      <trkpt lat="42.86548" lon="0.80387">
        <ele>1048.2</ele>
        <time>2021-06-13T14:23:55Z</time>
      </trkpt>
      <trkpt lat="42.86556" lon="0.80374">
        <ele>1051</ele>
        <time>2021-06-13T14:24:06Z</time>
      </trkpt>
      <trkpt lat="42.86569" lon="0.80373">
        <ele>1057.5</ele>
        <time>2021-06-13T14:24:16Z</time>
      </trkpt>
      <trkpt lat="42.86581" lon="0.80362">
        <ele>1062.6</ele>
        <time>2021-06-13T14:24:32Z</time>
      </trkpt>
      <trkpt lat="42.8659" lon="0.80349">
        <ele>1065.9</ele>
        <time>2021-06-13T14:24:42Z</time>
      </trkpt>
      <trkpt lat="42.86579" lon="0.80335">
        <ele>1058.9</ele>
        <time>2021-06-13T14:24:53Z</time>
      </trkpt>
      <trkpt lat="42.86572" lon="0.80322">
        <ele>1055.2</ele>
        <time>2021-06-13T14:25:03Z</time>
      </trkpt>
      <trkpt lat="42.86565" lon="0.80308">
        <ele>1051.5</ele>
        <time>2021-06-13T14:25:14Z</time>
      </trkpt>
      <trkpt lat="42.8656" lon="0.80295">
        <ele>1049</ele>
        <time>2021-06-13T14:25:24Z</time>
      </trkpt>
      <trkpt lat="42.8655" lon="0.80281">
        <ele>1043.8</ele>
        <time>2021-06-13T14:25:44Z</time>
      </trkpt>
      <trkpt lat="42.86545" lon="0.80265">
        <ele>1041.2</ele>
        <time>2021-06-13T14:26:05Z</time>
      </trkpt>
      <trkpt lat="42.86538" lon="0.80244">
        <ele>1037.4</ele>
        <time>2021-06-13T14:26:22Z</time>
      </trkpt>
      <trkpt lat="42.86533" lon="0.80231">
        <ele>1034.4</ele>
        <time>2021-06-13T14:26:37Z</time>
      </trkpt>
      <trkpt lat="42.8653" lon="0.80217">
        <ele>1032.5</ele>
        <time>2021-06-13T14:26:50Z</time>
      </trkpt>
      <trkpt lat="42.86523" lon="0.80201">
        <ele>1028.6</ele>
        <time>2021-06-13T14:27:02Z</time>
      </trkpt>
      <trkpt lat="42.86517" lon="0.80186">
        <ele>1025.4</ele>
        <time>2021-06-13T14:27:13Z</time>
      </trkpt>
      <trkpt lat="42.8651" lon="0.80169">
        <ele>1021.7</ele>
        <time>2021-06-13T14:27:26Z</time>
      </trkpt>
      <trkpt lat="42.86506" lon="0.80156">
        <ele>1018.4</ele>
        <time>2021-06-13T14:27:37Z</time>
      </trkpt>
      <trkpt lat="42.86505" lon="0.8014">
        <ele>1015.9</ele>
        <time>2021-06-13T14:27:48Z</time>
      </trkpt>
      <trkpt lat="42.86507" lon="0.80123">
        <ele>1014.7</ele>
        <time>2021-06-13T14:28:11Z</time>
      </trkpt>
      <trkpt lat="42.86517" lon="0.8011">
        <ele>1018</ele>
        <time>2021-06-13T14:28:23Z</time>
      </trkpt>
      <trkpt lat="42.86515" lon="0.80095">
        <ele>1015.2</ele>
        <time>2021-06-13T14:28:33Z</time>
      </trkpt>
      <trkpt lat="42.86508" lon="0.80081">
        <ele>1009.9</ele>
        <time>2021-06-13T14:28:44Z</time>
      </trkpt>
      <trkpt lat="42.86504" lon="0.80073">
        <ele>1007.2</ele>
        <time>2021-06-13T14:30:15Z</time>
      </trkpt>
      <trkpt lat="42.86497" lon="0.80057">
        <ele>1002.1</ele>
        <time>2021-06-13T14:30:26Z</time>
      </trkpt>
      <trkpt lat="42.86493" lon="0.80041">
        <ele>998.5</ele>
        <time>2021-06-13T14:30:43Z</time>
      </trkpt>
      <trkpt lat="42.86489" lon="0.80025">
        <ele>995</ele>
        <time>2021-06-13T14:30:53Z</time>
      </trkpt>
      <trkpt lat="42.86486" lon="0.80008">
        <ele>992.1</ele>
        <time>2021-06-13T14:31:04Z</time>
      </trkpt>
      <trkpt lat="42.86482" lon="0.79991">
        <ele>988.5</ele>
        <time>2021-06-13T14:31:15Z</time>
      </trkpt>
      <trkpt lat="42.86477" lon="0.79979">
        <ele>984.9</ele>
        <time>2021-06-13T14:31:25Z</time>
      </trkpt>
      <trkpt lat="42.86475" lon="0.79988">
        <ele>984.6</ele>
        <time>2021-06-13T14:31:35Z</time>
      </trkpt>
      <trkpt lat="42.86475" lon="0.80011">
        <ele>986.1</ele>
        <time>2021-06-13T14:31:46Z</time>
      </trkpt>
      <trkpt lat="42.86474" lon="0.80027">
        <ele>986.7</ele>
      </trkpt>
    </trkseg>
  </trk>
</gpx>